GFSNW_sfc_thetae_000.txt.gz
Theta_e
311 311 311 310 310 309 311 300 294 307 308 296 290 289 293 297 297 300 298 297 295 293 293 291 291 291 293 297 296 291 292 287 281 286 292 294 291 289 287 279 279 280 277 281
310 310 310 309 309 309 307 301 299 306 305 288 284 294 296 297 297 297 296 295 296 296 292 288 292 294 297 298 296 292 292 285 279 282 287 290 289 290 289 285 283 282 276 281
310 310 307 307 309 309 305 298 293 299 299 295 294 292 292 294 298 297 298 296 297 294 292 294 290 292 297 298 297 299 296 287 283 279 283 286 285 289 289 287 283 282 283 286
310 307 306 308 309 309 306 298 294 296 288 292 294 295 294 294 292 297 297 295 295 292 287 288 288 293 294 296 298 295 293 285 286 287 289 288 289 288 289 286 286 284 287 285
309 306 306 308 309 309 302 298 297 297 294 296 293 291 292 295 294 295 293 294 294 294 290 291 288 292 291 291 293 290 291 283 284 283 287 287 285 288 288 288 288 287 288 287
308 306 305 306 308 308 303 300 299 299 290 289 288 288 293 294 296 296 297 296 293 287 294 297 297 297 296 294 291 288 288 282 281 277 284 283 279 283 286 287 288 287 283 288
310 305 305 307 307 308 305 302 298 292 286 283 289 294 295 294 294 294 296 296 290 295 300 297 294 291 289 290 292 294 284 281 280 277 284 275 286 290 290 288 288 289 288 289
310 306 307 307 307 308 307 303 299 292 285 288 291 294 294 294 295 294 295 299 298 298 293 286 282 282 281 282 291 289 288 285 281 282 281 282 288 289 286 285 285 289 288 291
308 309 308 307 307 308 309 305 300 296 289 290 296 294 294 287 286 287 293 299 299 295 283 282 275 275 281 283 285 289 288 282 280 281 278 277 284 288 290 291 281 291 293 294
307 308 309 307 307 308 309 306 303 299 289 295 297 291 292 293 289 289 287 293 290 293 282 281 276 278 284 280 276 276 279 282 284 283 280 281 287 290 292 282 284 292 292 294
307 307 308 308 307 307 309 306 307 303 292 296 301 300 296 295 292 287 292 291 288 288 285 281 282 273 281 280 284 281 280 276 274 278 278 275 289 291 286 291 293 294 294 293
306 307 307 307 307 307 308 305 307 305 299 297 302 304 303 301 300 295 291 292 291 289 286 285 282 279 282 282 282 286 282 285 284 286 282 289 293 295 295 296 294 292 291 293
305 306 306 307 307 307 308 304 303 300 290 296 299 298 304 309 305 305 294 287 295 292 293 286 284 280 283 285 285 282 290 292 287 288 290 294 297 297 297 296 295 293 293 292
305 305 306 306 306 307 306 303 302 300 293 286 292 300 300 305 307 304 304 301 299 295 291 286 285 286 293 286 291 289 291 293 290 289 294 294 294 294 295 294 295 294 293 293
305 306 305 305 306 306 305 304 305 305 300 288 290 297 301 303 303 302 301 301 298 293 289 286 287 288 289 287 287 287 293 291 286 288 294 295 296 296 297 294 293 293 292 290
305 305 306 306 305 306 305 299 302 304 307 292 287 294 293 297 300 299 297 299 297 295 294 288 292 296 291 286 287 292 295 297 298 295 299 298 296 294 293 291 290 290 290 289
304 304 305 305 305 308 304 298 299 304 302 289 287 287 288 293 296 294 295 296 294 295 294 290 290 291 295 286 288 293 295 296 297 297 297 291 291 290 292 291 291 290 289 289
304 304 304 305 305 305 302 302 305 306 298 292 287 288 286 293 287 287 292 288 291 294 294 290 287 289 287 286 292 293 294 295 293 292 292 291 293 292 290 289 287 285 284 285
304 304 304 303 301 296 298 303 303 302 298 289 286 286 286 294 289 288 285 288 286 290 286 287 289 286 286 290 288 288 289 289 289 290 289 289 286 285 285 285 284 283 283 283
304 301 296 288 292 302 302 298 293 292 289 290 286 289 287 294 286 286 287 285 285 284 285 288 285 285 291 288 289 289 288 289 289 285 285 284 284 284 284 284 284 283 283 283
297 291 288 296 302 296 291 286 287 287 286 286 287 287 287 291 286 286 286 284 284 276 277 283 281 279 284 285 285 286 286 286 286 286 286 286 286 285 285 284 283 282 282 282
297 296 298 296 293 288 288 285 284 285 282 285 285 286 289 287 292 286 285 282 282 276 280 279 273 279 284 285 285 285 286 285 285 286 286 286 286 285 284 283 283 282 281 278
295 291 288 289 286 283 283 278 282 282 284 285 285 285 285 286 287 284 282 276 275 277 274 273 276 281 282 283 284 285 285 284 282 283 283 283 283 282 280 280 281 279 280 281
286 283 283 282 280 282 282 282 277 280 285 285 285 284 283 282 281 279 273 275 275 275 269 270 275 281 282 282 283 283 283 279 279 282 282 280 279 279 279 277 278 276 278 280
283 281 277 280 280 282 285 285 285 285 287 285 284 282 280 278 275 277 273 274 272 273 270 271 276 281 282 282 283 282 280 278 278 282 280 278 278 277 279 280 278 277 277 277
281 279 274 280 282 281 283 285 285 287 285 283 280 274 273 272 271 269 272 270 268 270 269 274 278 282 282 283 281 282 282 281 282 282 281 280 277 277 281 281 279 278 277 277
275 273 282 275 274 276 278 285 285 287 284 279 275 269 270 272 266 268 272 268 270 271 274 276 280 282 282 282 282 280 280 281 281 281 280 280 280 277 275 276 281 280 279 277

GFSNW_sfc_thetae_003.txt.gz
Theta_e
310 310 310 309 310 309 308 301 299 309 310 297 293 292 296 298 299 301 300 299 297 295 295 294 294 293 295 298 300 295 296 291 287 290 295 297 295 292 291 286 283 287 284 285
310 310 307 308 309 309 307 301 302 307 307 291 288 297 297 298 298 297 298 297 298 298 294 291 295 296 300 299 299 296 296 290 284 285 291 294 293 293 291 289 288 285 283 286
310 308 307 308 309 309 304 300 296 300 299 298 296 294 295 296 299 298 298 297 299 296 294 296 294 295 299 300 300 299 298 290 287 283 286 290 288 290 291 291 287 286 287 289
309 306 306 307 308 308 305 299 296 298 291 295 296 297 296 295 294 298 299 297 296 295 290 292 293 296 297 298 299 298 297 290 289 290 291 290 290 290 290 289 290 286 289 290
306 306 306 307 308 308 303 300 298 297 295 296 296 292 296 295 296 297 296 295 297 297 293 293 292 296 295 294 297 296 294 288 289 286 289 288 286 289 290 290 291 290 291 290
307 306 306 307 308 308 303 301 301 300 290 291 291 291 295 296 298 297 299 298 295 291 297 300 301 300 298 298 295 293 292 289 286 283 286 286 283 287 289 290 292 291 287 292
309 305 306 307 307 307 306 303 299 295 288 287 291 296 297 296 297 296 298 298 293 299 302 300 297 293 292 294 294 296 286 286 285 284 285 279 290 293 293 291 292 292 291 293
309 308 307 307 307 308 307 303 300 295 286 289 292 295 295 296 297 296 297 300 299 301 297 290 286 286 284 286 291 291 292 287 284 282 283 285 290 292 290 289 289 293 293 295
308 308 307 307 307 308 309 305 301 298 290 292 297 295 296 291 290 292 296 301 300 297 289 287 283 283 283 286 287 289 289 286 287 284 281 279 288 291 294 294 286 295 296 296
307 307 307 307 306 308 310 307 304 300 292 297 298 295 294 295 293 292 292 297 294 297 287 285 285 286 286 285 280 280 283 284 283 284 282 285 291 292 294 285 287 294 296 296
306 307 307 307 306 307 310 307 306 303 293 298 302 301 297 296 295 292 294 294 292 290 286 286 286 284 286 286 287 285 285 283 281 281 280 279 292 292 290 294 295 296 296 295
306 306 306 307 307 307 308 307 306 305 301 300 305 308 306 304 301 297 293 296 293 294 288 286 286 284 282 285 285 289 285 289 287 287 287 293 294 296 298 297 295 294 293 293
305 305 306 307 307 307 308 305 304 301 292 298 301 301 305 309 307 306 297 292 298 295 296 290 287 286 287 284 284 287 291 293 290 289 294 294 297 298 298 296 296 294 295 293
305 305 305 306 306 306 306 305 302 300 293 287 295 301 302 307 309 308 306 301 299 297 294 287 286 286 293 287 292 291 294 294 291 290 295 296 296 298 299 295 296 294 295 294
306 304 305 305 306 306 306 305 306 305 302 290 291 299 302 303 306 306 304 302 299 295 290 287 288 291 291 289 288 287 295 294 290 290 296 296 296 298 298 294 293 293 291 291
304 305 305 306 305 306 305 300 304 306 306 292 289 296 295 298 302 302 301 302 299 298 294 289 294 298 294 286 285 294 297 299 299 296 297 295 295 295 294 292 291 291 291 290
304 304 305 305 305 309 304 299 301 304 303 290 288 288 291 295 296 295 296 297 297 298 295 290 291 293 295 286 287 294 297 298 297 297 295 290 291 290 292 292 291 291 290 289
304 304 304 304 305 305 303 304 305 304 299 294 287 287 288 294 289 288 293 290 293 295 295 290 290 291 289 287 293 293 293 294 293 292 294 293 291 290 290 290 290 288 287 287
304 304 305 304 301 297 300 303 304 303 299 290 286 286 286 293 290 289 288 290 287 291 286 287 290 287 286 289 288 289 290 291 289 290 288 289 289 289 289 289 288 287 286 286
304 302 298 289 293 302 303 299 294 291 291 291 286 289 288 294 288 287 288 286 286 285 287 288 285 286 289 288 290 291 290 290 290 287 286 287 287 287 287 287 288 287 286 286
297 291 288 296 302 297 292 286 287 287 286 287 287 287 287 291 287 286 286 285 285 281 282 284 283 283 285 287 287 288 288 289 289 289 289 288 287 286 286 286 287 286 285 284
298 296 298 296 294 288 286 285 284 285 284 286 286 286 289 287 292 286 284 283 282 276 282 282 279 283 286 287 288 288 288 287 287 287 286 286 285 286 285 285 285 284 284 282
296 292 288 290 286 284 284 281 283 283 285 286 286 285 286 286 287 284 282 279 278 280 278 277 280 284 284 285 286 287 287 286 284 286 286 286 285 285 282 282 283 282 282 283
287 286 283 283 282 283 279 279 280 283 286 286 286 283 284 282 282 280 278 277 277 275 273 274 279 283 283 284 285 285 285 280 280 283 284 282 281 281 281 279 279 279 280 282
283 283 280 281 281 284 285 285 286 285 287 286 284 283 283 279 278 278 276 276 274 275 275 277 281 283 284 284 284 284 282 279 280 284 283 280 280 279 281 282 281 282 279 279
282 279 278 281 280 282 285 285 285 287 285 284 282 278 279 277 276 274 272 272 271 276 276 279 281 283 284 284 283 283 283 283 283 283 282 282 280 279 282 282 281 280 279 279
277 275 279 277 278 281 283 285 286 288 285 279 278 276 276 275 272 272 274 272 276 277 278 279 281 283 284 284 283 281 281 282 283 283 283 282 282 279 279 280 283 283 282 281

GFSNW_sfc_thetae_006.txt.gz
Theta_e
310 309 308 309 309 310 316 318 308 319 323 309 307 303 303 301 303 306 304 305 302 300 300 298 298 297 300 303 303 298 301 298 292 293 299 301 300 297 296 291 285 291 289 289
310 306 307 309 309 310 319 314 313 319 319 305 304 303 302 303 303 302 303 302 303 303 300 297 299 300 303 304 303 300 301 296 289 291 296 299 297 297 297 295 293 288 286 290
307 306 306 307 309 309 319 314 309 312 313 309 306 303 301 300 304 303 304 302 304 302 300 302 299 299 302 303 303 299 302 297 292 287 290 294 291 293 295 295 289 289 291 293
306 306 307 308 309 309 318 314 308 308 305 305 306 305 303 300 299 303 304 302 302 301 297 298 298 300 301 301 300 303 302 292 295 295 295 295 294 293 294 292 294 289 292 293
306 306 307 308 308 308 316 312 309 308 304 305 305 300 302 300 300 302 300 300 301 301 297 297 296 297 298 296 302 300 300 293 293 290 294 294 292 294 294 294 295 294 294 293
305 306 307 308 308 311 317 312 310 313 297 301 305 303 302 302 304 303 305 304 302 299 301 304 305 305 304 302 300 297 297 295 291 288 291 291 287 292 293 294 296 295 291 296
307 307 308 307 307 311 318 314 313 312 302 303 303 302 303 303 303 302 303 305 303 303 308 307 306 302 301 302 300 301 293 294 290 287 288 283 292 298 297 295 296 297 297 297
309 308 308 307 307 309 317 313 313 309 291 304 301 303 303 304 305 303 303 305 305 310 306 301 294 293 291 292 296 297 299 295 288 285 285 290 292 295 294 292 293 298 297 299
308 307 307 307 307 308 318 313 312 311 295 303 304 303 305 303 303 303 303 306 308 307 303 297 288 290 290 290 292 295 295 295 294 287 283 282 292 296 298 298 289 299 299 298
308 308 307 307 307 308 319 316 314 313 309 305 306 305 304 306 304 304 304 304 302 306 296 290 292 292 293 289 287 287 288 287 286 287 285 289 297 297 298 287 291 300 296 296
307 307 307 307 307 307 317 316 315 314 307 306 307 306 305 304 307 304 304 304 303 300 292 289 292 289 294 292 293 291 290 290 287 287 283 282 297 297 291 298 299 297 297 298
307 307 307 307 307 307 311 317 314 314 313 309 312 313 311 311 310 307 306 304 304 306 298 293 291 287 287 292 289 296 290 294 292 291 293 300 302 299 301 299 297 299 297 298
306 306 307 307 307 307 311 317 315 315 308 309 311 309 312 315 313 316 308 306 306 305 306 302 294 288 297 287 291 294 297 299 294 294 297 299 302 303 303 301 298 297 297 297
305 306 306 306 307 307 309 316 312 313 304 290 305 307 308 312 315 315 314 310 307 307 308 292 289 291 301 292 298 296 299 299 295 295 299 300 300 301 300 299 297 296 297 295
303 305 305 306 307 307 315 317 315 315 313 298 304 306 307 309 313 313 313 311 309 304 296 289 292 300 298 296 294 295 301 298 293 291 298 299 297 298 300 298 296 295 293 292
305 305 306 307 306 307 318 312 315 315 316 305 296 306 303 306 309 311 310 311 309 308 300 294 300 304 302 288 288 297 302 303 302 298 298 298 298 297 298 295 294 294 293 293
304 305 305 306 305 317 312 309 310 308 316 300 296 298 300 301 304 304 306 307 308 305 302 297 300 302 300 289 288 298 300 299 299 299 297 294 296 295 295 293 293 294 294 294
304 304 304 305 305 306 309 312 307 310 306 302 292 291 296 300 297 294 297 296 300 301 300 294 297 297 297 289 297 297 295 295 295 296 298 297 296 294 293 294 294 292 291 291
304 304 304 305 304 300 303 303 306 310 308 296 289 289 289 299 293 293 294 297 291 296 289 291 294 290 288 294 295 292 293 294 293 295 295 294 292 292 292 291 290 289 289 290
304 304 300 290 296 303 304 302 300 296 294 295 290 299 294 299 291 289 291 292 289 287 288 291 286 287 291 291 294 294 294 295 294 291 289 290 289 288 288 289 289 289 289 289
299 292 289 297 302 299 295 289 289 289 286 289 288 289 289 293 291 289 289 286 287 285 288 288 287 288 291 293 294 295 295 295 293 292 290 290 289 288 288 289 289 289 288 288
298 297 299 297 294 289 288 286 285 286 286 287 287 288 290 288 293 289 286 286 286 283 289 284 283 290 291 292 292 293 293 292 289 289 289 289 289 290 289 289 288 288 288 286
299 293 287 288 286 285 285 283 285 285 288 288 287 286 289 288 289 285 287 284 284 288 282 283 288 290 292 292 293 292 292 290 288 289 290 290 290 290 288 287 287 286 287 287
290 287 284 286 284 286 287 288 288 288 289 289 288 286 288 285 284 285 283 282 284 280 278 281 287 289 289 289 290 289 288 288 287 288 289 289 287 287 287 285 285 284 284 286
287 289 283 284 285 287 287 288 289 288 290 289 287 286 289 284 282 283 281 279 278 281 282 286 289 288 288 288 287 288 288 287 286 288 288 286 286 286 286 287 287 287 285 284
286 285 283 284 285 284 285 286 286 288 287 287 289 285 284 282 283 280 280 279 278 282 287 289 288 287 288 288 289 288 288 287 287 287 287 287 286 285 287 287 286 285 285 284
285 283 285 285 286 287 287 288 287 289 287 285 285 282 281 281 280 279 281 280 284 287 287 288 287 287 288 289 288 287 286 286 287 287 288 287 288 287 285 285 287 287 288 285

GFSNW_sfc_thetae_009.txt.gz
Theta_e
310 308 308 310 310 310 313 321 308 326 329 309 313 306 305 303 306 309 306 307 304 303 302 301 300 299 303 306 305 300 302 299 294 295 302 304 302 299 298 292 288 292 290 290
308 308 307 308 309 310 326 314 314 325 325 307 310 307 305 306 305 305 305 304 306 307 303 299 302 302 306 306 305 302 303 299 292 294 299 302 298 299 298 296 295 290 289 291
307 308 308 309 309 310 323 316 310 314 317 315 308 305 304 303 307 306 307 306 307 305 302 305 301 302 304 306 306 300 303 299 293 290 293 296 293 295 297 296 291 291 292 294
307 308 308 309 309 309 323 319 312 313 307 309 309 309 306 303 301 306 308 304 305 303 299 301 300 302 303 303 300 304 303 294 296 297 297 296 295 295 295 294 294 291 294 294
307 307 308 308 309 309 323 313 312 314 312 311 309 303 305 303 303 305 303 303 305 304 300 299 298 300 299 299 303 302 302 295 296 292 296 295 293 295 296 296 296 296 296 295
307 307 309 308 308 311 321 320 320 316 303 309 307 306 305 304 307 306 307 306 304 301 303 307 308 308 306 304 302 299 299 297 293 289 295 293 289 295 295 295 297 297 292 297
308 309 308 307 308 310 325 321 320 315 306 308 306 306 306 306 306 304 307 307 305 307 312 311 309 306 305 305 303 305 299 296 293 289 289 284 296 300 299 296 298 299 299 299
310 309 308 307 308 309 323 320 319 313 297 308 306 307 307 307 308 306 307 307 310 314 309 303 295 294 291 295 300 300 303 299 291 287 287 292 295 297 296 294 294 300 299 301
309 308 308 307 307 309 322 319 320 318 300 307 309 308 309 306 306 306 306 310 313 312 307 299 290 291 292 293 295 299 299 300 295 290 284 283 294 299 301 300 290 301 301 300
309 308 308 308 307 308 322 321 322 319 313 311 311 308 308 310 309 306 307 307 306 311 299 293 293 294 296 291 289 287 290 290 289 288 286 291 298 299 302 288 292 302 301 299
308 308 308 307 307 308 318 321 322 320 312 310 311 311 310 310 310 306 309 306 307 306 292 293 296 291 297 295 296 293 291 290 286 289 285 283 300 299 293 300 303 302 299 299
307 308 308 308 307 307 310 321 320 321 318 313 317 316 316 316 315 311 311 307 307 308 303 298 297 289 291 294 291 299 292 296 294 294 294 302 303 302 305 304 301 300 298 298
307 307 309 308 308 308 311 323 322 322 316 314 313 311 316 317 318 321 310 312 310 310 314 306 298 288 299 288 294 299 299 302 298 296 299 300 301 304 304 303 301 299 298 300
306 307 307 308 307 308 309 321 320 320 311 294 310 312 313 316 319 318 318 314 315 314 312 296 292 292 304 296 300 299 301 301 298 298 301 301 303 302 302 301 301 300 300 298
305 305 305 306 308 308 319 322 320 320 316 302 308 311 311 314 316 315 315 314 312 310 300 291 294 305 304 302 298 298 302 300 297 295 301 300 300 302 302 301 299 298 296 295
304 306 306 307 307 308 321 314 321 320 320 310 299 311 308 311 313 314 313 313 312 311 305 296 305 308 304 289 292 300 303 304 305 302 304 302 301 300 301 299 297 297 295 296
305 305 305 306 306 318 314 311 313 309 322 307 298 303 305 306 311 312 311 312 311 309 305 301 302 305 304 294 292 299 302 304 303 303 301 295 297 297 298 297 296 296 296 295
304 304 305 305 305 307 312 317 310 313 315 310 296 295 300 305 302 300 305 303 304 305 305 299 299 303 300 292 299 302 303 301 299 298 299 298 299 298 296 296 295 292 291 292
304 304 304 308 307 306 312 304 309 318 313 302 290 290 290 304 298 298 298 300 292 301 293 295 298 294 291 297 299 300 299 298 295 298 298 298 295 294 293 292 291 290 290 290
303 304 301 292 298 304 305 311 306 301 303 304 292 302 293 301 294 291 292 294 291 288 291 292 286 288 297 300 300 300 299 300 300 295 293 293 291 290 290 290 291 291 290 290
299 293 289 298 302 301 297 291 291 293 289 293 296 297 294 300 292 290 292 288 288 286 289 288 289 289 295 299 297 298 299 299 298 296 294 291 290 290 290 290 291 290 290 289
298 298 300 298 294 290 291 287 286 287 289 289 288 291 296 292 296 288 286 286 286 285 293 287 284 293 296 296 297 297 298 296 293 292 290 291 291 291 291 291 290 290 290 288
298 291 287 287 285 284 284 283 285 285 286 287 287 286 288 288 290 286 287 285 286 291 284 284 291 295 295 297 296 295 295 293 290 290 291 291 291 291 290 289 290 288 289 290
288 285 284 285 285 286 287 288 287 288 289 288 287 286 286 287 286 287 285 285 288 282 281 284 293 293 295 296 296 294 292 289 288 289 290 290 290 290 290 287 287 286 287 288
288 288 284 284 286 287 286 287 288 289 291 290 291 290 292 287 285 287 284 281 281 283 285 290 293 294 294 292 291 290 289 288 288 290 289 288 288 288 289 290 290 289 287 286
289 287 285 286 286 285 285 286 286 290 290 292 292 287 286 284 286 282 282 282 281 286 290 293 292 290 290 290 291 290 290 289 289 289 289 289 288 287 289 290 288 287 286 285
287 285 289 287 288 287 286 289 289 292 289 286 288 283 283 284 283 282 286 284 288 290 291 291 290 289 290 291 291 289 289 289 289 289 289 289 290 289 288 286 290 290 289 287

GFSNW_sfc_thetae_012.txt.gz
Theta_e
308 307 308 309 310 311 315 325 306 328 333 308 309 307 306 303 306 309 307 307 304 302 302 301 301 300 303 306 305 300 301 299 296 296 301 303 301 298 298 293 289 294 291 289
307 307 309 309 309 310 324 313 314 327 327 306 312 308 306 307 305 305 305 304 306 307 304 299 302 303 306 307 305 301 302 299 293 293 299 301 297 299 298 297 295 289 287 289
307 307 308 309 309 311 320 317 309 312 314 316 309 306 304 303 309 307 308 306 307 305 303 305 301 302 305 306 304 302 304 298 294 290 292 296 293 295 297 295 291 291 291 293
307 307 308 309 309 310 319 318 311 310 305 308 309 308 306 303 302 307 308 305 305 304 300 301 301 303 302 303 301 303 303 295 297 296 296 296 295 294 295 293 294 289 292 293
306 307 309 309 309 308 320 314 312 314 311 311 308 304 305 304 304 305 303 303 305 305 302 301 299 301 300 300 303 302 303 297 296 293 296 295 292 294 294 295 295 295 295 294
307 310 309 308 308 312 321 321 322 316 305 309 308 307 306 305 307 307 308 307 305 302 304 307 307 307 306 304 302 301 300 299 294 290 293 293 290 295 295 296 297 296 292 297
311 310 308 308 308 310 326 324 321 316 308 310 306 307 307 306 307 304 307 308 305 308 311 310 308 307 305 305 304 305 298 296 293 288 289 284 295 300 299 296 297 298 298 300
310 309 308 308 308 309 325 323 322 314 295 310 307 307 306 308 308 307 307 308 310 313 309 303 294 295 292 296 301 300 303 298 288 287 286 291 294 297 295 294 293 299 299 300
309 309 308 308 308 309 324 321 324 321 303 309 310 307 309 306 307 306 306 312 315 312 308 298 290 291 294 292 294 300 300 301 296 287 284 282 295 299 301 300 289 302 301 299
309 309 308 308 308 308 320 322 326 322 315 313 313 309 309 311 309 306 307 307 308 312 299 290 293 295 297 291 289 288 289 291 288 288 285 290 298 300 302 288 291 302 301 299
310 308 308 308 307 308 316 322 324 322 314 312 314 314 313 311 311 307 309 306 308 307 292 293 297 292 297 296 296 291 288 288 286 289 285 283 301 299 293 300 304 302 301 299
309 310 308 308 308 307 310 321 322 324 319 314 319 317 318 315 314 314 313 307 308 308 302 300 300 289 291 293 292 299 293 297 295 294 293 302 305 301 304 304 301 300 300 299
308 309 309 308 308 308 311 322 323 324 319 314 313 311 316 319 319 323 311 316 312 311 315 303 296 287 298 288 294 298 299 302 299 298 299 300 302 304 305 304 302 301 300 300
307 308 309 308 308 308 309 321 322 321 311 292 311 316 314 317 319 318 320 317 318 317 310 295 291 289 304 297 298 299 300 301 299 298 301 302 303 303 302 301 302 301 301 299
304 305 305 306 309 308 317 323 321 321 317 300 310 312 314 315 317 316 316 317 314 311 298 290 292 305 305 302 300 298 301 298 296 295 302 302 301 302 302 300 300 300 296 295
304 305 306 307 307 307 321 313 321 320 322 309 297 312 309 312 314 314 313 314 314 311 304 296 304 309 305 291 292 300 302 303 304 301 305 304 303 301 301 300 299 297 296 295
304 305 305 305 306 318 313 309 311 308 320 306 297 302 307 308 312 312 312 313 312 310 309 302 302 305 304 291 290 299 302 303 304 305 303 298 299 297 299 298 297 296 295 293
304 305 305 305 304 307 312 315 311 311 316 311 297 296 301 307 305 301 306 302 305 306 304 300 300 304 297 291 299 301 302 303 302 301 301 300 300 299 298 297 295 291 291 291
304 305 305 311 311 310 314 305 307 320 313 303 290 290 289 305 297 297 299 301 291 302 291 295 298 294 290 297 299 300 302 300 298 299 299 299 298 296 294 292 291 290 290 290
304 305 301 293 298 304 305 311 309 306 309 305 292 302 294 301 294 291 293 292 291 288 292 294 287 290 298 301 302 303 301 301 300 297 295 295 293 291 290 290 291 290 289 289
300 293 290 298 302 304 300 295 295 296 290 296 296 299 294 301 292 289 293 288 289 286 289 289 287 287 294 300 301 300 301 301 300 299 298 294 292 290 290 291 291 289 289 288
298 298 299 298 294 289 290 287 288 288 291 291 288 291 297 294 300 293 288 287 286 285 292 286 285 293 298 299 297 298 299 299 296 294 292 291 291 291 291 291 290 289 288 285
297 291 288 289 285 284 284 283 285 286 286 287 287 286 289 289 291 286 286 284 285 289 286 284 289 295 296 297 297 297 295 292 292 291 291 291 290 290 289 287 288 286 287 288
288 285 284 285 284 285 285 285 285 286 287 287 287 286 287 286 285 285 284 286 288 283 282 283 292 294 295 297 297 295 291 285 287 289 290 288 289 288 287 286 285 284 285 287
288 287 284 285 286 286 286 285 287 287 289 287 286 286 288 285 284 285 285 282 281 283 284 288 292 293 293 292 293 289 287 285 287 290 288 285 285 286 287 288 288 288 285 285
290 288 285 286 286 285 285 285 285 290 288 290 290 285 285 284 285 283 283 282 281 286 290 293 291 290 290 290 290 290 290 289 289 289 288 287 285 284 288 289 287 286 285 285
285 286 289 287 287 286 286 288 288 292 288 285 287 284 281 285 283 282 285 284 287 291 291 290 290 289 290 290 290 287 288 289 289 289 288 288 288 287 287 286 288 288 288 285

GFSNW_sfc_thetae_015.txt.gz
Theta_e
307 307 308 309 310 311 313 313 299 321 323 300 302 298 305 301 304 307 306 305 302 300 300 299 299 298 300 303 303 297 297 294 284 293 298 300 297 295 295 282 284 283 281 283
307 307 309 309 309 310 316 307 308 320 320 292 293 304 305 306 303 303 304 303 304 304 300 295 300 300 304 305 301 297 298 291 283 289 295 298 293 296 296 294 286 283 276 281
306 307 308 309 309 310 314 311 297 306 308 308 304 304 301 302 306 305 306 304 304 302 300 302 298 299 304 304 301 301 301 295 288 283 288 291 289 292 293 292 281 283 284 289
306 307 309 309 309 310 315 311 303 303 293 299 303 304 303 301 300 305 306 302 303 300 294 298 297 300 300 302 300 301 298 290 292 293 293 293 292 291 291 289 289 283 286 290
306 309 309 308 308 308 313 310 308 305 302 301 302 300 301 301 302 303 301 300 302 302 297 298 295 299 298 297 299 298 299 287 287 286 294 292 289 292 292 291 292 291 291 290
307 310 308 308 308 310 313 314 313 310 302 300 298 299 302 303 304 304 306 303 300 296 300 302 302 302 301 301 298 296 295 287 283 282 289 287 281 289 292 293 294 292 285 292
310 309 308 307 308 309 319 316 315 302 293 300 302 305 305 304 304 301 305 305 298 304 305 302 300 298 298 301 300 302 290 287 284 278 280 273 291 297 296 293 294 295 296 296
309 309 308 307 308 309 317 316 315 301 289 303 304 303 304 304 305 303 303 305 305 307 304 290 286 285 284 290 298 298 299 287 279 279 278 284 292 295 292 290 289 298 296 296
308 308 308 307 307 309 317 314 316 309 295 297 309 302 303 298 298 299 302 308 309 308 291 285 281 280 286 286 292 296 297 290 282 278 273 271 287 296 299 297 282 298 297 295
308 308 308 307 307 308 316 315 317 315 300 306 307 302 300 305 302 297 301 302 299 304 288 286 283 283 293 285 283 280 281 282 277 283 272 281 294 298 299 282 284 297 297 295
309 308 307 307 307 307 314 314 316 315 302 305 310 311 306 305 304 293 300 296 296 289 287 283 284 282 285 286 291 286 282 279 281 284 280 276 298 296 287 292 298 298 296 295
310 308 307 308 307 308 310 313 317 318 311 307 313 311 311 309 309 305 303 298 302 299 290 287 288 286 288 285 281 294 285 288 285 286 284 294 298 296 299 299 297 296 296 298
308 309 307 307 308 308 309 314 315 316 304 305 306 306 312 315 313 314 301 301 307 304 305 294 293 283 290 281 285 286 294 298 287 289 295 297 297 301 301 300 298 298 300 300
307 309 305 305 307 308 309 314 315 311 302 289 301 311 309 313 314 314 313 310 310 308 299 291 289 284 296 286 289 287 292 296 293 289 296 297 299 299 298 298 300 300 299 300
304 304 305 305 305 307 312 315 314 314 308 292 294 308 310 312 312 311 312 310 307 299 292 288 287 287 290 287 287 286 297 293 288 286 296 296 296 298 300 300 299 300 299 294
304 305 306 306 305 306 313 307 313 310 314 298 289 305 305 308 309 308 307 308 306 303 293 288 295 303 293 286 284 296 300 301 300 295 301 300 299 299 301 299 299 299 294 293
304 305 306 306 306 310 306 303 306 305 310 294 290 294 301 303 306 304 305 307 303 302 295 292 289 293 297 287 287 296 300 300 300 301 298 295 297 296 299 297 296 295 293 290
303 304 305 306 305 305 307 309 308 306 307 299 290 291 291 303 292 292 299 293 297 300 296 294 289 292 288 286 295 299 301 301 299 298 299 298 298 298 297 296 291 288 287 287
304 305 306 309 306 300 306 305 305 312 305 292 287 287 286 299 293 292 291 295 288 295 288 290 293 288 288 293 296 298 298 297 296 297 298 298 297 297 292 289 288 287 286 286
304 306 302 293 297 303 304 306 297 294 294 296 289 294 289 295 289 288 288 287 287 286 288 292 286 287 293 296 298 298 298 298 299 295 294 296 291 288 287 287 288 287 286 286
300 293 290 297 302 302 296 290 291 291 288 292 292 291 290 294 287 287 288 286 286 284 284 286 284 285 290 295 296 298 300 300 299 296 293 291 289 287 287 287 286 285 284 284
298 297 299 297 293 289 289 287 287 287 287 288 288 289 292 290 295 287 286 286 285 282 288 285 282 285 293 294 295 296 297 294 292 292 290 290 290 289 286 285 284 285 284 280
296 292 287 290 285 284 284 283 284 285 285 287 286 286 286 288 289 285 285 284 283 286 284 281 282 292 294 294 289 289 289 288 289 289 289 288 288 287 284 283 284 280 284 284
288 286 283 284 283 284 283 284 284 285 285 285 286 285 285 285 285 285 283 284 284 281 278 276 286 291 293 293 290 288 286 284 285 285 286 284 284 283 282 280 280 277 281 283
286 286 282 283 284 285 285 285 285 286 288 286 285 285 286 284 283 284 282 280 279 281 281 283 286 288 289 287 287 285 283 282 283 285 284 281 280 281 283 283 283 283 279 282
287 285 283 284 285 284 285 285 285 288 286 287 286 284 284 282 283 281 281 280 279 282 284 286 286 286 286 286 286 286 286 285 285 285 285 284 281 279 284 283 282 281 282 281
285 284 286 286 285 285 285 286 286 290 286 284 285 282 279 282 280 280 283 281 284 284 284 284 286 286 286 286 286 284 285 286 285 285 285 284 284 281 281 282 285 284 284 281

GFSNW_sfc_thetae_018.txt.gz
Theta_e
306 306 309 309 310 310 310 307 296 315 310 294 297 295 302 301 301 305 303 302 301 298 298 297 296 296 298 302 301 293 296 291 283 291 296 297 294 293 291 281 283 281 279 282
306 306 309 309 309 310 309 303 305 316 307 288 288 300 302 303 301 301 301 301 302 302 298 294 298 298 302 301 298 295 295 289 282 287 293 295 291 294 295 290 284 282 275 280
306 306 308 309 309 310 312 307 294 302 304 301 298 299 298 299 304 303 303 301 302 300 297 300 296 297 301 300 298 299 299 292 287 283 287 289 286 290 292 289 280 282 282 286
306 307 308 308 309 309 310 308 298 299 291 294 298 301 300 299 298 302 303 300 300 298 292 296 295 298 298 299 299 298 296 288 290 290 291 291 289 289 289 288 288 283 286 288
306 309 308 308 308 310 309 306 304 300 295 299 299 298 299 299 300 300 299 297 300 299 295 296 294 296 295 294 296 296 297 285 286 286 291 291 287 290 290 289 290 289 289 289
308 309 307 307 308 309 310 310 310 303 297 295 295 297 299 301 302 302 303 301 297 294 298 299 299 299 300 299 296 295 292 285 281 280 286 286 280 288 290 290 291 290 285 290
309 308 307 307 308 311 319 315 310 300 291 296 297 303 302 301 301 299 303 302 297 302 305 299 297 295 297 299 298 298 288 285 280 276 277 272 289 294 294 291 293 294 293 293
308 307 306 306 307 308 313 313 310 299 287 299 301 301 301 302 302 301 301 303 303 303 299 287 285 284 286 289 296 297 294 283 279 274 277 281 289 293 291 289 288 295 294 294
307 306 306 306 307 309 312 311 313 302 293 294 306 300 301 296 295 296 300 306 307 301 287 283 280 279 283 285 290 294 293 286 280 280 272 270 283 294 297 295 282 296 295 294
307 307 307 307 307 308 313 310 314 309 298 303 304 299 299 302 297 295 298 299 298 297 281 283 278 283 290 283 282 280 281 278 276 271 271 280 289 295 296 282 283 296 295 294
306 306 306 306 307 307 313 310 313 309 299 302 308 308 302 303 299 292 298 295 293 288 283 280 284 278 284 284 288 285 282 279 278 278 271 275 294 294 287 290 295 296 294 294
306 306 306 306 307 307 312 308 314 314 306 304 309 309 309 308 306 302 299 295 296 294 288 286 288 280 286 283 281 292 284 286 283 285 284 292 295 295 295 298 296 295 294 296
307 305 303 304 307 308 312 310 311 309 298 301 303 304 310 312 311 310 299 297 305 301 298 291 286 281 286 282 285 286 292 295 286 288 293 294 296 297 299 298 296 297 297 297
305 304 304 304 304 307 311 309 310 305 297 288 298 310 307 312 312 312 310 307 306 301 296 288 287 282 292 283 286 285 290 294 291 287 293 295 297 297 297 297 297 298 300 299
305 305 305 306 305 305 311 310 308 310 302 291 292 305 308 310 310 310 309 307 303 296 289 286 286 285 288 286 285 285 295 292 287 287 293 294 295 296 298 297 298 299 299 293
305 306 306 306 306 307 311 303 309 307 308 294 287 300 301 304 308 307 307 305 303 298 292 288 291 299 289 286 287 293 298 300 298 295 299 299 298 298 299 299 300 300 294 289
303 305 305 305 304 307 304 299 305 305 306 292 289 289 298 301 303 299 300 301 300 299 291 288 288 290 294 286 285 294 298 300 299 300 298 294 295 295 299 301 296 292 289 288
304 306 306 306 305 306 305 306 305 305 302 295 287 286 289 300 290 290 296 291 296 296 294 292 289 290 287 287 294 297 299 300 299 298 297 296 297 297 296 294 289 288 286 286
305 305 306 305 303 298 304 303 303 308 302 290 286 286 285 296 292 290 288 293 286 292 289 289 292 287 288 292 294 296 298 296 296 296 297 298 297 296 290 289 288 286 285 285
304 303 298 295 297 303 304 301 295 294 294 293 287 291 288 294 287 287 287 286 287 286 287 292 286 287 293 293 296 297 297 297 297 295 294 295 289 288 288 287 287 287 285 285
300 294 290 297 302 299 294 290 290 290 288 291 291 290 288 291 287 287 286 286 285 284 282 285 280 284 288 293 294 296 297 297 295 296 295 291 289 288 287 286 285 285 284 284
298 297 299 297 293 289 289 287 287 287 287 287 287 288 292 289 292 287 286 285 285 281 287 285 282 286 291 290 290 290 291 291 290 291 290 289 288 287 285 283 283 283 283 278
297 292 288 290 286 285 286 286 285 285 285 286 286 286 286 288 289 286 285 284 283 286 284 282 284 292 290 288 288 288 289 288 288 288 289 288 287 286 284 282 283 279 282 283
288 286 283 285 282 283 283 284 285 285 285 285 285 285 285 285 285 285 283 284 284 281 278 276 285 290 291 289 288 287 286 283 285 285 285 285 284 283 281 280 279 276 280 282
286 284 281 280 283 285 285 285 285 285 287 286 285 285 286 284 283 283 282 280 279 280 280 283 285 288 288 285 286 284 283 283 284 284 283 281 280 280 282 282 281 282 278 277
286 285 283 284 284 284 285 285 285 287 286 286 286 284 283 281 282 280 280 279 278 281 284 284 285 286 286 286 287 286 286 285 285 285 285 284 279 277 282 282 281 278 277 279
284 283 286 285 284 284 285 285 285 289 286 283 284 276 277 282 280 279 283 280 283 285 285 285 285 285 285 285 286 284 285 285 285 285 284 283 283 279 279 280 284 283 283 280

GFSNW_sfc_thetae_021.txt.gz
Theta_e
306 306 309 309 310 310 310 303 292 311 304 293 294 294 300 301 299 303 302 301 299 295 296 295 294 294 296 300 299 292 294 289 283 289 295 296 293 291 289 280 282 280 278 281
306 306 309 309 310 310 308 300 304 313 302 286 287 296 301 300 299 299 299 298 300 300 296 292 296 296 300 298 297 294 293 288 281 286 291 293 290 292 291 287 283 281 275 280
306 305 308 309 309 310 310 301 294 300 302 296 294 296 296 297 302 301 301 299 301 298 296 298 294 295 299 297 296 299 297 290 285 282 285 288 285 288 290 288 280 281 281 283
306 306 309 309 309 309 310 304 295 297 291 295 298 299 298 296 296 300 301 298 298 296 291 293 293 296 296 296 298 297 294 286 288 288 289 289 287 287 288 287 286 282 284 286
306 308 308 308 308 309 307 304 299 298 292 296 297 297 297 297 298 299 297 296 298 297 294 295 293 294 292 290 295 294 294 284 285 285 289 289 285 287 287 287 287 288 287 287
308 308 307 308 308 309 305 306 307 300 294 294 294 295 298 299 300 300 301 299 296 292 296 298 297 297 297 297 294 292 289 284 281 278 284 284 278 285 289 289 289 289 284 289
308 307 306 307 308 310 312 311 306 298 289 291 294 300 300 299 299 298 300 299 296 299 300 297 296 294 296 298 296 295 287 282 278 275 277 271 285 291 292 290 290 292 291 292
307 306 306 306 308 310 314 310 305 297 287 296 298 300 299 300 300 299 300 301 301 301 294 286 285 283 285 288 294 293 292 282 278 274 275 281 286 291 289 288 287 293 292 292
306 306 306 306 307 310 313 310 307 301 295 296 302 299 299 294 293 295 298 304 303 297 285 282 278 278 282 284 288 293 289 284 279 277 271 270 282 291 295 292 282 294 293 292
306 306 306 306 307 311 311 310 310 305 297 301 302 297 297 299 295 293 297 298 295 295 280 277 278 282 287 282 281 279 280 276 275 269 271 279 287 294 294 282 282 294 295 294
306 306 306 306 307 309 310 309 310 306 297 301 306 306 301 300 297 291 296 294 292 285 282 279 280 276 284 283 286 285 282 281 277 278 272 276 292 292 287 290 291 296 295 294
307 302 303 304 306 308 310 308 312 310 303 303 307 307 307 306 303 300 296 296 294 293 286 281 283 278 286 281 280 289 283 285 283 284 284 291 293 292 294 295 295 295 294 295
302 303 304 304 305 309 311 309 308 305 297 300 303 303 309 311 309 308 297 294 300 297 294 289 287 279 283 281 283 284 290 292 285 286 291 292 293 295 296 296 295 295 296 296
304 304 305 304 306 309 310 308 307 301 295 288 296 308 305 310 311 310 307 305 301 298 293 286 286 281 290 282 286 285 289 292 289 286 291 293 296 296 297 297 296 297 298 298
304 305 305 305 307 308 310 307 305 307 300 290 291 303 306 306 309 308 307 305 300 294 289 286 286 284 287 286 285 285 292 291 285 286 292 293 293 296 297 296 295 297 297 294
305 305 305 304 307 310 306 299 307 306 304 294 288 298 300 303 306 305 305 304 300 296 292 287 289 294 288 286 287 293 296 297 295 293 295 295 295 295 297 297 298 298 292 289
305 304 305 304 306 306 301 295 303 304 303 292 289 287 296 299 301 297 299 299 298 297 292 287 288 290 293 287 285 293 296 297 298 298 296 292 294 294 298 299 295 291 289 288
305 306 304 304 306 306 304 304 303 303 298 293 286 285 288 298 290 290 295 291 294 294 292 291 290 289 288 286 293 295 298 298 296 297 296 296 296 297 295 290 288 287 286 286
305 305 305 304 302 299 303 303 302 304 299 289 286 284 284 294 291 290 289 292 287 292 288 288 289 287 285 291 293 294 295 295 295 295 295 295 294 289 289 289 288 286 285 285
304 302 296 288 298 303 302 299 293 292 294 291 286 290 287 294 287 287 287 286 288 286 286 292 286 287 291 292 293 295 296 296 296 292 291 289 288 288 289 289 289 287 286 285
297 296 290 297 301 297 292 289 287 291 288 291 289 289 288 292 287 286 285 285 285 284 283 286 283 284 287 290 291 291 292 292 292 293 291 291 289 287 286 285 286 285 284 284
297 296 298 294 290 287 287 286 287 287 286 287 287 288 292 289 291 288 286 284 285 281 286 285 282 284 286 287 287 289 289 289 288 289 288 288 287 287 285 284 283 283 283 279
298 293 289 291 286 286 286 284 284 285 285 286 286 286 286 288 289 286 285 284 283 285 284 282 284 288 288 288 290 290 291 289 289 289 289 288 286 285 284 283 284 281 283 283
289 287 284 285 283 283 283 284 285 285 285 285 285 285 285 285 285 285 283 284 284 281 277 275 284 287 287 286 285 285 284 283 287 286 285 284 283 283 281 281 280 279 281 282
286 284 280 280 283 284 285 285 285 285 286 286 285 285 286 284 283 283 281 280 278 279 276 283 284 285 286 285 286 286 285 284 284 283 283 280 279 280 281 282 281 281 276 276
286 285 283 284 284 284 285 285 285 287 285 286 286 284 282 281 282 278 277 277 276 279 283 284 285 286 286 286 287 288 287 285 284 284 284 283 279 278 282 281 280 276 275 276
285 283 285 285 285 284 285 285 285 288 286 283 283 274 276 281 277 278 282 279 282 284 286 285 287 286 285 285 285 283 285 285 284 283 283 283 283 278 278 280 283 283 282 277

GFSNW_sfc_thetae_027.txt.gz
Theta_e
310 310 310 308 307 309 308 300 294 311 305 296 294 293 297 301 300 303 302 300 298 296 297 295 295 295 297 299 301 297 296 293 290 291 296 298 296 293 292 287 284 284 285 287
309 309 309 307 307 311 306 298 305 313 303 290 290 296 300 302 299 300 301 300 301 301 297 294 296 297 300 299 299 297 297 292 287 289 293 295 294 294 291 289 288 285 286 287
309 309 307 306 309 311 308 303 297 302 299 297 295 296 297 298 301 301 301 300 301 299 297 298 295 296 299 299 298 298 299 291 290 287 288 291 289 292 291 291 287 286 287 289
308 307 306 308 309 310 308 301 298 301 294 294 294 297 298 297 297 301 301 299 299 297 294 295 294 297 296 297 299 298 296 291 290 289 290 290 289 290 290 289 290 288 289 288
307 306 305 308 308 310 307 299 296 295 294 298 296 296 296 296 298 299 298 298 299 300 295 296 294 296 294 292 297 296 294 289 289 288 289 289 288 289 289 290 290 290 289 289
306 306 305 308 309 310 305 306 303 299 292 295 292 294 297 297 300 300 300 300 297 296 299 300 298 298 297 297 296 293 291 289 286 283 285 285 283 288 290 290 291 292 288 294
305 306 307 307 309 308 308 307 302 295 288 293 293 297 300 298 300 299 300 300 298 299 302 300 299 297 297 297 294 294 288 286 282 283 281 280 289 293 292 291 292 292 292 294
306 307 307 307 309 309 311 309 304 296 286 292 295 298 298 299 300 299 300 301 300 301 297 292 290 288 289 290 292 290 291 286 281 283 281 284 288 288 290 290 291 295 293 294
307 306 306 307 308 309 311 310 306 300 292 292 299 298 299 295 295 296 298 302 301 296 288 287 285 285 288 286 290 292 289 287 287 280 281 279 288 290 296 295 288 295 296 295
305 305 306 307 308 309 312 310 308 305 298 302 301 298 297 298 297 295 297 298 298 297 287 285 285 286 287 285 283 283 286 284 284 277 283 284 290 293 296 287 289 294 297 297
305 305 306 306 308 308 313 308 310 306 299 303 306 305 299 299 299 295 298 297 296 290 288 288 286 286 287 287 288 287 287 284 283 279 280 282 292 295 292 296 296 296 297 297
304 305 306 306 308 308 311 309 311 308 304 304 307 308 308 308 304 300 297 299 296 296 290 286 285 285 285 285 286 290 286 290 289 287 289 294 294 297 298 297 296 297 298 299
304 305 307 308 308 309 310 311 307 304 300 302 304 304 308 309 308 308 299 296 300 296 296 290 288 287 288 286 286 289 291 291 289 290 293 292 294 296 296 298 298 299 300 300
304 305 306 307 308 309 310 308 306 301 297 290 299 306 304 308 310 310 306 301 298 296 295 288 287 288 290 286 289 289 292 292 290 289 293 293 295 296 299 299 298 299 300 300
306 306 306 307 308 309 310 307 306 304 300 291 294 302 303 305 307 304 304 302 300 296 291 287 289 288 289 288 288 288 293 292 290 290 295 296 296 297 299 299 299 300 299 295
304 306 308 308 307 306 305 301 305 304 302 297 290 298 298 301 303 302 302 302 299 298 294 289 291 293 291 287 287 293 295 296 295 295 297 297 298 298 300 299 299 298 295 293
304 306 307 307 306 307 298 296 302 302 301 294 289 290 295 297 299 298 299 301 298 298 293 289 290 292 292 287 287 293 295 297 298 299 298 297 297 296 296 292 290 290 290 291
304 305 305 305 305 304 304 303 302 302 296 293 287 286 290 297 293 291 296 293 296 295 293 291 290 291 290 288 291 291 293 294 297 296 298 296 291 290 289 291 291 289 288 288
303 304 304 305 302 300 302 303 302 302 298 288 284 286 286 297 291 290 292 293 290 292 288 290 294 287 286 284 286 287 288 290 292 290 289 290 289 290 290 289 287 285 285 285
303 303 298 292 299 302 302 299 294 293 291 293 286 290 287 294 288 287 289 289 288 289 288 292 287 286 285 287 288 288 289 289 292 290 287 287 286 286 287 287 288 287 287 287
299 295 293 299 300 298 291 288 288 289 286 290 289 290 289 293 290 287 287 286 286 286 287 288 285 283 284 288 288 288 289 289 289 289 288 288 288 287 286 287 287 288 287 286
299 298 298 296 293 289 288 286 286 286 286 287 288 288 292 289 291 289 287 285 286 284 288 286 282 283 288 289 289 289 290 289 289 289 288 289 289 289 289 287 285 285 284 283
296 292 288 290 286 282 281 283 285 285 286 287 286 286 287 289 289 286 287 285 284 287 284 283 283 286 287 288 288 288 289 288 288 288 288 287 286 286 285 284 285 284 284 285
288 287 285 282 285 284 284 285 286 285 285 286 286 286 287 286 286 285 285 284 285 282 280 278 283 285 285 285 286 288 286 283 284 284 285 283 283 283 282 280 280 279 283 283
286 286 280 281 283 284 284 285 285 285 286 286 286 286 287 285 284 284 283 280 277 278 277 282 284 284 285 286 286 287 287 283 284 285 284 280 280 281 282 283 283 283 280 280
286 285 282 284 284 284 285 285 285 287 286 286 286 284 283 282 283 280 279 278 275 279 283 285 286 285 286 286 287 287 288 286 285 285 284 283 281 280 282 282 282 280 280 279
284 283 285 285 285 284 285 285 285 288 286 284 284 280 280 283 280 280 282 280 282 285 285 286 286 286 287 287 287 285 285 284 284 284 284 283 282 281 281 280 281 280 281 279

GFSNW_sfc_thetae_030.txt.gz
Theta_e
308 311 311 310 309 310 310 312 303 321 321 307 306 301 302 304 305 307 305 305 302 300 301 300 298 299 301 305 305 301 302 301 296 297 300 302 301 299 298 292 289 293 292 291
306 310 310 309 308 310 312 306 311 318 313 300 301 303 303 307 303 305 305 303 304 305 303 298 301 302 302 303 304 303 303 299 293 293 297 300 298 300 298 297 296 291 290 292
307 309 309 308 309 310 316 309 304 311 309 307 304 301 301 302 306 305 306 305 306 305 302 303 301 301 301 302 303 298 302 300 297 293 294 298 295 297 298 297 291 291 292 293
305 308 308 308 309 310 315 311 306 310 300 301 304 304 302 301 301 305 307 304 305 304 300 300 300 302 299 301 300 303 303 297 297 295 295 295 295 296 297 295 296 292 293 294
305 308 307 307 308 310 314 307 306 306 305 304 302 300 301 301 302 304 303 304 305 306 302 302 301 302 301 300 302 302 301 296 295 293 294 294 293 296 296 297 297 296 296 295
306 308 307 307 307 310 314 316 310 309 299 302 301 301 302 302 307 304 305 307 305 303 304 306 307 305 304 303 302 301 299 297 293 289 291 291 289 294 296 296 298 297 294 299
308 307 306 307 308 309 318 319 313 308 300 301 299 302 304 304 307 305 304 307 306 304 309 308 307 305 303 303 301 301 297 295 292 291 287 285 294 297 297 297 298 300 299 300
307 305 306 307 307 309 321 320 314 309 295 302 301 303 305 306 306 305 305 305 306 309 306 302 297 298 297 297 298 297 298 295 289 290 288 291 293 293 293 294 294 300 299 300
305 305 306 307 308 309 321 321 319 314 304 301 304 304 307 305 305 304 302 305 308 304 303 300 294 292 294 292 295 297 295 296 296 288 289 287 293 296 299 299 291 299 300 301
305 306 306 307 307 309 321 320 318 316 310 307 309 304 305 309 307 305 302 302 303 304 301 297 297 295 294 291 290 289 292 292 291 289 290 292 296 296 300 289 292 302 302 303
306 306 306 306 307 309 321 317 320 319 311 309 311 309 308 307 310 305 304 304 303 302 300 299 297 296 295 293 294 293 293 292 290 289 288 287 298 299 294 300 303 302 303 305
305 305 306 306 307 309 314 317 318 320 315 311 315 313 314 312 312 310 307 308 305 307 303 300 298 292 290 294 293 296 292 297 296 295 296 299 301 303 304 304 303 303 304 305
304 304 306 307 308 309 314 318 317 318 313 311 313 310 314 316 315 316 308 308 309 306 307 304 302 291 299 291 295 296 297 298 296 294 298 299 301 303 303 303 303 305 305 305
304 305 305 306 308 309 313 317 314 317 312 296 307 312 310 313 316 315 313 311 308 306 308 304 296 297 299 298 298 298 299 298 296 296 299 300 301 302 303 304 306 306 306 305
305 306 306 307 308 309 314 315 313 314 311 301 306 309 309 312 312 311 311 310 309 308 303 297 300 299 299 297 297 297 299 297 296 296 299 299 301 304 304 304 304 305 305 303
306 307 307 307 308 307 318 311 314 312 313 310 300 307 306 309 311 310 309 309 309 309 307 298 300 298 301 292 296 298 300 301 302 300 303 303 304 304 304 302 300 300 299 298
305 306 306 305 308 316 309 306 309 305 311 308 296 301 304 305 308 305 308 309 308 309 301 294 297 300 302 293 297 295 297 298 301 302 303 301 298 296 297 297 297 296 294 292
306 306 305 306 305 307 310 310 304 305 308 309 296 295 302 305 300 298 301 300 307 300 296 296 295 296 297 293 291 294 295 298 299 296 299 297 296 295 293 293 292 289 288 287
304 305 305 313 310 311 311 302 303 312 310 301 291 295 292 301 295 296 298 302 293 298 294 295 298 291 289 286 288 290 291 292 293 295 296 293 291 290 290 289 288 288 287 289
304 311 309 303 306 302 305 308 307 305 303 300 289 296 292 299 295 292 295 296 292 292 294 295 292 285 288 289 289 290 291 294 294 290 287 287 286 287 287 288 289 290 291 291
309 304 300 308 302 308 302 296 296 298 292 294 293 296 294 297 294 292 293 290 291 289 292 292 288 283 285 289 288 290 291 292 292 291 289 290 290 289 287 290 291 291 290 288
304 305 304 305 301 299 291 288 291 292 290 291 292 292 295 293 298 293 291 288 289 287 294 289 284 284 288 288 289 290 292 292 292 293 292 292 292 292 291 289 287 287 287 286
306 302 294 298 291 288 289 285 288 288 288 289 289 288 293 294 297 290 291 288 287 292 287 285 284 287 288 288 289 290 291 292 291 290 290 289 288 288 288 287 288 287 288 288
293 291 287 288 287 287 287 289 288 286 287 288 290 289 292 290 289 287 287 285 287 285 283 283 285 286 286 288 289 290 289 286 288 288 288 287 287 286 286 285 285 286 286 286
289 291 283 284 285 285 285 286 287 287 288 289 290 290 292 287 286 287 286 284 283 285 285 285 286 287 288 288 289 289 288 286 288 289 286 285 285 286 286 286 286 284 283 282
288 287 284 285 285 285 285 285 285 288 287 288 290 287 287 285 287 285 284 284 282 283 286 286 288 287 287 288 288 289 290 289 288 288 287 286 285 285 286 285 283 282 282 281
285 285 286 285 285 285 285 285 285 288 287 285 289 286 283 286 284 283 287 285 287 287 287 287 288 287 287 289 289 288 287 288 288 287 286 285 284 283 282 280 280 281 281 280

GFSNW_sfc_thetae_033.txt.gz
Theta_e
307 309 310 311 310 310 309 314 303 322 328 303 308 303 305 304 306 310 306 305 303 301 302 300 300 300 303 308 308 303 306 301 297 299 304 305 304 301 301 294 291 294 294 292
306 308 307 310 310 310 312 309 310 324 321 301 305 307 305 306 305 306 305 303 305 305 302 298 301 302 306 307 307 304 306 299 294 296 300 303 299 301 301 299 298 293 291 293
306 307 307 309 310 310 316 310 304 311 314 311 307 304 303 302 308 307 307 304 308 305 302 305 301 302 304 306 307 301 304 301 298 293 296 300 298 299 300 299 293 293 294 296
306 307 306 308 309 310 313 312 306 310 303 307 308 307 304 302 302 308 309 306 306 304 301 302 302 305 303 305 301 304 306 298 300 300 299 299 298 298 299 297 297 294 296 296
305 305 306 307 309 310 310 307 307 311 308 309 306 302 303 301 305 306 305 304 305 306 303 304 302 305 304 303 306 306 306 298 299 297 300 298 296 299 298 298 298 298 298 297
305 305 305 306 309 310 310 317 316 312 306 309 304 305 303 303 308 308 309 307 306 305 307 311 311 311 309 308 306 305 303 300 296 291 295 295 291 296 298 299 300 299 296 300
304 302 303 306 308 310 316 317 316 309 304 307 303 304 305 305 308 306 308 311 308 310 314 313 311 309 307 306 305 308 302 300 297 292 289 284 295 300 299 298 300 301 301 301
303 302 302 306 307 308 318 323 316 310 301 306 304 304 304 307 310 309 309 309 312 315 311 304 299 300 299 299 301 301 303 299 293 291 289 293 295 297 296 295 295 301 299 301
304 304 305 306 307 308 315 323 325 317 311 305 306 304 306 305 307 307 305 311 314 311 309 304 295 293 296 295 298 300 299 301 296 291 288 285 296 299 301 301 292 301 301 301
304 305 306 306 306 308 314 324 326 316 308 309 309 304 305 310 309 307 306 307 306 309 306 298 299 297 299 294 293 290 295 295 293 292 291 294 300 300 302 291 295 303 303 303
305 305 305 306 306 308 311 324 326 320 313 312 314 312 308 311 310 307 309 306 307 306 301 303 301 299 299 297 298 296 294 294 291 295 289 287 301 301 295 302 304 304 305 305
305 305 305 305 306 308 310 321 325 328 317 314 320 318 318 316 317 314 311 309 309 309 306 306 306 296 295 300 294 300 295 300 299 298 298 302 303 302 305 305 304 305 305 306
305 305 305 306 307 308 312 323 326 323 317 314 314 313 317 320 320 322 311 315 314 312 316 310 308 295 305 293 299 300 301 302 299 297 300 301 302 304 305 306 306 307 307 307
305 305 305 306 307 308 312 321 325 323 317 301 310 317 313 318 320 319 319 317 316 315 315 311 299 298 306 303 302 301 302 302 299 299 301 302 303 305 306 306 308 308 309 309
304 305 305 306 308 311 317 322 322 322 316 305 308 314 314 316 317 316 317 316 313 311 309 300 304 306 305 304 303 302 303 300 299 298 302 302 303 306 307 306 304 305 305 304
304 305 306 307 308 310 317 315 317 318 321 312 304 312 310 314 316 314 314 315 315 315 311 305 307 304 307 297 299 301 302 302 303 302 306 305 305 302 302 300 301 300 299 298
304 305 306 307 307 319 313 307 312 309 321 312 302 304 309 311 312 312 313 315 314 314 309 302 307 305 306 297 299 299 299 301 303 303 305 301 300 298 300 297 295 294 292 291
305 306 306 306 307 306 313 307 304 310 314 314 298 298 305 310 307 303 309 309 312 305 301 302 300 302 303 298 296 298 299 301 299 300 301 300 299 298 295 294 292 290 289 289
305 305 306 315 315 314 312 302 306 317 312 305 292 295 292 307 301 303 304 309 296 304 297 299 302 295 292 292 294 294 295 295 295 296 296 295 293 291 290 290 289 289 289 291
306 315 311 307 309 302 307 311 310 310 307 304 294 303 298 304 300 296 297 298 297 293 296 301 295 289 291 291 291 293 294 297 295 289 287 288 289 291 292 293 294 293 292 293
314 309 303 309 304 311 307 300 301 303 296 297 296 301 297 302 296 292 296 293 295 290 294 293 290 287 288 290 291 293 294 297 296 293 294 294 294 291 291 292 292 292 290 289
308 309 308 309 306 302 293 290 293 295 292 293 293 294 297 296 302 295 295 290 293 289 297 291 287 286 288 289 291 293 295 295 294 295 293 294 293 293 291 290 289 289 289 287
312 306 297 301 294 290 288 285 289 288 291 291 293 290 296 297 299 292 293 289 290 296 289 287 286 287 288 290 291 291 293 293 293 292 292 291 290 290 290 288 289 291 289 289
299 294 288 289 287 287 287 289 289 287 289 292 293 291 293 293 291 290 290 286 290 286 284 285 285 286 287 290 292 292 290 289 290 290 289 288 288 287 287 286 286 286 286 286
290 293 285 285 286 286 286 287 288 288 290 294 293 293 296 289 287 290 287 284 284 287 286 287 287 286 288 289 291 290 288 287 290 291 288 287 288 288 288 287 286 284 283 282
290 288 285 286 286 285 285 286 285 289 289 293 297 290 288 286 288 286 287 286 285 286 288 288 289 287 289 291 290 291 292 291 290 290 288 287 286 287 287 285 283 284 282 281
287 286 286 286 286 285 285 286 286 288 288 286 290 288 285 289 286 285 289 286 288 288 288 290 290 288 289 290 290 288 290 290 290 290 289 287 286 284 283 282 282 282 282 282

GFSNW_sfc_thetae_036.txt.gz
Theta_e
305 306 308 309 311 310 308 307 297 319 323 303 302 301 304 305 307 308 306 305 302 300 301 299 298 298 302 307 307 301 304 301 297 298 304 305 303 301 300 296 291 295 295 292
304 306 307 309 310 310 308 302 306 321 318 296 299 305 305 306 305 305 305 303 305 305 301 298 300 302 308 309 306 303 306 299 293 294 300 303 299 300 300 301 299 294 292 292
303 305 306 308 309 310 310 304 299 308 312 307 303 303 302 302 308 305 307 305 305 303 301 304 300 301 305 308 308 302 308 300 295 292 295 300 298 299 299 298 294 293 293 294
302 304 306 307 309 309 308 306 303 307 298 303 305 307 304 301 301 306 307 304 303 303 299 300 300 303 304 306 301 305 305 296 298 298 300 299 299 298 298 296 297 293 296 295
304 304 305 307 309 309 304 303 305 309 305 306 304 304 303 301 303 304 304 302 304 305 302 303 300 303 304 302 305 304 306 298 300 297 300 300 296 298 299 298 298 297 297 296
304 304 305 306 306 308 303 308 315 309 304 304 303 304 305 304 306 307 308 306 305 304 306 311 311 311 311 308 306 304 304 301 298 293 296 294 289 296 298 298 300 299 294 300
304 305 305 304 305 308 309 309 315 306 301 303 304 306 307 304 306 307 308 310 307 311 315 314 312 309 308 309 308 309 303 302 299 294 289 284 295 301 299 297 298 300 300 300
304 305 304 304 304 305 308 314 316 310 298 305 305 307 307 307 308 308 308 311 314 317 312 305 300 300 298 300 303 303 306 302 294 290 289 293 295 297 296 295 295 300 298 300
303 304 304 304 303 303 308 310 317 313 306 305 308 306 308 304 306 307 307 313 318 316 310 306 296 293 296 295 297 301 300 304 298 293 289 285 297 299 302 301 292 301 301 301
303 303 302 303 303 303 307 311 314 317 306 311 311 305 306 312 308 306 308 307 308 312 308 295 301 297 300 295 294 290 295 296 291 291 291 294 300 301 302 291 295 303 303 303
303 303 302 302 303 305 307 309 313 315 311 312 314 313 309 311 310 306 309 307 308 310 302 303 303 298 301 299 299 296 294 294 290 295 287 285 302 300 294 303 306 304 304 305
303 303 303 304 305 306 308 305 313 317 314 315 321 319 320 318 317 315 312 311 309 310 307 307 308 294 295 299 295 302 296 300 299 297 297 304 304 303 305 306 304 305 306 306
303 303 304 304 305 306 307 306 312 318 316 313 314 313 318 321 322 325 311 317 315 314 319 312 309 293 306 292 300 302 302 304 301 300 300 301 303 304 306 306 306 307 307 307
303 304 304 305 305 307 308 307 315 323 315 302 309 318 314 319 321 321 323 322 322 321 319 313 298 296 309 305 304 304 303 303 299 299 301 303 305 306 306 306 307 306 307 303
304 304 305 305 306 307 310 312 318 323 315 303 307 314 316 317 319 317 320 320 318 315 309 296 306 309 307 306 306 304 303 301 301 300 303 303 302 303 304 302 301 301 300 296
304 304 305 306 307 307 311 309 319 320 324 311 302 311 312 315 317 315 316 317 317 315 312 307 308 308 309 296 300 303 304 305 304 303 305 305 302 301 299 297 297 297 295 295
304 305 306 307 307 313 311 307 310 309 324 312 299 301 310 314 314 313 313 316 315 314 310 306 306 305 307 295 300 301 301 302 302 303 304 299 301 295 296 294 293 293 293 292
304 305 306 306 305 307 308 311 306 308 315 314 298 293 304 311 308 304 311 311 311 307 302 304 304 302 305 299 299 300 301 301 300 300 301 299 298 296 294 294 293 291 290 290
305 306 306 313 313 313 309 305 305 318 313 301 292 294 291 308 302 303 305 309 296 303 297 301 302 295 294 298 297 297 298 298 296 297 297 297 294 292 292 292 292 290 290 291
306 311 310 300 310 304 306 312 307 304 308 304 295 303 297 303 299 295 298 298 296 293 295 300 294 289 293 294 296 296 297 297 296 291 289 290 290 291 291 292 292 292 290 290
316 310 301 309 305 311 306 298 297 299 296 297 298 301 297 303 295 292 297 293 295 290 294 294 290 288 290 293 293 295 297 297 296 294 294 294 293 291 291 290 291 289 289 287
310 309 310 311 307 302 292 290 293 294 291 293 294 296 297 298 303 295 295 289 293 288 296 290 288 288 290 291 293 295 296 295 294 294 293 293 293 292 291 289 289 288 287 285
314 305 295 300 292 289 288 285 289 287 289 290 293 290 296 297 298 292 291 288 289 298 289 287 287 287 289 292 293 293 294 294 293 292 292 291 290 290 289 287 288 287 288 286
298 292 287 288 286 286 286 287 287 287 287 291 293 291 292 292 289 289 286 286 291 286 284 286 285 287 289 291 292 292 290 289 290 290 289 288 287 286 285 284 284 283 283 283
291 291 284 284 285 286 286 286 287 288 291 294 294 293 294 289 288 290 286 285 284 286 287 287 286 287 289 290 291 289 288 287 289 289 287 285 286 286 286 285 284 283 280 280
287 286 285 285 286 285 285 285 285 288 290 294 297 290 287 286 287 286 286 286 285 286 288 287 287 287 289 290 289 289 290 291 289 288 287 287 286 285 285 283 282 280 279 277
287 285 285 286 285 284 284 285 285 288 288 286 290 286 285 289 287 285 288 285 286 287 288 287 287 287 289 290 290 289 289 290 289 289 288 287 286 284 283 282 281 282 282 278

GFSNW_sfc_thetae_039.txt.gz
Theta_e
304 305 307 307 309 310 309 306 296 310 315 297 297 295 300 303 304 307 305 303 302 297 298 297 295 295 302 302 303 298 302 296 291 294 301 301 299 297 297 285 286 287 283 285
303 304 305 307 308 309 306 301 302 311 311 290 292 297 300 304 303 303 303 302 303 303 297 296 297 301 307 307 303 299 301 294 285 289 296 299 296 297 297 297 291 287 279 284
303 303 303 306 307 309 307 302 295 304 306 299 296 294 296 298 306 305 305 303 304 300 298 300 297 299 305 306 304 301 303 297 291 285 290 296 293 296 296 293 283 285 286 290
302 303 303 305 306 308 306 302 297 303 296 297 296 298 297 299 299 305 305 302 301 299 295 297 296 301 301 305 302 302 300 291 293 294 296 298 297 296 296 292 293 287 290 292
301 302 303 303 306 307 302 299 299 304 302 302 299 297 297 298 301 302 300 300 301 300 297 298 296 301 300 298 301 299 300 292 293 291 297 295 292 295 295 294 295 293 293 292
302 303 303 302 305 306 300 301 304 304 299 299 297 296 299 300 303 304 304 302 301 300 303 305 305 305 304 303 300 297 297 294 288 285 290 290 282 290 293 295 296 294 288 292
302 302 302 302 304 305 304 302 304 301 294 299 298 299 300 303 303 302 304 305 302 307 310 308 306 304 304 306 305 304 297 294 287 282 283 275 290 297 296 294 294 294 294 294
301 302 302 302 304 306 304 305 303 304 288 300 299 299 302 304 306 303 306 308 309 310 307 297 293 290 289 295 300 299 302 292 285 280 281 288 291 294 294 291 290 296 294 295
301 302 302 303 305 306 305 304 306 306 300 298 303 299 303 300 300 300 305 310 310 309 303 290 286 284 291 290 293 299 298 296 284 283 279 275 289 295 299 297 285 297 298 296
302 303 303 304 304 305 303 302 306 305 302 306 304 299 300 306 303 299 304 305 303 307 288 288 284 284 296 287 286 285 284 285 281 278 277 285 297 298 299 284 286 298 298 298
302 303 303 304 304 304 302 300 305 307 303 306 309 308 306 306 304 297 303 303 300 297 290 288 286 284 289 290 296 290 287 284 279 285 281 280 298 297 290 296 298 298 298 299
302 303 303 303 304 304 304 298 307 311 304 306 316 314 314 312 311 307 305 305 302 303 296 294 290 289 287 288 283 297 287 293 288 290 287 298 298 298 301 301 299 299 300 302
302 303 303 303 304 304 304 302 309 308 302 307 311 307 313 318 314 314 302 306 310 306 308 299 294 288 290 283 286 290 296 300 293 292 296 297 301 302 303 303 301 298 297 299
302 303 302 302 303 304 305 303 309 308 306 293 305 317 310 317 319 317 317 313 314 312 307 294 290 289 299 287 293 292 296 296 295 293 298 300 299 301 301 300 298 295 295 294
302 303 303 304 304 305 306 307 309 310 306 296 302 310 314 316 315 314 316 313 310 305 294 288 291 297 295 293 293 288 297 295 288 288 298 297 295 298 298 296 295 294 292 291
302 303 303 304 305 306 308 299 308 310 309 303 292 307 309 311 312 312 311 310 308 307 300 292 299 302 294 287 283 297 299 300 300 298 299 296 295 295 296 293 293 293 292 291
302 303 304 305 305 308 301 299 309 308 308 303 292 295 306 309 309 305 307 309 306 305 300 294 296 296 298 288 286 297 299 299 299 301 297 293 295 291 293 292 291 291 290 289
303 304 304 305 306 307 305 311 306 306 311 304 291 291 298 308 299 295 304 301 300 299 297 294 290 294 287 285 295 297 298 297 297 296 297 294 293 292 291 291 290 288 287 287
304 305 305 306 307 305 306 305 303 310 306 292 288 289 289 304 298 296 298 300 289 299 290 292 292 288 287 293 294 295 296 294 293 295 293 292 291 291 290 289 288 286 285 287
305 308 306 296 305 304 304 306 297 297 298 295 289 297 291 299 291 290 290 289 290 288 290 294 288 286 291 292 293 294 295 295 293 289 286 288 288 289 290 288 289 288 287 287
308 302 296 305 307 303 297 288 288 291 287 290 292 295 293 299 290 288 289 288 286 282 285 285 285 285 289 292 293 293 296 294 293 292 292 292 291 289 288 288 288 286 284 282
306 305 307 304 301 294 288 286 287 287 287 289 289 291 295 292 299 289 290 286 284 282 291 286 284 285 289 291 292 294 295 294 293 294 292 292 292 290 288 287 285 283 282 281
305 298 291 296 289 286 281 279 285 285 287 288 288 287 289 290 292 288 289 286 284 285 285 283 284 287 289 291 292 292 293 293 292 290 289 289 287 287 286 285 285 283 281 281
292 288 285 286 284 283 283 284 285 285 285 287 289 287 287 287 286 286 285 285 287 284 279 278 284 287 289 290 291 291 289 287 287 287 286 284 284 283 283 281 280 280 280 280
286 286 281 282 284 285 285 285 286 286 288 288 288 287 289 286 286 286 285 283 279 281 279 284 286 288 289 289 288 287 285 285 286 287 284 283 283 282 281 281 281 279 276 275
286 284 284 285 285 284 285 285 285 287 286 287 287 286 285 285 285 284 283 281 278 283 284 286 288 288 288 287 287 288 289 287 286 285 285 284 282 281 280 280 279 275 274 270
285 283 285 284 284 283 284 284 285 288 286 285 286 283 283 285 283 282 284 281 283 285 285 287 288 288 286 286 287 287 287 286 285 285 284 283 283 280 279 278 279 279 277 270

GFSNW_sfc_thetae_042.txt.gz
Theta_e
304 304 304 304 306 307 306 302 294 309 313 296 295 294 297 300 302 306 303 303 299 295 295 293 293 293 296 301 302 297 299 294 288 294 299 301 296 294 293 283 284 285 281 284
302 303 304 304 305 307 301 297 300 309 308 290 289 295 298 300 300 302 302 300 302 300 295 292 296 298 303 305 300 297 299 292 285 288 293 298 295 295 296 295 289 285 279 284
302 302 303 303 305 307 302 298 292 301 303 298 292 291 294 295 302 300 302 302 303 299 296 298 296 298 302 304 302 301 301 294 289 284 288 293 291 294 295 292 283 284 285 289
302 302 303 303 304 306 302 299 294 297 292 294 294 294 295 294 294 302 304 300 300 299 293 294 294 299 299 302 300 300 297 291 292 292 294 295 294 294 294 291 290 285 289 289
301 302 303 304 305 306 299 295 295 299 296 298 294 294 292 292 295 297 297 299 301 299 295 295 294 298 297 296 298 296 298 289 289 288 293 292 290 292 292 293 292 292 291 290
301 301 302 303 303 305 297 300 301 300 296 296 293 293 293 294 296 300 301 302 300 297 299 301 300 302 302 301 297 295 295 292 286 284 288 288 282 289 291 292 293 293 287 291
300 301 302 302 303 303 302 301 300 298 292 296 295 296 297 296 297 295 303 303 301 303 307 304 302 300 303 303 301 301 293 291 284 281 281 275 290 295 294 291 291 292 292 293
300 301 301 302 302 303 301 304 300 300 288 297 299 298 297 298 299 301 300 305 306 309 304 295 291 289 290 294 298 298 300 289 284 280 280 286 290 292 290 290 289 293 292 294
300 300 301 301 302 303 302 301 305 301 296 294 301 299 299 295 296 298 302 308 308 309 298 289 285 284 289 289 291 297 295 292 286 281 277 275 287 293 296 295 284 295 295 295
300 301 301 301 302 302 302 300 304 300 298 302 303 298 297 300 298 297 301 303 302 303 287 286 283 284 293 285 285 283 283 284 281 276 276 282 292 296 297 283 284 296 296 296
300 300 301 301 302 303 302 301 305 300 297 302 306 304 298 300 302 296 300 299 299 295 289 287 285 282 288 287 291 288 286 282 278 282 277 279 297 295 289 292 295 297 297 297
301 301 301 301 302 303 304 298 305 306 298 302 306 307 309 307 307 304 301 301 301 301 296 290 289 285 283 286 284 295 286 289 285 287 286 295 297 296 298 299 298 298 299 300
301 301 301 302 303 304 303 301 303 302 298 299 302 304 311 314 313 314 301 301 307 306 304 296 292 286 287 283 284 289 293 298 291 291 295 297 298 300 300 298 295 295 296 295
302 302 302 303 304 304 303 301 306 303 302 292 300 314 309 315 314 312 310 308 309 310 304 292 288 288 295 284 291 290 293 295 292 292 295 297 297 297 294 294 294 293 293 292
302 303 303 303 304 304 303 304 306 309 302 293 299 307 312 315 315 311 312 310 307 301 293 288 290 294 293 289 290 287 295 293 288 287 297 294 293 294 296 293 292 292 290 289
302 302 303 303 303 303 302 295 303 308 309 298 291 304 308 312 314 311 311 309 307 303 297 292 297 300 292 284 282 295 297 298 299 295 297 294 293 293 293 291 291 291 289 289
302 302 303 303 303 303 299 296 304 306 308 298 291 294 305 310 308 306 306 306 302 304 298 290 293 295 294 284 284 295 296 296 296 295 294 291 292 289 291 290 289 290 288 288
302 302 303 303 304 304 302 305 306 308 304 303 289 292 296 307 297 297 304 300 298 297 294 291 288 293 284 285 293 295 295 295 295 294 295 292 291 290 288 289 289 287 286 285
302 303 303 304 303 300 302 305 305 308 304 292 287 288 288 301 294 293 294 294 289 297 288 288 291 283 284 290 293 293 294 292 290 291 291 290 288 287 287 287 286 284 283 284
303 302 300 294 301 306 306 304 299 297 297 294 289 294 290 297 288 289 286 289 287 287 289 293 286 285 289 290 292 293 293 292 291 287 285 287 286 287 287 287 287 286 284 283
301 300 295 305 306 304 298 289 288 291 286 288 291 292 291 297 288 287 287 287 285 284 287 286 285 284 289 290 292 293 293 293 291 290 290 290 289 288 287 286 285 284 282 282
303 304 305 303 299 290 287 285 286 287 286 287 289 291 294 291 297 289 288 285 284 283 289 286 283 283 288 293 293 294 294 293 291 291 291 291 290 289 287 285 283 282 282 281
303 297 290 293 287 283 279 279 284 284 286 288 288 287 289 291 292 287 287 280 282 283 285 279 281 288 290 291 292 292 293 292 291 290 290 289 288 287 284 282 281 281 281 279
290 286 283 284 282 282 282 284 284 285 285 286 286 286 288 286 287 285 285 285 286 281 277 277 284 287 288 291 291 289 287 287 287 286 286 284 284 283 283 282 280 279 279 277
285 285 280 281 284 285 285 285 285 285 287 287 286 286 287 285 285 285 284 283 281 280 277 283 286 287 288 288 287 286 285 285 285 285 283 282 282 282 281 281 280 279 277 274
283 284 284 285 285 284 284 284 285 287 286 286 284 285 285 284 284 283 282 278 277 282 284 285 288 287 286 286 286 287 286 285 284 284 283 282 281 280 280 279 278 275 274 272
283 282 285 284 284 283 284 284 285 287 286 285 284 282 282 284 282 281 283 280 282 284 285 286 287 286 286 287 286 285 285 285 284 284 283 282 281 280 279 277 277 278 276 272

GFSNW_sfc_thetae_045.txt.gz
Theta_e
304 305 305 305 306 306 304 294 289 307 310 297 295 289 295 299 300 303 302 301 299 296 294 292 291 292 295 297 299 294 297 291 286 291 296 298 295 293 291 283 283 283 281 283
304 305 305 305 305 306 301 292 294 308 307 291 291 294 294 298 298 298 299 299 300 299 294 290 293 293 300 302 298 296 297 289 283 287 291 295 293 294 295 291 287 284 279 283
305 304 304 304 304 305 302 295 289 298 301 299 293 292 292 294 301 298 299 299 302 298 295 296 293 295 300 302 300 301 299 292 288 284 288 292 289 293 293 291 282 284 284 287
304 303 303 304 303 304 301 295 291 296 291 293 294 294 293 292 293 298 299 295 298 297 292 293 293 297 298 300 298 298 297 289 290 290 291 292 292 292 292 289 289 285 288 288
303 303 303 303 303 303 297 291 294 295 293 296 294 294 291 292 295 296 295 295 299 297 295 295 293 296 295 295 296 295 296 288 289 287 291 291 289 292 291 291 291 290 289 289
303 303 302 303 303 302 296 296 300 296 295 293 292 291 292 292 296 297 298 298 298 296 299 300 300 300 299 299 296 293 292 289 285 283 286 286 282 288 290 291 292 292 287 290
302 302 302 302 302 301 299 298 300 296 288 293 291 293 294 293 295 293 298 298 295 301 305 302 301 300 300 300 298 298 291 288 284 280 281 275 289 293 292 290 289 290 291 291
302 301 301 302 302 302 297 300 299 297 286 293 295 294 294 295 297 295 296 299 301 305 302 294 291 288 290 291 296 297 296 287 282 280 280 285 289 290 290 288 286 291 290 292
301 301 301 301 302 303 299 299 303 300 293 293 298 295 296 293 292 293 296 301 306 304 297 288 286 285 289 288 290 295 292 290 286 279 278 276 288 292 294 293 283 293 293 293
300 300 301 301 302 302 299 299 304 301 293 298 300 296 295 298 294 292 295 300 300 303 289 284 284 284 292 285 285 283 283 283 282 276 277 283 290 294 295 283 284 294 295 294
299 300 301 301 302 302 299 299 304 300 294 297 301 302 298 298 297 292 297 299 298 291 288 287 286 283 288 286 289 287 287 283 278 278 275 279 294 293 287 290 293 295 295 295
299 300 301 301 302 302 301 296 304 306 297 298 302 301 302 302 303 299 299 299 299 299 293 290 288 285 282 286 282 292 286 289 286 287 285 293 295 293 295 296 296 296 297 295
300 300 301 301 302 302 301 299 303 302 296 295 297 299 305 307 307 309 299 299 305 302 303 295 291 287 287 283 283 287 292 295 289 290 293 294 296 295 296 297 296 297 298 293
300 300 301 301 302 302 302 298 303 301 299 289 295 311 307 313 312 310 308 306 308 305 302 293 289 285 294 284 290 289 292 294 291 289 293 295 294 292 292 292 293 292 292 292
300 301 301 301 302 302 301 302 303 304 296 291 295 304 309 313 311 309 309 308 305 299 294 287 288 293 294 289 289 286 294 292 288 286 295 294 293 292 293 292 290 290 289 288
300 301 301 301 302 302 299 293 299 305 307 295 288 302 305 308 309 307 307 308 305 303 297 291 296 300 295 286 284 294 296 297 296 294 298 293 292 292 292 290 290 289 288 288
301 301 301 301 302 300 295 291 296 303 306 297 288 290 302 309 306 302 305 304 301 303 298 290 294 295 295 284 285 294 295 295 294 294 293 289 290 288 290 289 289 289 288 288
302 302 302 302 302 301 295 303 304 305 300 299 288 289 294 306 297 295 302 297 299 298 294 290 289 291 284 286 292 293 293 293 293 292 293 292 289 288 287 288 287 286 285 285
302 302 302 301 299 294 298 305 307 309 302 291 287 287 287 301 295 294 295 297 290 296 288 290 293 285 287 289 292 292 293 292 288 289 288 288 287 286 286 286 285 283 282 283
302 301 297 291 297 304 305 302 297 296 297 296 288 294 290 297 289 288 290 289 288 287 289 293 287 286 289 289 292 291 291 290 290 286 284 285 284 285 285 285 286 285 284 284
299 294 292 302 304 301 295 289 288 289 286 289 291 292 292 296 289 287 288 287 286 286 288 288 285 286 288 290 290 291 292 291 290 290 290 289 288 286 286 286 285 283 283 282
298 302 303 301 297 291 286 284 285 285 285 287 288 290 293 290 295 288 288 286 285 283 289 287 284 284 287 290 290 291 292 292 292 292 290 290 289 288 286 284 283 282 282 279
302 296 290 292 286 284 283 281 283 284 285 287 287 287 287 287 289 284 282 277 278 286 285 284 282 287 290 292 292 291 292 292 291 290 290 289 287 286 284 282 282 281 280 280
289 287 282 283 281 282 282 283 285 285 285 286 286 286 286 285 285 283 280 284 285 279 276 275 283 287 289 290 290 289 288 288 288 287 285 284 283 281 282 282 281 279 278 277
285 286 280 281 284 285 285 285 285 285 287 286 286 286 288 285 285 284 284 283 281 276 274 282 285 287 288 288 287 286 285 285 284 285 283 282 281 281 280 280 280 278 276 274
285 283 282 284 283 283 284 284 285 287 286 286 286 283 283 283 284 283 281 280 278 281 283 285 286 286 286 286 286 286 286 285 284 284 283 283 281 280 279 279 278 275 274 273
283 282 285 284 284 283 284 284 284 287 286 285 284 282 281 285 281 280 282 278 281 283 285 286 285 285 285 285 285 284 285 284 283 283 282 281 281 279 278 276 277 277 275 273

GFSNW_sfc_thetae_048.txt.gz
Theta_e
305 304 305 306 306 306 303 297 286 301 310 294 296 291 293 297 299 301 298 299 298 296 293 290 290 291 294 296 296 292 295 290 284 289 294 296 293 291 290 283 282 283 281 283
304 304 305 305 306 305 299 292 291 306 304 287 289 294 294 296 297 297 297 297 299 299 293 288 292 292 296 298 296 294 295 287 282 285 289 293 291 293 292 289 285 283 278 283
304 304 304 305 305 305 300 293 284 296 298 295 291 291 292 290 298 297 298 297 299 297 294 294 290 292 297 300 297 300 298 290 286 283 286 290 288 291 292 290 282 283 283 286
304 303 304 305 304 305 300 293 287 293 287 289 291 292 292 290 290 297 298 295 296 295 291 291 290 295 297 297 299 297 295 288 289 288 290 291 291 291 290 288 288 285 288 287
304 303 303 304 304 304 296 289 289 293 292 291 290 292 290 290 292 295 293 293 295 297 293 295 291 296 294 294 295 294 294 288 286 286 289 289 288 290 290 289 288 288 288 288
304 303 303 304 303 303 294 296 294 293 293 291 288 288 290 291 294 295 298 296 295 294 296 299 300 300 298 296 294 292 292 288 284 283 286 286 282 288 289 289 290 291 286 290
303 303 303 303 303 303 298 297 294 291 286 291 289 290 293 292 294 292 297 298 295 298 304 302 300 298 298 297 296 296 289 287 283 280 281 276 288 291 291 290 290 290 289 289
303 303 303 302 302 302 297 300 296 294 285 291 292 292 291 293 295 294 295 298 301 301 301 294 291 288 288 290 294 294 293 287 282 280 280 284 287 289 289 288 287 290 289 291
302 302 302 301 302 302 297 296 298 297 292 290 295 293 293 290 291 290 294 299 301 302 295 289 286 284 288 287 289 293 291 289 285 279 277 276 286 291 293 292 283 292 292 292
302 302 302 301 302 303 297 296 301 297 292 298 296 293 292 295 292 289 292 295 298 299 284 282 285 286 291 284 286 284 284 282 280 275 276 283 291 292 293 283 285 292 294 294
302 302 301 301 302 303 298 295 299 297 294 296 300 298 295 296 295 288 292 292 295 290 287 287 287 281 287 286 289 288 287 283 279 278 276 281 292 291 287 290 291 293 293 293
301 301 301 301 301 302 300 293 298 299 297 297 300 300 300 298 299 296 295 294 295 296 292 287 285 283 280 286 284 290 286 290 286 287 287 293 293 291 293 293 293 293 294 293
300 300 300 301 301 302 300 296 296 297 296 294 297 294 301 303 302 304 295 296 302 298 299 292 290 286 287 284 285 287 290 292 288 289 292 293 295 295 295 295 295 296 294 293
299 300 300 301 301 301 300 296 300 299 294 288 290 304 302 308 305 304 304 302 304 302 300 292 288 287 293 286 290 289 291 292 290 289 292 292 294 292 293 292 293 292 292 291
300 300 301 301 302 302 300 299 301 303 296 289 291 296 302 307 309 307 307 306 301 297 292 286 289 293 291 289 290 285 293 291 289 289 294 293 293 292 292 292 290 291 289 288
300 300 301 301 301 301 298 291 300 303 300 293 285 298 299 308 308 306 305 306 301 298 294 290 296 299 295 289 287 294 295 295 296 295 297 292 291 290 291 289 289 289 288 288
300 300 301 301 301 298 292 291 294 302 302 293 286 286 297 307 306 301 301 301 299 299 294 289 295 296 296 285 286 294 296 295 295 294 293 289 290 288 289 288 288 288 287 287
300 301 301 301 301 299 295 297 302 301 296 294 287 288 292 305 298 296 302 294 295 295 292 288 289 292 287 286 291 293 293 293 293 291 292 292 289 288 287 287 287 285 284 284
300 300 301 299 297 292 291 303 302 303 296 288 286 286 287 300 295 295 294 294 287 294 287 289 293 286 289 290 291 291 292 292 289 288 288 288 287 285 285 286 285 284 283 283
301 298 294 288 294 302 304 300 295 294 295 295 289 293 289 295 287 288 289 289 288 287 288 293 287 288 288 289 290 292 290 289 289 285 284 285 285 285 284 284 285 285 285 284
298 292 288 296 303 298 292 285 287 288 286 289 289 291 289 296 288 286 288 286 286 285 286 289 286 288 287 290 290 291 291 291 290 290 289 288 287 285 284 284 285 285 285 284
298 298 302 300 296 290 286 284 284 285 285 287 288 289 293 290 295 288 287 285 285 285 289 286 284 286 288 290 290 291 292 291 290 290 288 288 287 287 286 284 283 283 282 280
300 295 288 291 285 284 283 281 283 284 285 287 287 286 288 289 291 285 285 284 283 286 285 284 283 287 290 290 290 289 291 290 290 289 289 289 287 285 284 282 282 281 280 280
289 286 281 282 280 281 282 283 284 285 285 285 286 286 286 285 285 284 284 284 285 280 278 277 283 287 288 290 290 289 289 288 288 286 285 284 283 282 282 282 281 280 279 278
285 284 280 281 284 284 284 285 285 285 286 286 286 286 288 285 284 284 283 282 279 279 278 282 285 287 288 287 287 286 285 285 284 284 282 281 281 281 280 280 280 279 277 276
285 283 281 283 282 282 283 283 284 287 285 286 286 283 284 283 283 282 280 280 277 279 282 284 286 285 285 285 285 285 285 284 283 282 282 281 280 279 278 278 277 276 275 274
282 281 281 282 282 280 281 282 283 286 286 284 285 279 277 283 280 277 279 277 280 282 284 285 285 284 284 284 284 284 284 283 283 282 282 280 280 279 277 275 276 276 275 274

GFSNW_sfc_thetae_051.txt.gz
Theta_e
306 306 306 305 306 306 303 296 286 299 305 291 293 289 294 297 297 302 300 300 298 297 295 292 292 292 296 297 298 295 299 295 289 293 297 299 298 296 295 291 287 288 287 288
306 306 306 305 306 306 299 290 291 301 301 285 287 292 293 296 296 297 298 298 300 301 296 291 293 294 299 298 297 297 298 292 287 289 293 297 296 295 294 293 291 287 287 290
306 306 305 305 305 305 300 292 285 293 295 294 290 289 290 291 297 296 299 298 300 299 296 297 294 294 298 299 299 299 300 293 291 287 290 294 292 294 294 295 289 290 289 292
305 306 305 305 305 305 299 292 287 293 285 287 289 291 291 289 290 296 299 296 296 296 292 294 292 297 299 300 300 300 300 292 292 292 292 294 294 294 293 293 294 291 293 291
305 306 305 304 304 305 296 289 288 292 292 290 288 290 289 289 291 293 293 294 296 297 294 296 294 297 298 297 298 298 297 293 292 290 292 293 292 293 294 293 293 292 293 292
305 305 304 304 304 304 294 297 295 292 292 289 287 287 290 291 294 295 297 296 296 295 297 300 301 301 301 301 298 295 294 292 289 287 289 290 287 291 293 294 295 296 291 297
305 305 304 303 304 303 298 297 295 290 286 288 287 288 291 292 294 292 296 298 295 299 306 305 303 301 299 299 299 300 293 292 289 286 285 282 294 295 295 295 295 295 294 295
305 304 303 303 303 303 299 298 295 292 285 290 290 290 289 294 296 294 295 299 301 302 301 295 292 292 292 293 296 296 297 291 286 286 286 289 291 293 294 293 294 296 296 295
304 303 303 303 303 303 299 299 298 296 289 288 294 291 291 290 291 292 295 301 304 302 295 290 286 286 290 290 291 294 291 292 292 284 284 283 293 295 296 296 289 296 296 295
303 302 303 303 303 303 299 298 302 297 291 295 295 293 291 295 293 291 294 296 297 301 288 287 286 287 294 289 287 288 288 287 287 283 287 289 294 295 297 289 293 297 297 297
302 302 302 302 303 303 299 296 301 298 292 294 297 297 295 295 294 289 293 294 295 293 287 288 288 287 291 291 291 290 290 287 286 285 286 286 296 293 292 299 297 298 298 298
302 302 302 302 302 302 300 292 299 300 293 295 301 301 301 300 300 296 296 294 295 296 293 291 290 288 287 291 288 293 289 293 291 292 293 299 297 300 299 298 299 298 299 298
302 302 302 302 302 302 298 295 296 295 288 292 295 295 303 304 302 306 296 297 302 299 302 295 294 289 291 286 288 292 293 295 294 295 297 296 297 299 300 299 299 299 300 297
301 301 301 302 302 302 299 294 296 295 291 287 292 303 299 307 305 303 305 304 306 305 302 294 291 290 295 290 294 293 295 295 293 293 295 297 298 299 299 298 298 296 297 296
301 301 301 301 301 301 298 297 298 298 293 286 290 299 301 303 306 303 304 304 304 301 295 290 293 294 294 291 293 291 295 294 292 293 299 300 300 301 297 296 296 295 293 292
300 300 301 301 301 299 297 290 298 301 297 288 284 296 297 304 306 304 303 303 303 303 299 295 297 300 296 290 290 296 298 299 301 298 299 294 293 294 295 294 293 293 293 291
300 300 301 300 300 297 293 291 296 300 297 291 287 288 297 302 306 303 304 305 303 302 298 294 297 298 298 289 290 297 298 299 298 295 296 293 293 292 292 291 291 291 290 290
300 300 300 299 300 299 295 299 301 299 295 293 285 286 292 304 297 297 302 299 300 298 297 293 295 294 292 291 296 297 296 295 294 294 294 295 291 290 289 289 289 287 286 286
300 300 300 297 294 290 293 300 301 301 295 286 285 286 286 300 295 295 295 297 291 297 290 292 296 289 290 294 295 295 294 294 294 291 291 290 289 288 287 288 287 286 285 285
300 296 292 287 292 300 301 298 293 292 293 293 285 292 289 296 289 289 291 289 288 288 290 294 289 292 292 291 293 294 293 292 291 288 286 286 286 287 287 287 287 287 285 285
294 291 288 293 301 297 291 286 286 287 285 289 289 288 289 296 289 287 288 286 286 286 290 291 288 289 290 291 291 292 292 292 291 291 290 290 289 287 286 286 286 286 286 284
296 297 298 298 293 288 285 284 285 285 284 288 288 289 292 291 295 289 287 286 286 285 290 287 286 287 289 291 290 291 292 291 290 291 289 289 288 288 287 286 286 285 283 281
298 294 288 290 286 283 282 279 282 283 285 287 287 286 288 289 290 285 286 285 284 286 285 283 282 287 289 290 290 290 290 290 289 288 288 288 286 287 286 283 283 282 281 281
286 285 281 282 280 281 281 283 284 284 285 285 286 286 286 286 285 285 284 285 285 282 279 278 284 285 287 289 289 289 287 287 286 285 285 284 283 282 282 282 282 281 279 279
284 284 279 280 284 283 284 285 285 285 286 286 286 286 288 285 284 285 285 283 279 280 279 281 284 285 286 286 286 285 284 284 284 284 283 282 281 281 281 281 281 279 278 277
283 280 277 280 279 278 279 280 281 285 284 286 287 285 284 283 283 280 277 279 274 277 281 284 285 285 285 284 284 284 284 283 282 282 282 281 280 279 279 279 278 278 277 276
281 278 279 278 278 276 278 279 280 285 285 282 283 276 275 281 277 274 276 273 275 277 280 284 285 284 284 284 283 283 283 282 282 281 280 280 279 279 278 276 277 277 276 275

GFSNW_sfc_thetae_054.txt.gz
Theta_e
307 307 307 306 306 306 305 296 286 305 307 289 290 289 295 297 298 304 302 302 301 299 297 295 295 296 299 303 304 299 303 299 294 296 302 304 304 301 300 294 291 295 294 293
305 306 307 306 306 306 302 291 292 303 304 284 284 292 293 297 297 300 300 300 302 303 299 294 297 298 304 303 303 301 303 297 292 293 297 301 299 301 301 300 298 293 292 293
304 305 306 306 306 306 303 291 285 292 296 296 289 289 291 291 298 298 302 301 303 300 298 299 296 297 300 303 304 302 304 299 295 291 294 298 296 298 300 299 294 294 294 296
304 304 305 306 306 305 300 292 290 292 284 289 291 292 292 290 292 299 301 299 300 299 295 295 295 298 300 301 301 302 304 296 298 298 298 298 297 297 298 296 298 294 296 297
303 304 305 305 305 305 297 288 292 296 292 293 291 292 290 291 293 295 296 296 299 300 297 297 295 298 299 299 302 301 303 296 299 295 298 297 295 297 298 298 298 299 299 298
303 304 304 304 305 304 296 298 299 297 292 291 289 290 290 292 295 297 298 299 298 297 299 302 302 303 303 302 301 301 300 298 296 291 296 296 290 296 298 299 301 301 296 301
303 303 303 303 304 303 302 299 298 293 289 290 289 290 292 292 294 294 297 299 298 301 306 306 305 303 302 303 303 305 300 299 298 292 290 286 297 302 302 300 302 303 303 303
303 303 303 304 304 304 302 302 299 295 289 292 291 291 291 293 295 296 296 300 302 306 301 295 291 293 293 297 301 303 304 300 294 292 291 295 295 297 299 298 299 304 303 304
302 302 303 304 304 304 302 303 304 300 293 290 294 292 293 291 293 295 297 303 307 306 299 296 288 285 289 291 295 299 299 300 299 291 289 288 297 303 305 303 295 305 304 303
302 303 303 303 303 304 301 301 307 302 293 296 297 292 292 296 296 295 298 300 300 305 297 292 290 289 295 289 291 291 293 294 293 293 292 296 302 302 303 293 297 306 306 305
302 302 303 303 303 302 301 301 307 303 296 297 298 300 296 296 297 294 298 297 299 298 294 294 294 293 294 295 297 295 294 293 292 294 291 289 302 300 298 305 307 307 307 307
302 303 303 303 303 302 302 295 304 306 299 296 300 301 302 302 303 300 301 297 297 300 296 297 297 295 295 295 291 299 294 298 297 297 298 306 304 306 307 309 308 306 307 307
303 303 303 303 303 302 302 297 300 301 297 296 296 294 301 306 306 310 298 303 302 301 305 301 301 295 299 294 295 296 298 299 297 298 303 303 305 307 306 306 307 306 308 307
302 302 302 303 303 301 301 298 301 300 297 289 291 302 297 303 305 308 308 306 308 308 306 303 298 297 301 298 299 298 300 299 299 300 303 304 304 307 308 306 305 305 306 306
302 302 302 303 301 301 301 302 302 303 296 287 291 298 301 302 303 305 308 307 307 307 302 295 297 303 301 301 300 300 302 300 298 298 304 305 307 309 309 306 304 304 304 303
302 302 302 301 300 301 298 291 300 303 303 294 286 299 298 298 299 303 305 306 305 306 303 303 304 305 302 297 296 301 304 305 306 304 304 305 302 302 307 306 305 304 303 303
300 301 300 300 300 301 295 292 298 302 302 293 287 291 297 300 298 305 304 306 305 304 303 302 303 305 303 299 295 302 304 305 306 304 301 300 299 301 300 302 302 301 302 301
300 301 300 300 300 299 296 303 301 302 297 293 285 289 294 302 297 297 305 301 302 304 302 304 301 303 303 296 301 304 306 303 303 302 301 300 299 297 297 298 297 296 295 295
300 300 300 299 298 293 296 301 300 302 295 288 286 287 287 301 297 297 295 300 292 303 298 299 302 299 295 298 301 304 305 303 304 302 299 297 297 296 294 295 294 294 292 292
299 297 294 289 294 301 299 296 292 291 292 295 289 290 287 296 293 291 295 293 290 287 294 302 296 297 302 299 299 299 300 301 299 296 295 295 293 294 294 294 295 294 292 292
298 294 292 298 301 301 295 289 288 290 287 292 291 290 285 292 291 290 294 292 290 287 289 295 293 293 296 296 298 299 299 300 300 300 298 298 298 295 293 292 292 290 289 289
298 298 301 300 296 291 286 286 286 287 286 292 291 292 292 295 301 296 292 290 288 286 290 288 287 286 289 292 293 296 296 297 296 296 295 295 294 294 292 291 290 290 288 284
299 296 292 292 289 283 281 280 284 285 288 290 291 288 294 295 299 289 288 287 286 288 285 281 284 287 287 289 291 291 293 293 292 290 290 290 291 291 290 285 284 283 283 283
289 286 282 283 282 283 284 284 286 286 286 288 292 288 288 288 289 286 286 286 288 285 282 281 284 285 285 286 286 287 285 285 285 285 285 284 283 283 283 283 283 282 281 282
284 283 278 280 282 282 283 284 287 286 286 287 287 287 288 285 286 287 286 285 281 280 278 282 283 285 285 285 285 285 284 283 282 283 282 282 282 281 281 282 282 281 281 280
282 278 276 278 279 277 279 279 281 284 284 286 286 286 285 283 283 280 278 279 275 277 280 281 285 285 285 284 283 283 283 283 283 283 282 282 281 280 280 281 280 280 280 279
280 277 278 276 277 275 277 279 280 284 286 283 283 277 276 283 278 275 276 273 276 278 280 280 284 284 284 284 284 283 283 283 282 282 282 281 282 282 280 278 279 279 279 278

GFSNW_sfc_thetae_057.txt.gz
Theta_e
307 307 307 307 307 307 304 298 288 304 310 289 292 288 294 296 298 300 299 302 301 297 300 298 298 297 300 303 304 300 304 300 296 298 304 305 303 301 301 295 294 297 295 295
307 307 307 307 307 306 301 292 293 306 304 284 288 292 293 295 296 297 297 299 302 304 301 297 300 300 304 305 303 302 304 298 292 295 299 303 300 303 303 302 301 295 291 294
304 307 307 307 306 306 302 292 285 293 297 297 292 290 290 291 298 297 298 299 302 301 300 303 300 300 302 306 304 304 305 300 296 292 296 300 297 299 301 300 296 295 295 297
304 304 306 306 306 306 301 292 291 293 285 289 293 293 291 290 290 297 299 296 299 299 297 299 299 301 302 302 302 303 304 296 298 299 300 300 299 298 299 298 299 295 297 298
303 304 303 305 306 306 297 287 293 296 294 293 292 292 290 290 292 294 294 295 298 300 297 299 298 300 300 298 302 302 305 297 299 296 299 299 296 298 299 299 299 299 299 298
303 303 303 303 303 305 296 295 300 297 292 291 290 291 291 291 294 296 297 298 297 298 300 305 306 304 304 302 300 301 301 299 297 293 298 298 294 297 298 299 301 300 296 302
303 303 303 303 303 304 299 299 300 295 289 292 292 292 293 292 294 294 297 299 298 302 307 306 305 304 302 302 302 303 301 299 298 294 293 287 297 304 303 300 301 303 303 304
303 303 302 302 303 304 300 302 301 296 291 293 291 292 293 294 295 295 296 300 303 308 304 295 292 293 293 295 299 300 303 301 296 293 292 295 298 301 301 299 299 304 304 305
303 302 302 302 303 303 301 304 306 300 294 292 295 293 294 292 293 294 297 303 306 306 298 293 287 285 289 287 292 300 300 303 299 295 290 287 297 303 307 306 297 306 306 305
303 302 302 302 303 303 301 302 310 302 294 296 297 293 293 297 295 294 297 299 302 305 296 292 291 289 293 287 287 292 294 296 295 295 292 296 302 304 307 295 298 307 307 307
302 302 302 302 302 303 302 304 308 301 296 297 299 300 298 296 298 294 297 296 299 299 293 293 292 293 294 292 295 295 293 293 293 296 293 290 305 304 300 306 311 309 310 309
302 302 302 302 303 303 303 301 306 307 300 298 305 304 305 303 302 300 301 299 299 300 297 298 298 297 298 295 291 299 294 299 297 298 299 307 307 307 310 311 310 311 311 311
302 302 302 302 303 303 304 303 306 304 298 297 299 299 305 306 307 309 299 303 304 303 307 300 299 295 298 295 295 297 301 304 300 300 304 306 308 310 310 311 311 312 312 312
302 302 302 302 302 303 303 301 306 304 298 291 294 303 301 305 305 304 308 307 309 307 305 303 301 297 300 298 297 296 300 302 300 300 302 305 307 308 309 311 311 310 310 311
302 302 302 302 302 303 302 303 304 305 298 291 293 299 302 303 299 297 303 307 306 303 301 302 297 300 298 300 301 298 299 299 299 297 302 305 306 310 311 312 311 310 309 309
302 302 302 301 302 301 299 291 299 304 303 295 290 301 299 301 302 299 301 303 306 304 302 302 302 303 301 299 296 300 300 302 304 304 307 308 310 308 308 310 312 311 309 309
301 301 301 301 301 302 296 294 300 303 304 295 289 290 299 301 300 300 300 303 304 305 303 302 302 302 302 302 297 299 303 304 305 308 307 304 306 305 306 307 311 308 309 308
300 300 300 300 300 301 299 302 301 303 297 298 288 287 292 300 293 292 303 301 303 302 301 303 301 304 304 296 300 302 303 304 306 308 309 307 305 303 304 304 305 304 304 305
300 299 300 299 298 295 299 301 301 306 299 290 287 286 286 297 295 296 298 301 295 303 299 300 301 299 295 299 301 302 304 305 305 308 308 306 303 304 302 301 300 301 301 302
299 299 295 292 298 300 299 294 292 296 297 294 288 293 286 289 291 293 293 297 294 290 297 303 298 297 300 293 299 304 304 304 306 302 302 302 301 302 301 300 300 300 299 299
300 296 293 300 301 296 294 290 289 290 288 293 292 292 286 292 289 289 295 291 292 287 291 295 294 293 288 290 294 300 302 303 303 304 303 303 303 303 300 299 299 299 297 296
299 299 301 298 294 292 287 287 289 287 287 293 291 291 295 295 297 293 292 289 290 286 291 287 281 285 287 288 289 293 295 298 300 300 300 299 299 300 299 298 295 294 291 286
304 298 293 293 291 283 282 280 283 286 292 291 292 290 297 296 297 289 292 288 286 290 285 283 284 286 287 287 287 289 289 289 290 290 291 290 288 289 288 285 285 285 284 284
290 286 283 284 283 282 281 282 283 286 286 291 294 291 290 290 289 287 287 286 288 286 283 281 283 285 285 287 287 285 283 284 283 283 283 283 282 282 283 282 282 282 281 281
284 284 277 280 282 283 283 284 286 286 286 286 289 287 288 287 287 286 287 285 280 280 278 281 284 286 286 285 285 284 284 283 283 283 283 282 282 282 282 283 283 282 280 279
282 278 276 278 280 280 281 281 282 285 284 286 287 286 285 284 285 281 279 279 274 276 280 282 284 285 285 284 284 284 285 284 283 283 282 282 281 280 280 281 281 280 280 279
280 278 279 277 277 276 278 280 281 284 285 283 284 279 278 284 278 275 276 274 277 279 279 280 281 281 283 283 283 284 284 283 283 282 282 282 282 281 280 278 279 279 279 278

GFSNW_sfc_thetae_060.txt.gz
Theta_e
308 308 308 308 308 307 305 297 288 303 308 290 291 286 292 294 294 297 297 298 296 294 297 298 299 297 301 305 304 299 302 300 294 296 302 304 302 300 299 294 292 296 295 294
307 307 308 308 307 307 301 292 292 303 304 284 285 291 291 293 293 294 295 295 297 298 297 295 299 302 305 306 304 302 302 297 291 294 299 302 298 300 302 301 300 295 291 293
305 305 306 307 307 307 302 292 285 293 296 296 291 289 289 290 295 294 296 297 298 297 297 300 299 300 304 307 304 304 304 299 295 290 294 299 296 298 301 300 295 295 296 297
305 305 305 307 307 307 301 292 288 293 286 288 292 292 291 289 289 294 296 295 296 295 293 295 296 301 301 304 303 304 304 296 298 298 298 299 298 298 298 296 299 294 298 297
303 304 305 305 307 307 299 286 291 295 292 292 290 291 290 289 291 291 291 292 296 297 294 296 295 299 299 299 303 301 303 296 298 294 298 298 296 299 299 298 299 298 299 298
303 303 304 304 305 306 297 294 299 296 292 291 288 289 291 291 294 294 295 294 296 296 298 302 302 304 303 305 301 300 300 298 295 290 297 296 291 297 298 299 301 300 296 301
304 303 303 303 303 305 296 295 298 292 288 290 290 291 292 292 293 292 295 297 295 300 306 306 304 300 302 303 303 304 299 299 297 291 291 285 297 304 302 299 301 302 301 303
304 303 303 303 303 304 300 300 298 293 288 292 292 292 291 294 296 294 295 297 300 304 304 296 292 291 293 296 300 301 301 299 291 290 289 294 297 300 300 298 298 303 302 303
303 303 303 303 303 303 301 299 303 298 291 291 295 292 293 291 292 293 296 301 304 304 301 293 286 284 290 288 292 300 299 300 295 292 286 285 297 303 305 305 293 305 305 305
303 303 303 302 303 303 301 297 303 300 293 296 297 292 292 296 294 293 296 297 299 303 295 290 288 287 292 286 288 289 291 292 290 291 288 294 302 304 305 292 295 308 308 307
303 303 302 302 302 303 300 297 303 299 295 297 298 298 296 296 297 292 297 295 297 294 292 292 291 292 291 290 292 293 291 289 289 292 288 287 305 303 297 303 308 312 309 310
302 302 302 302 302 302 302 296 303 305 300 297 304 304 305 304 302 299 298 297 296 299 295 296 296 295 295 293 288 297 290 296 294 295 295 307 307 306 309 310 310 311 310 312
301 302 302 302 302 303 302 301 301 302 296 298 299 298 305 307 307 309 298 299 303 302 304 299 299 294 297 292 293 295 300 302 297 298 301 304 307 309 310 311 311 311 312 312
302 302 302 302 302 302 302 300 303 302 298 291 294 306 302 306 306 305 303 302 302 307 305 300 298 296 301 295 297 295 298 301 299 300 303 303 304 307 308 310 312 312 311 312
302 302 302 302 302 302 303 303 304 308 298 290 294 300 303 304 303 302 302 300 298 302 296 299 294 300 300 301 300 296 299 297 296 296 303 302 303 305 308 308 308 311 311 310
302 302 302 302 302 302 302 293 301 305 304 295 289 299 298 301 300 299 300 299 300 303 299 298 301 304 300 296 292 297 300 301 300 298 302 306 308 309 310 308 309 309 312 311
302 302 302 302 302 303 296 293 299 304 306 294 289 290 297 300 300 298 297 300 300 301 301 299 300 300 299 295 293 298 301 302 303 304 304 304 306 305 307 306 307 309 310 310
301 301 301 301 302 301 298 302 302 304 297 296 289 288 293 300 294 293 299 297 299 300 300 302 299 300 301 293 297 300 302 302 302 303 308 309 309 306 305 305 305 305 305 306
300 301 301 300 299 295 297 301 303 306 299 290 288 286 285 297 295 296 298 300 292 300 297 297 299 297 292 293 294 298 302 302 302 305 307 307 307 306 304 303 302 301 301 303
301 300 295 291 297 300 300 298 294 295 296 295 286 293 286 288 290 293 296 298 292 289 295 301 295 293 291 290 290 293 297 300 302 300 301 301 302 303 304 303 302 301 301 301
299 295 291 298 300 298 295 288 288 289 286 291 292 293 288 289 285 287 296 288 293 287 292 293 292 286 285 288 288 291 293 296 300 301 301 301 300 301 302 301 301 300 298 296
298 299 300 299 293 291 287 286 289 288 286 293 291 291 292 289 289 285 289 286 290 286 293 289 282 283 286 286 286 288 289 291 292 293 293 293 293 295 293 290 287 286 286 285
303 297 292 292 290 284 283 280 284 285 286 290 291 288 292 293 292 286 287 286 285 289 285 280 281 284 285 286 285 285 285 285 285 284 285 285 285 285 285 283 282 282 281 280
290 287 282 283 281 281 280 280 283 285 285 285 287 290 287 289 287 285 285 285 286 284 280 276 280 283 284 285 285 284 282 283 282 282 282 282 281 281 282 281 281 280 278 279
283 284 277 278 282 282 282 284 284 286 286 285 287 287 289 286 286 286 286 284 277 277 276 278 280 283 284 283 284 283 283 282 282 282 281 281 281 280 280 280 280 279 278 278
282 278 276 279 280 278 280 281 281 286 284 285 286 286 285 282 283 279 277 277 272 275 277 279 281 281 282 282 283 282 282 282 281 281 281 280 279 278 278 279 279 279 279 278
280 277 280 279 278 277 279 281 281 285 282 283 284 279 277 284 278 274 276 274 275 277 277 278 279 279 280 281 281 282 282 281 281 280 280 280 280 280 278 277 278 278 278 278

GFSNW_sfc_thetae_063.txt.gz
Theta_e
307 307 308 308 308 308 305 297 287 301 303 289 290 285 287 292 291 294 292 292 291 289 291 290 291 293 297 302 301 296 298 295 289 293 300 302 299 296 295 287 289 292 287 287
306 307 307 308 308 308 302 292 292 302 300 282 284 288 289 290 290 290 290 290 292 293 290 288 293 298 301 303 301 298 298 293 286 289 295 298 295 296 297 297 295 289 285 288
306 306 307 307 307 308 302 291 284 292 295 292 285 285 285 286 293 291 293 291 292 289 289 293 292 296 301 302 303 303 301 293 290 286 290 296 293 295 297 296 289 290 290 293
305 305 306 307 307 307 302 290 287 290 285 286 287 287 288 285 286 291 292 289 290 289 286 289 291 297 298 301 304 301 300 291 293 294 296 298 297 296 296 295 296 293 295 295
304 304 304 305 306 307 299 285 289 291 288 291 288 288 286 286 289 289 289 287 290 290 288 290 290 297 297 297 300 298 301 291 293 291 296 297 295 297 296 296 296 298 297 296
304 304 304 304 305 304 298 296 294 292 289 289 286 286 286 288 290 291 292 291 289 288 291 296 301 303 302 301 298 295 296 293 291 287 294 294 287 293 295 297 299 296 293 298
303 303 303 303 304 303 301 297 295 289 285 286 287 288 289 288 290 288 292 293 290 293 304 305 303 300 300 300 300 301 295 294 291 285 289 282 293 299 299 298 299 299 298 298
303 302 302 303 303 304 299 297 296 291 286 288 288 289 289 290 292 290 292 294 296 296 293 292 290 290 290 293 298 297 297 296 287 285 286 290 294 297 297 296 295 299 297 298
303 303 303 303 303 304 300 298 299 296 288 288 291 290 291 287 287 288 291 297 298 296 291 288 284 282 288 287 291 297 297 296 288 285 282 281 291 299 304 302 290 300 301 300
303 303 303 303 303 303 301 296 300 297 289 293 294 289 289 294 291 289 291 292 292 298 286 282 281 284 291 285 284 285 286 288 286 286 285 288 298 302 304 290 290 302 302 301
303 303 303 303 303 303 301 296 299 297 291 293 296 298 294 294 293 288 291 291 292 289 283 285 283 281 287 287 290 290 288 285 284 287 283 282 302 301 294 298 302 303 302 302
302 303 303 303 303 303 302 294 299 301 296 297 301 300 301 301 301 296 294 291 291 293 288 287 287 282 284 285 282 294 286 290 288 290 289 300 304 302 305 306 305 305 304 305
301 302 302 303 303 303 301 297 297 296 292 294 295 296 303 307 305 304 292 292 297 296 298 293 292 285 288 280 284 289 294 298 293 293 297 299 301 306 306 306 306 307 307 306
301 302 302 303 303 303 301 297 299 296 294 288 291 304 301 305 305 303 300 298 299 300 297 293 291 287 293 286 291 289 293 297 295 294 298 301 301 303 305 304 306 307 307 306
302 302 302 303 303 302 301 300 300 301 294 287 291 300 302 303 302 300 299 298 295 294 291 289 288 293 292 292 292 289 294 291 291 290 299 299 300 303 307 306 306 307 305 306
301 301 302 302 302 301 298 293 299 304 303 294 285 297 298 298 299 297 297 297 295 296 295 292 296 298 293 284 284 293 296 297 297 294 298 298 300 304 306 305 305 305 304 305
301 301 302 302 302 300 294 291 296 303 303 293 285 286 295 298 297 294 294 296 295 295 293 294 293 293 295 285 283 295 298 299 298 301 302 297 297 300 303 303 302 303 304 304
301 301 301 301 301 301 296 299 302 302 296 294 283 283 288 297 290 288 293 291 293 294 292 294 293 294 293 287 291 293 295 298 300 301 303 302 303 302 302 301 300 299 299 300
301 301 301 299 298 293 294 302 303 303 296 286 281 279 282 292 291 290 290 292 282 293 288 289 294 289 284 286 287 289 291 293 294 299 301 301 300 300 301 299 298 296 296 297
302 300 294 287 294 300 300 296 292 291 292 290 281 287 280 288 287 283 284 285 282 281 288 294 288 284 287 286 288 289 290 292 295 294 293 295 296 297 298 297 296 296 294 291
298 292 289 295 300 297 292 284 283 286 281 286 286 286 284 290 285 285 288 285 281 278 284 286 285 278 282 285 286 287 288 290 291 293 291 291 290 291 290 288 288 287 286 283
297 296 298 296 293 289 283 280 283 281 280 285 283 287 289 287 290 285 288 285 283 279 287 285 277 280 283 284 284 284 285 286 286 287 287 287 287 286 285 284 282 281 281 280
299 295 289 289 284 279 274 275 277 281 283 285 287 285 286 288 288 284 285 281 283 288 281 275 276 281 283 283 283 283 283 283 283 282 283 282 281 281 281 280 280 279 279 279
286 284 276 278 277 278 277 278 279 283 284 283 284 286 286 285 283 285 284 284 284 279 274 271 276 280 281 283 283 281 280 281 280 280 280 279 279 278 278 278 279 278 277 277
277 277 273 273 279 278 280 281 282 283 284 282 284 286 287 284 284 283 282 278 272 273 270 274 277 280 281 280 281 280 279 279 278 278 278 278 278 277 277 278 278 277 277 276
277 275 272 273 270 270 273 277 279 282 282 282 284 284 282 279 278 275 274 272 269 270 274 276 277 278 279 279 280 279 279 279 279 278 278 278 277 276 276 277 277 277 277 276
278 276 278 275 272 274 276 279 276 283 281 280 279 273 274 279 271 270 274 269 271 273 274 276 276 275 277 277 277 277 278 279 279 279 278 278 278 278 277 275 276 277 277 276

GFSNW_sfc_thetae_066.txt.gz
Theta_e
306 306 307 308 308 308 305 298 287 299 303 286 287 283 287 292 290 293 291 292 289 287 289 288 289 291 294 301 301 294 296 293 288 291 298 299 297 295 293 286 287 288 285 288
305 305 306 307 307 308 302 292 291 300 298 280 282 286 287 289 288 289 289 288 290 291 288 284 290 292 299 303 301 297 297 290 285 287 292 296 293 295 296 294 291 286 282 287
305 305 306 306 307 307 303 288 284 292 293 289 284 284 285 285 292 289 290 289 291 288 286 289 286 289 297 302 300 302 301 295 289 285 289 293 291 293 296 294 285 287 287 291
304 305 305 306 306 307 302 289 286 290 283 285 286 286 286 285 284 290 291 287 287 287 284 285 285 291 297 301 302 301 299 290 293 293 294 295 294 294 294 292 292 289 291 293
304 305 305 305 306 306 299 284 288 291 286 290 286 286 284 284 286 287 287 286 288 288 285 286 285 289 293 296 300 298 299 291 292 290 294 295 293 295 295 294 293 293 295 294
304 305 305 305 305 305 297 296 294 292 289 286 286 284 284 286 287 289 290 289 288 287 289 291 292 297 299 299 297 296 295 292 290 286 291 292 287 292 294 294 295 296 292 297
304 304 304 304 304 304 300 298 295 289 284 285 285 288 288 287 288 286 290 291 288 292 296 297 299 297 298 298 298 301 293 291 290 284 285 281 292 298 297 295 296 298 298 299
303 303 303 303 304 303 298 299 296 290 285 287 287 288 288 289 290 288 290 292 294 295 291 287 286 285 287 290 296 298 298 292 285 283 283 289 292 295 295 294 292 298 298 298
302 302 302 303 303 304 299 298 300 295 288 286 290 287 289 286 286 287 289 295 296 293 287 283 279 277 284 285 290 297 295 294 287 284 282 280 289 296 301 301 288 298 300 300
302 302 302 302 302 303 300 298 299 293 286 291 292 287 287 291 288 285 288 290 290 293 283 279 278 279 288 282 283 284 285 285 284 285 284 286 295 300 302 289 289 300 302 301
302 302 302 302 303 303 301 297 299 293 286 290 295 294 290 291 290 285 288 288 289 287 282 281 280 278 285 285 289 287 285 284 283 285 283 280 300 300 294 296 300 303 303 302
302 302 302 303 303 303 302 295 299 299 293 292 299 299 298 298 297 293 291 290 290 290 285 284 283 280 280 284 281 291 285 290 287 289 288 298 301 302 304 304 302 303 302 303
302 302 303 303 303 303 302 296 297 296 291 290 293 293 300 304 303 302 290 292 296 295 294 290 288 283 286 283 283 287 290 296 291 291 295 297 299 304 304 305 303 305 306 304
302 302 302 303 303 303 302 296 298 296 292 285 290 302 298 303 303 303 301 299 300 299 297 289 285 283 291 283 288 288 291 294 293 292 296 299 300 301 302 304 305 305 306 304
301 302 302 303 303 303 300 299 298 297 293 286 290 298 301 302 302 301 301 299 298 295 292 288 285 290 290 289 291 288 293 292 290 288 296 297 298 299 303 303 302 303 304 304
301 302 302 303 302 302 298 291 297 299 299 290 285 297 296 298 299 298 298 298 295 295 290 287 293 296 292 286 285 293 294 296 296 294 299 300 300 301 302 302 303 304 303 303
302 302 302 302 301 299 293 289 296 302 299 290 286 288 296 297 296 293 293 296 293 293 291 288 291 292 295 286 284 289 292 293 296 297 299 296 298 296 300 301 301 301 302 302
300 301 301 301 302 301 296 298 302 303 296 293 282 286 290 293 288 287 291 289 291 291 289 290 291 294 292 287 286 288 290 292 294 293 298 298 299 299 298 299 298 297 297 297
301 301 301 299 297 293 296 302 303 303 294 283 278 277 280 291 289 288 288 290 283 290 282 288 291 288 280 282 284 286 288 288 290 293 294 296 295 296 296 296 296 294 291 289
299 298 293 287 294 301 300 296 291 289 290 287 280 285 281 287 287 285 283 280 281 283 285 291 284 280 285 284 286 286 286 288 290 290 288 289 290 291 289 288 288 288 285 283
296 290 289 294 299 295 291 283 284 284 282 285 285 285 282 288 279 283 286 285 282 278 283 282 280 277 280 284 284 284 285 287 287 288 288 288 288 287 286 284 283 282 281 279
295 293 295 294 292 286 282 282 284 281 282 286 282 284 285 286 290 285 286 284 284 279 284 277 270 277 281 282 282 282 283 284 284 284 283 284 284 283 282 280 279 279 278 278
297 291 286 285 280 274 272 274 279 280 282 283 285 285 283 287 289 285 284 282 280 287 276 271 273 279 280 280 281 280 281 281 280 280 280 279 279 279 279 278 279 279 278 278
283 280 272 273 272 274 275 276 278 282 281 282 282 284 285 285 283 284 282 282 281 273 270 268 274 278 279 280 280 278 277 278 278 277 277 277 277 276 277 277 277 276 275 275
275 275 268 270 274 273 277 277 279 282 282 282 283 285 286 282 281 279 278 274 268 270 267 271 275 278 278 278 278 277 277 277 276 277 276 276 276 276 275 276 277 276 276 275
274 274 269 270 266 267 268 268 271 276 280 282 284 280 279 276 275 272 270 269 266 268 272 274 276 275 275 276 278 278 277 277 277 277 277 276 276 275 275 276 276 276 275 274
275 270 268 264 264 267 272 270 275 281 280 276 278 272 272 276 271 270 272 267 270 272 273 274 274 273 274 275 276 275 275 275 276 277 277 277 277 277 275 273 275 275 275 274

GFSNW_sfc_thetae_069.txt.gz
Theta_e
304 305 305 306 306 307 305 298 287 300 302 286 284 280 284 291 289 292 290 290 289 287 287 285 287 288 292 299 299 293 294 290 286 290 295 297 295 293 292 285 284 286 283 287
303 304 304 305 306 306 302 292 291 300 298 281 280 283 285 287 288 288 288 287 289 289 286 282 287 290 296 300 298 296 298 289 284 286 290 294 291 293 294 292 289 286 283 285
303 304 304 305 305 306 302 287 284 290 293 288 284 282 282 283 289 288 289 288 289 287 285 287 285 287 293 298 301 302 300 293 288 283 287 291 289 292 294 293 285 285 287 289
303 303 304 305 305 306 301 288 286 289 283 285 285 285 285 282 283 288 290 286 286 285 282 283 283 286 289 297 302 301 299 289 292 292 294 293 293 292 293 291 291 287 290 289
302 303 304 304 305 305 298 284 287 291 287 289 286 286 283 283 284 286 285 284 287 287 283 285 283 286 287 291 297 297 298 290 290 288 293 292 290 293 293 292 292 292 292 291
302 303 303 304 304 304 295 296 294 292 288 286 285 284 285 285 288 289 289 288 287 286 287 290 291 291 291 291 295 293 294 291 288 283 290 290 286 290 292 293 294 293 289 294
302 303 303 303 304 304 300 298 295 289 284 285 285 287 287 286 288 285 289 290 287 291 294 293 295 292 295 296 296 298 291 289 288 284 286 280 291 296 296 293 295 296 295 297
303 303 303 303 303 305 300 298 296 291 285 287 287 288 287 288 288 288 287 290 293 294 290 285 283 283 286 288 293 295 295 289 284 281 282 288 289 294 293 292 292 297 295 297
302 303 303 303 303 305 301 298 300 295 288 286 290 287 289 285 284 286 288 294 296 292 288 283 279 275 281 283 290 298 294 292 286 284 280 278 286 294 297 298 288 297 300 299
302 303 303 303 303 303 300 296 299 293 287 292 292 287 287 290 287 284 287 289 289 291 282 279 277 279 285 281 282 284 285 285 285 284 283 284 293 296 300 287 288 299 301 298
301 301 302 302 302 303 300 296 299 293 287 290 294 294 290 290 289 283 287 288 287 284 280 280 279 276 282 283 286 284 283 283 280 285 282 277 298 298 293 296 299 300 301 300
302 301 301 302 302 302 301 294 300 299 292 291 294 297 299 297 295 292 291 289 289 289 283 281 281 277 278 282 279 290 283 286 283 285 286 295 297 298 300 302 302 302 302 302
302 302 302 302 302 302 301 296 298 296 290 289 290 290 297 302 299 299 289 291 294 292 291 287 285 281 283 277 280 284 287 292 288 289 292 295 297 299 304 305 303 304 305 303
302 302 302 302 302 303 302 297 298 295 292 285 288 297 294 300 303 300 299 297 298 297 293 288 283 281 289 281 286 284 287 290 289 289 293 296 299 300 301 302 303 304 304 304
302 302 302 302 303 303 302 299 299 298 290 283 286 297 299 302 300 299 299 298 294 291 288 287 284 288 289 287 288 285 291 290 286 284 294 293 297 301 300 300 301 302 303 303
301 302 303 303 303 299 296 288 298 299 298 290 283 296 296 298 299 298 297 296 294 293 292 290 292 296 292 281 282 290 291 293 294 292 294 295 299 299 299 300 301 302 302 301
301 302 302 303 301 298 292 289 295 300 298 288 284 288 296 299 296 294 294 295 295 293 291 289 290 292 294 285 283 288 290 291 293 294 295 295 296 296 298 298 298 300 299 297
301 301 302 301 301 301 296 297 300 300 294 290 283 285 289 295 289 289 293 290 292 292 289 288 287 290 290 284 284 287 288 289 292 291 294 294 296 294 293 296 296 294 290 288
301 301 301 299 296 294 295 301 301 302 294 285 282 281 283 290 288 287 287 288 285 289 282 285 288 286 277 280 282 284 285 285 287 290 292 291 292 291 289 288 287 286 283 283
300 298 291 285 296 302 301 296 290 291 289 286 281 281 284 289 287 281 283 281 281 283 285 289 280 279 282 282 284 284 283 285 287 286 287 287 287 287 285 283 283 282 281 280
294 290 287 295 300 296 290 284 282 284 282 284 283 283 280 286 281 285 283 284 280 275 280 282 278 275 278 281 281 282 283 284 285 286 285 285 285 284 282 281 280 280 279 278
294 294 296 293 289 284 282 281 281 283 282 284 280 285 285 286 289 282 286 284 284 280 283 277 271 276 279 279 279 279 280 281 280 281 280 280 280 280 279 279 278 278 278 277
294 288 282 282 277 272 270 272 275 275 282 281 284 285 285 286 288 283 284 281 281 282 273 269 272 277 278 278 278 278 278 278 278 278 278 278 277 278 278 276 277 277 276 276
280 277 268 269 267 271 273 274 275 280 279 279 281 284 285 285 284 284 281 278 279 272 267 266 272 276 277 278 278 276 275 276 275 275 276 276 276 275 276 275 275 274 273 273
275 274 267 269 273 273 275 275 276 280 281 281 283 284 284 279 277 277 273 272 266 268 265 270 273 275 277 276 277 276 275 275 275 276 275 275 275 274 274 275 275 275 274 273
275 273 269 270 267 269 270 270 272 278 279 283 282 281 278 274 274 270 269 267 265 267 269 272 275 274 274 274 275 275 276 276 276 276 275 275 274 273 273 274 274 273 273 272
272 269 269 263 262 264 269 271 274 279 279 276 277 271 271 275 270 268 269 265 268 270 271 272 271 271 271 273 273 273 273 273 273 274 275 275 275 274 273 272 273 273 273 272

GFSNW_sfc_thetae_072.txt.gz
Theta_e
302 303 303 304 304 305 303 297 287 300 302 286 286 282 282 289 288 291 289 289 287 286 286 284 286 287 291 297 297 291 293 288 284 288 294 295 292 291 291 285 283 285 283 286
302 302 303 303 304 305 299 292 289 300 299 282 282 284 283 286 286 287 287 286 288 288 285 281 285 289 295 294 296 296 296 288 281 284 289 293 289 291 292 291 288 286 283 285
302 302 302 303 304 305 300 285 283 289 293 289 285 283 281 281 287 287 288 287 288 286 284 286 284 285 290 293 294 301 300 293 289 282 286 291 288 290 292 291 285 284 287 288
301 302 302 303 303 304 299 285 284 289 282 285 286 285 283 280 282 287 288 284 285 284 281 283 282 286 288 291 297 298 297 288 291 292 294 293 292 291 291 288 290 286 287 289
301 301 302 302 303 303 296 284 286 291 284 289 286 285 283 281 282 285 283 283 286 285 282 283 282 284 284 285 291 294 296 287 289 287 292 292 289 292 291 290 290 290 290 290
301 301 301 302 302 302 294 292 293 292 288 287 285 284 284 284 286 287 288 288 287 284 286 288 289 289 289 288 286 285 290 289 286 282 290 289 283 288 289 291 292 292 288 292
301 301 301 301 302 302 298 295 294 288 284 286 285 287 287 286 286 285 289 289 287 291 293 292 291 289 289 289 289 291 289 289 286 282 284 277 287 295 293 291 293 294 294 295
301 301 301 301 302 302 299 298 294 290 284 287 286 287 286 288 289 287 288 290 293 294 290 284 282 281 284 286 289 290 295 288 283 277 280 284 286 290 293 289 289 293 294 296
301 301 301 302 302 303 300 298 300 294 287 286 289 287 288 285 284 285 288 293 295 293 287 283 280 275 280 281 286 292 291 290 284 284 277 275 283 293 297 296 284 296 298 296
301 302 302 302 302 303 300 298 300 293 288 292 291 287 288 290 287 284 287 288 288 291 284 281 280 279 283 278 282 284 286 285 283 283 281 283 290 297 299 284 284 296 299 298
301 302 302 302 303 303 300 297 301 293 287 291 294 294 290 290 289 284 287 288 287 285 281 281 281 277 281 281 284 284 282 281 283 284 282 279 294 297 291 294 296 297 300 299
301 301 302 302 302 303 302 293 299 299 292 291 296 297 298 297 295 291 291 288 287 287 282 280 281 277 277 282 278 287 280 284 282 284 284 292 294 293 299 300 298 298 300 303
302 301 301 301 302 302 301 296 297 295 288 290 290 290 295 300 299 299 290 290 293 289 290 285 283 279 282 277 279 283 286 290 286 286 287 291 293 295 299 300 300 301 303 304
302 302 301 301 302 302 300 295 298 294 291 284 286 296 293 298 299 299 298 296 298 297 294 286 282 281 287 280 284 283 286 288 287 287 290 293 293 295 299 300 302 303 305 304
302 302 302 302 302 302 299 299 298 298 290 283 283 294 295 297 298 298 298 298 295 293 289 284 282 285 286 285 285 283 289 287 284 283 291 290 292 295 297 297 298 300 301 302
302 302 302 302 302 301 297 289 297 298 294 287 282 293 294 296 300 298 296 296 295 294 291 287 290 292 288 278 280 289 291 292 293 291 292 292 293 296 295 295 298 297 295 292
302 302 302 302 301 299 291 289 294 300 299 289 277 285 293 296 297 296 295 297 295 293 289 289 289 289 291 285 283 286 289 290 290 294 292 291 292 293 293 292 295 292 289 287
302 302 302 302 302 300 296 297 300 300 293 291 280 284 289 296 289 289 294 291 292 291 288 287 286 289 288 284 283 285 287 286 289 288 290 292 293 292 288 288 288 286 284 283
302 301 301 299 297 293 294 301 301 300 293 284 284 281 282 292 289 290 289 291 285 290 285 284 288 284 279 279 281 282 283 283 284 287 289 290 289 289 285 284 283 281 280 280
299 297 291 286 295 301 300 293 290 289 290 287 283 285 284 288 285 284 285 284 283 282 285 287 278 277 280 281 281 281 281 283 285 283 284 284 284 284 282 281 281 280 279 278
295 289 287 296 301 294 288 283 284 285 281 284 285 283 283 285 281 284 283 283 279 279 280 283 277 274 278 280 279 280 280 281 282 283 282 282 282 281 280 279 279 279 278 277
295 294 296 292 287 284 282 281 283 281 280 283 284 285 285 286 286 283 285 279 283 278 281 276 269 275 277 278 278 277 278 279 279 280 279 279 279 279 278 277 277 276 276 275
292 285 280 280 275 269 268 270 276 277 279 280 283 283 285 286 287 283 285 281 279 279 272 269 270 275 277 277 277 276 277 277 277 277 278 277 276 277 276 275 275 275 275 274
279 275 266 267 266 270 271 272 273 279 276 276 278 284 284 284 282 280 280 276 276 270 266 265 271 275 276 277 277 276 275 276 275 275 275 274 274 274 274 273 273 273 271 271
273 272 265 267 271 273 274 275 277 278 279 279 282 283 281 276 274 274 274 270 266 267 265 270 273 274 274 275 275 275 275 275 274 274 273 273 273 272 272 273 273 273 272 272
274 272 268 269 269 269 269 271 272 278 277 282 282 278 274 273 273 269 267 267 263 265 268 270 272 272 272 272 273 273 273 275 274 274 274 273 272 272 272 272 272 271 271 270
271 268 269 265 267 265 268 270 273 277 279 275 275 269 270 274 269 266 267 263 266 269 270 271 271 271 271 272 272 272 272 272 272 273 274 273 273 273 271 269 271 271 271 270

GFSNW_sfc_thetae_075.txt.gz
Theta_e
301 301 301 301 302 303 300 294 285 300 302 287 287 282 284 288 286 290 290 289 288 286 286 285 285 287 290 293 296 293 296 290 286 288 295 297 296 294 294 288 286 288 288 289
300 301 300 301 302 302 297 290 289 300 299 282 283 286 284 286 285 288 287 286 288 289 286 283 286 288 294 293 291 289 296 291 285 286 291 295 292 293 294 293 291 288 286 289
300 300 300 301 301 302 298 287 282 289 293 291 287 284 283 282 287 286 289 288 289 287 285 288 285 286 291 293 292 297 299 293 289 284 287 293 290 293 295 292 287 288 289 291
300 300 300 301 301 302 297 286 284 289 282 285 287 287 285 282 282 287 289 286 286 285 282 283 284 286 288 290 293 296 296 287 289 290 291 292 291 291 292 291 292 287 290 291
301 301 301 301 301 302 293 284 286 290 287 288 286 286 284 282 283 285 283 284 286 286 283 284 283 286 286 285 290 290 291 288 291 288 292 291 289 292 292 293 293 292 292 292
301 301 301 301 301 301 292 293 292 291 288 287 285 284 285 284 286 287 288 287 286 284 287 290 291 291 291 290 287 286 287 290 288 283 290 290 284 289 292 292 294 294 290 295
302 301 301 301 301 301 295 293 292 287 282 285 286 287 287 286 287 285 288 289 288 291 295 294 293 290 289 289 289 290 286 286 288 283 285 278 289 296 296 293 295 296 296 296
302 302 301 301 301 302 296 297 293 288 283 287 287 287 287 288 289 287 288 291 293 296 291 286 283 284 286 287 288 289 290 287 285 283 282 286 289 291 291 292 291 298 297 299
302 302 301 301 301 302 298 297 298 293 287 285 290 288 288 285 285 286 288 294 296 294 288 284 279 278 282 282 286 291 290 291 287 283 280 278 287 294 299 297 287 298 300 300
301 301 301 301 301 301 298 296 299 294 286 291 292 288 287 290 288 286 288 289 289 292 286 281 280 280 285 280 283 283 284 286 283 283 281 286 293 296 301 286 289 299 299 301
301 301 301 301 301 301 299 295 300 294 287 291 295 295 292 291 289 285 288 287 287 287 283 283 282 281 284 283 286 286 285 283 283 284 281 280 295 297 291 296 301 299 300 301
301 301 300 301 302 302 301 294 300 300 292 291 297 298 298 297 295 291 291 290 288 289 285 285 285 282 283 284 280 289 285 289 287 288 288 295 298 297 299 302 300 301 301 302
301 301 301 300 301 302 301 295 299 295 287 289 290 292 298 300 300 301 289 291 294 291 293 288 286 282 285 282 284 287 290 292 289 289 292 294 295 297 299 299 299 300 301 302
301 301 301 300 300 300 300 296 298 294 291 285 287 296 294 300 300 300 299 297 299 297 296 289 286 285 289 285 287 286 289 291 290 289 292 294 296 297 297 297 299 299 299 302
301 301 301 301 300 301 299 298 297 298 291 284 286 294 296 298 298 297 299 298 295 294 292 288 287 289 290 289 289 287 292 290 288 287 290 290 292 296 296 294 295 295 292 292
302 301 301 301 300 300 296 288 297 299 298 289 282 293 293 294 295 296 296 296 295 294 292 289 291 294 291 286 284 289 292 292 292 290 293 293 294 296 293 291 291 292 289 287
301 301 301 301 300 297 292 289 295 299 299 288 282 285 293 294 295 296 296 298 296 294 292 290 291 291 293 286 282 287 288 288 289 292 291 292 293 292 291 289 289 289 287 285
301 301 301 301 300 299 295 297 300 299 294 291 281 281 288 295 290 288 294 291 292 292 289 290 289 291 290 284 283 284 284 285 288 286 288 288 292 291 288 287 286 284 281 281
302 301 301 298 295 292 294 301 301 300 293 284 282 279 281 293 289 290 287 291 285 290 285 287 290 286 281 279 280 280 281 281 282 285 287 288 287 287 284 284 282 282 280 280
299 296 290 286 294 301 299 293 290 290 290 288 283 286 284 289 287 286 286 287 285 282 286 288 283 277 279 280 280 280 280 281 282 281 282 281 282 283 281 280 280 280 279 278
294 289 288 296 300 293 290 285 284 285 283 284 285 285 284 288 285 284 285 285 284 279 283 284 278 274 276 279 278 279 279 279 280 281 281 281 280 279 279 278 278 278 277 276
294 294 293 290 285 284 282 280 282 283 280 284 285 285 286 286 288 286 285 282 283 278 281 276 270 274 277 277 277 277 278 278 278 279 278 278 278 278 277 277 276 275 275 274
289 284 279 280 276 269 269 271 275 277 279 280 283 283 285 287 288 285 285 278 276 279 272 268 271 275 276 276 277 276 277 277 276 276 277 276 275 276 275 274 274 274 273 273
278 274 266 266 265 270 271 272 274 278 279 279 281 284 283 283 280 279 277 275 276 269 266 266 271 273 275 276 276 275 274 274 274 274 274 273 273 273 273 273 272 271 270 270
272 272 265 268 271 273 273 274 275 278 279 280 283 280 280 276 273 274 275 270 266 267 266 269 272 273 274 273 274 274 274 274 273 273 273 272 272 272 271 272 272 272 271 270
273 270 268 269 269 270 270 271 272 277 276 281 280 277 273 272 271 268 266 267 264 266 269 271 272 272 273 273 273 273 274 274 273 273 273 272 272 271 271 271 271 270 270 269
271 268 270 267 268 268 269 270 272 276 278 274 275 270 269 274 269 266 268 265 268 270 270 271 271 271 271 272 273 272 272 272 272 273 273 272 272 272 271 269 270 270 270 269

GFSNW_sfc_thetae_078.txt.gz
Theta_e
300 300 301 302 301 302 300 295 286 304 306 289 288 285 289 291 290 292 290 291 290 288 289 287 287 289 291 295 296 293 297 294 290 292 297 300 298 296 297 291 290 293 292 293
300 300 300 301 302 302 299 290 292 303 301 283 284 288 289 290 289 290 289 289 291 292 289 285 288 290 294 294 293 292 296 292 286 288 294 297 296 297 297 297 296 291 290 293
299 299 300 301 301 302 300 289 284 292 294 292 289 285 286 286 291 290 290 290 291 290 288 291 288 289 292 294 293 297 297 295 290 285 289 294 292 294 296 296 291 292 292 294
299 299 300 300 301 302 299 288 286 292 283 286 288 288 288 286 286 290 291 288 289 288 285 287 287 289 290 292 295 296 296 289 291 293 294 293 293 293 294 292 294 291 293 294
300 300 301 301 301 301 296 285 288 290 288 290 287 287 287 287 288 288 286 287 289 289 287 288 286 288 289 288 292 292 295 289 291 288 292 292 290 293 294 294 295 295 296 295
301 301 301 301 301 301 294 295 294 291 287 288 286 286 289 289 290 291 291 290 288 288 290 293 294 294 294 293 290 289 289 291 289 285 291 290 287 292 293 295 298 298 294 296
302 302 301 301 301 301 297 297 294 286 283 286 287 288 290 289 290 288 290 291 289 293 297 297 296 295 294 294 293 294 289 290 290 286 288 280 291 297 298 297 297 300 299 300
303 302 302 301 301 301 299 299 295 289 283 287 286 287 289 291 292 289 289 292 294 297 293 288 286 287 288 290 293 293 293 290 287 284 284 288 290 293 294 293 293 300 299 302
302 302 302 302 301 301 300 299 300 294 286 286 289 288 290 288 288 288 290 294 298 296 290 285 282 281 284 284 288 293 292 293 288 286 281 279 290 297 301 299 289 300 302 301
302 302 302 302 302 301 299 298 302 294 287 291 293 288 289 293 291 288 290 291 291 294 288 284 283 282 287 283 284 283 284 286 283 285 284 288 295 298 302 288 290 300 301 300
302 303 302 302 302 302 298 296 302 294 288 292 295 295 292 293 293 287 291 289 289 287 284 285 285 285 287 286 288 287 286 285 284 285 282 281 299 298 292 297 301 302 303 303
302 302 302 301 302 302 301 292 300 301 291 292 300 300 301 299 297 294 293 291 291 292 288 289 289 286 290 287 283 292 286 290 288 290 289 298 301 299 302 303 302 303 303 304
302 302 302 302 302 302 300 295 297 295 290 290 293 292 300 303 302 303 291 293 296 295 298 294 292 286 290 285 287 289 293 296 292 291 295 296 299 301 302 302 301 303 303 302
302 302 302 301 301 302 301 296 298 296 291 287 289 300 296 302 303 301 301 298 300 299 298 293 291 288 294 289 290 290 293 294 291 292 295 297 298 300 300 300 302 301 300 299
302 302 301 301 301 302 300 299 299 301 295 288 289 296 299 301 301 299 300 298 296 295 291 290 290 294 293 295 294 290 295 292 291 289 295 294 296 299 298 298 298 298 296 295
301 302 301 301 300 301 297 287 298 301 301 291 285 296 295 297 299 297 297 296 296 294 292 292 296 296 295 289 288 293 295 296 295 293 295 296 298 300 297 296 295 295 294 292
301 301 300 300 299 297 293 292 295 301 302 291 287 287 295 297 297 297 296 297 295 293 291 291 294 295 295 291 287 288 288 289 291 289 290 292 292 290 293 293 292 292 290 290
301 300 299 300 300 300 297 299 300 302 296 294 286 287 291 296 291 291 297 293 294 293 291 292 293 295 295 287 283 284 285 286 288 286 288 288 291 290 287 287 286 286 283 283
300 300 300 297 295 292 295 300 300 304 296 287 285 285 283 296 292 291 291 292 286 292 287 290 292 289 283 279 280 281 281 282 283 285 288 288 286 285 284 284 282 282 281 281
299 297 292 286 294 300 300 295 291 292 293 294 288 293 285 292 289 288 289 288 288 285 287 290 288 278 280 280 281 281 281 281 282 281 282 282 283 283 283 282 282 281 280 279
295 291 289 296 300 296 292 287 287 286 284 288 289 290 286 290 287 287 288 287 287 283 284 286 282 278 278 280 279 280 281 281 281 281 282 282 281 281 280 279 279 278 277 275
297 294 294 292 288 289 286 284 286 285 283 287 287 287 289 287 292 291 288 285 286 280 285 283 276 276 278 279 279 279 280 280 279 280 279 279 279 279 279 278 276 275 275 274
294 288 283 285 280 277 278 277 280 281 283 284 287 285 289 290 292 288 287 282 279 285 279 275 274 276 278 278 279 278 279 279 278 277 278 277 277 277 277 275 275 275 274 274
283 280 274 277 274 276 276 278 279 281 282 283 286 287 286 287 283 282 280 279 282 276 273 271 275 275 276 277 277 277 275 275 275 275 275 274 274 274 274 273 273 272 271 272
278 279 272 274 276 278 278 279 280 280 280 283 286 285 286 281 279 280 279 275 272 272 272 274 275 276 276 276 276 276 275 274 274 274 273 273 273 272 272 272 273 272 271 271
277 275 275 277 278 276 277 277 279 280 280 286 286 281 278 275 276 273 271 271 270 271 274 275 276 274 275 275 275 275 276 275 275 274 274 273 272 272 271 272 271 271 271 269
275 273 276 275 276 274 275 275 277 280 282 280 281 275 273 278 273 269 272 270 272 273 273 274 274 274 274 274 274 274 274 274 274 274 273 273 273 273 272 270 270 271 270 269

GFSNW_sfc_thetae_081.txt.gz
Theta_e
300 300 301 301 301 302 299 296 287 305 309 290 290 287 290 293 292 294 293 294 292 291 291 289 289 290 292 297 296 293 297 293 288 292 298 300 299 296 296 290 290 294 293 292
300 300 300 301 301 301 298 291 291 305 303 285 287 290 290 292 291 291 291 290 293 294 291 287 290 291 296 296 294 292 294 292 285 288 294 298 295 297 298 298 297 291 289 294
300 300 300 300 301 301 300 293 286 293 296 293 289 287 288 287 294 293 293 292 294 292 290 292 289 290 294 295 295 297 298 293 291 287 290 295 293 296 297 296 292 292 292 295
300 299 300 300 300 301 299 292 287 292 286 289 290 290 289 287 287 292 293 290 291 290 287 289 289 291 293 293 295 295 295 289 293 294 296 295 295 295 296 295 296 292 295 296
301 300 300 301 301 301 296 286 288 293 290 291 289 289 287 288 289 290 289 289 291 292 289 289 288 291 291 290 292 292 295 288 291 289 293 294 292 294 295 295 296 296 296 296
301 301 301 301 301 300 293 296 297 293 289 289 288 288 288 288 291 292 293 292 291 290 292 294 295 296 295 294 292 291 291 290 288 285 291 292 288 293 294 295 297 296 293 298
302 302 301 301 301 301 297 296 294 288 284 287 287 289 291 290 291 291 293 294 291 294 300 298 297 295 294 294 294 295 290 289 290 287 289 281 292 298 298 297 298 300 301 301
303 302 302 301 301 301 299 299 295 290 285 288 288 289 289 290 292 292 293 294 295 298 296 290 286 288 288 290 294 294 295 291 287 284 284 288 291 295 294 294 295 302 300 302
302 302 302 302 301 301 301 299 301 294 287 287 290 288 290 287 289 291 293 297 300 297 292 288 282 282 286 286 288 295 294 294 289 287 282 279 290 298 301 300 290 302 301 301
303 303 303 302 302 301 300 297 302 296 287 292 292 288 289 293 292 290 293 293 292 294 288 284 283 284 290 284 285 286 287 288 285 285 284 288 297 299 301 288 291 300 301 302
303 303 303 303 302 302 298 296 302 297 291 292 295 295 293 292 293 288 293 290 290 287 287 286 287 287 288 287 290 289 287 285 285 286 283 281 298 298 293 299 301 303 303 303
303 303 303 303 303 302 301 292 302 302 294 293 299 299 300 299 298 294 294 292 292 293 289 290 291 288 291 289 284 295 286 291 289 289 290 299 303 299 303 304 302 303 303 303
302 302 303 303 303 302 301 294 299 297 292 291 294 293 301 303 303 304 292 294 296 296 299 294 292 288 292 286 288 290 294 296 293 292 297 298 299 301 303 303 303 303 303 303
302 302 302 303 303 302 302 294 299 296 291 285 291 299 295 302 303 303 301 298 299 299 298 294 293 290 295 291 291 291 294 296 293 293 295 298 300 301 301 301 302 302 302 302
302 302 302 303 303 302 301 298 299 302 294 289 289 297 299 300 301 300 300 298 295 295 291 292 291 295 294 295 294 292 296 294 292 291 296 297 298 299 300 299 298 299 299 298
302 302 302 303 302 301 296 289 297 304 302 293 287 297 297 298 299 298 297 297 296 295 290 290 296 298 296 290 288 292 295 295 295 291 294 296 298 296 295 294 296 296 296 295
301 301 301 301 301 299 292 292 297 302 304 292 288 290 296 298 298 297 296 298 294 293 292 292 295 295 296 293 288 288 290 292 293 293 293 293 294 290 291 291 291 292 289 288
301 300 300 301 301 299 297 300 300 302 295 294 287 289 291 298 292 290 296 291 292 292 290 294 293 295 294 287 285 286 287 290 290 289 290 290 291 291 291 291 290 288 285 284
300 299 300 298 296 293 295 301 301 304 296 289 289 287 285 296 293 292 292 291 286 292 288 291 295 292 283 281 282 283 284 284 285 288 290 289 288 288 288 288 287 286 284 284
299 298 292 286 296 300 300 295 291 292 295 295 289 294 287 293 292 290 289 291 289 285 288 295 289 280 281 282 283 284 284 285 285 283 284 284 284 284 284 283 283 282 281 281
297 292 289 295 300 297 294 288 288 289 286 292 291 291 289 293 287 287 293 288 289 284 286 286 285 279 279 282 282 283 284 284 284 283 283 282 282 281 282 281 281 279 279 277
298 294 295 295 292 291 287 285 287 287 284 288 288 289 290 290 291 290 288 286 287 282 288 285 279 277 280 281 281 281 281 281 281 281 280 280 280 281 280 279 278 277 277 276
296 291 285 287 285 281 283 279 282 283 286 287 287 286 289 290 291 290 289 284 282 287 283 277 276 278 278 279 280 279 279 279 279 279 279 278 278 278 278 277 277 277 276 276
286 284 276 281 279 279 280 281 281 283 285 286 287 288 288 289 287 286 282 281 284 279 278 274 276 276 277 278 278 277 276 276 276 276 276 275 275 274 275 274 275 274 273 273
282 283 276 276 279 280 280 282 284 283 286 285 288 288 288 284 282 283 281 278 275 276 275 276 277 277 277 277 277 277 276 276 275 275 274 274 273 273 272 273 273 273 272 272
281 279 278 281 281 280 281 282 282 283 284 287 290 285 282 278 280 277 275 276 274 274 275 277 278 276 276 275 276 276 276 276 276 275 275 274 273 272 272 272 272 271 271 270
278 276 279 280 279 278 279 281 281 284 285 282 285 279 275 282 277 273 275 273 274 275 275 276 276 275 275 275 275 275 276 275 275 275 275 274 274 274 272 270 271 271 271 270

GFSNW_sfc_thetae_084.txt.gz
Theta_e
300 300 300 301 301 301 299 295 285 303 308 290 289 285 289 292 292 295 292 292 291 290 291 290 291 291 292 296 295 292 297 293 285 288 296 299 298 295 293 288 289 291 290 290
300 300 300 300 301 301 298 290 290 301 304 284 285 289 289 291 290 291 291 289 292 293 291 287 291 292 297 296 294 290 292 290 284 286 292 296 293 296 296 295 294 289 287 291
300 300 300 300 301 301 297 291 285 291 296 294 289 287 287 287 293 291 293 291 293 291 289 292 289 291 294 296 294 296 296 291 289 284 288 293 290 293 296 295 289 290 290 293
301 301 300 300 300 301 296 289 287 291 285 287 288 289 289 287 286 292 292 290 290 289 286 288 288 291 292 295 294 294 293 287 290 291 293 293 294 293 294 293 294 290 293 294
301 301 301 301 301 301 293 286 286 290 289 291 288 288 287 286 289 290 289 288 290 290 287 288 287 290 291 291 294 292 294 287 289 287 293 292 290 293 293 295 295 296 296 295
301 301 301 301 301 300 292 294 296 291 288 287 287 287 288 288 290 292 292 292 290 289 291 294 295 296 295 295 292 291 290 288 287 283 290 291 287 292 293 294 296 295 291 297
302 302 301 301 301 300 296 294 294 288 283 285 286 288 290 289 290 288 292 294 291 294 299 299 297 296 294 294 293 294 289 288 288 284 287 280 291 298 298 295 297 298 298 300
303 302 302 301 301 301 297 297 295 289 283 286 286 287 289 290 293 291 292 293 297 300 296 290 286 287 288 290 292 292 294 290 286 283 283 287 290 294 293 292 292 300 300 300
302 302 302 302 302 301 299 298 300 294 286 285 289 287 289 287 288 288 293 298 300 298 291 287 281 280 285 285 288 294 293 294 288 286 280 278 289 295 300 299 288 300 300 299
302 302 302 302 302 302 299 297 301 295 287 290 291 287 287 292 290 288 291 293 293 295 288 284 282 282 289 283 284 285 286 288 284 284 283 287 294 298 300 287 290 301 301 301
302 302 303 303 302 302 299 296 301 294 289 290 293 294 291 292 291 287 292 288 291 288 284 285 285 285 288 288 289 288 286 284 283 285 282 280 298 297 292 298 302 301 301 301
302 303 303 303 303 302 301 293 299 300 292 291 297 298 299 296 296 291 292 290 291 291 288 289 289 287 291 288 283 294 286 289 287 288 287 297 302 301 302 303 301 301 300 301
302 303 303 303 303 303 301 295 296 296 291 291 292 291 298 301 301 303 291 293 296 294 298 293 292 287 291 286 287 290 294 296 290 291 295 297 299 300 301 302 300 301 301 300
302 302 302 303 303 303 302 294 297 295 291 285 288 298 295 300 303 301 301 298 299 298 296 291 291 289 295 290 291 291 293 294 292 293 295 297 296 298 299 299 299 298 300 299
302 302 302 303 303 303 302 297 298 298 293 286 288 295 298 300 300 299 300 298 296 293 289 288 289 294 294 294 294 291 295 291 291 289 293 293 292 296 298 297 296 296 296 295
301 302 302 302 303 303 293 286 297 300 300 291 286 297 295 299 298 297 297 298 296 293 290 290 294 297 295 289 287 290 293 294 292 289 293 296 295 293 294 293 293 293 292 290
301 302 302 302 301 296 292 292 296 300 300 290 286 289 295 298 297 297 297 298 295 293 290 291 293 294 295 291 286 287 289 292 291 291 292 291 291 289 292 292 292 293 290 288
301 301 302 302 299 299 296 301 301 302 295 293 285 286 291 298 291 290 297 292 292 291 290 293 291 294 293 284 285 286 286 289 288 288 291 291 291 291 290 291 290 289 286 285
301 301 300 297 295 292 296 301 301 304 296 287 288 285 284 296 292 291 291 291 285 291 287 289 293 288 279 281 282 283 284 284 284 287 290 287 287 286 286 286 284 283 282 282
299 298 292 286 295 300 300 294 289 291 293 293 288 294 287 293 291 290 288 290 287 284 288 294 288 278 282 283 283 283 284 284 285 282 281 282 281 282 283 282 281 281 279 279
297 292 289 296 301 297 292 286 287 289 287 291 292 292 288 294 288 288 292 287 288 283 286 286 284 277 279 282 282 282 283 283 283 282 282 281 281 281 281 280 279 278 277 276
296 294 296 296 292 290 286 285 288 287 284 289 289 289 291 291 292 290 288 285 287 281 289 285 276 277 279 280 280 280 280 280 280 280 279 279 279 280 279 278 277 276 276 275
298 292 287 288 286 283 283 279 283 283 286 287 288 285 289 289 291 286 286 284 283 288 284 275 275 277 278 278 279 278 278 278 278 277 277 277 276 277 276 275 275 275 274 274
287 285 278 281 279 279 279 281 282 283 285 286 288 288 287 288 286 286 282 283 285 280 278 272 274 276 277 278 278 277 275 276 275 274 274 273 273 273 273 273 273 272 271 272
283 284 277 277 280 282 283 285 284 284 287 288 288 289 288 285 282 284 282 279 276 276 273 274 276 277 276 276 276 276 275 275 274 274 273 272 272 272 271 272 272 272 271 270
281 280 280 282 282 281 282 283 282 285 286 289 290 285 282 279 281 279 276 277 273 273 275 276 276 275 275 275 276 276 276 276 275 274 273 273 272 271 271 271 271 271 270 269
279 277 281 282 280 279 280 282 282 286 286 283 285 279 277 283 277 273 274 272 273 275 275 276 276 275 275 276 276 276 276 275 275 274 274 274 274 273 272 270 271 271 271 270

GFSNW_sfc_thetae_087.txt.gz
Theta_e
301 301 300 300 301 301 297 292 280 296 300 286 288 284 288 292 290 292 291 291 289 287 288 288 288 290 292 294 293 288 292 290 284 286 294 296 295 291 293 287 285 290 289 288
301 301 300 300 300 300 292 288 285 295 298 279 284 287 288 290 289 289 289 289 291 291 287 285 289 292 296 295 293 289 290 289 283 285 289 294 291 294 294 294 292 288 284 289
301 301 301 300 300 300 294 286 278 284 290 288 286 284 285 285 291 290 290 289 291 289 286 290 288 290 295 295 293 296 294 288 286 282 287 289 289 292 294 293 287 287 290 292
302 301 301 300 300 300 294 287 284 286 274 284 286 287 288 286 285 290 291 288 288 287 284 286 285 289 291 295 296 293 291 285 288 289 291 291 289 290 292 291 292 288 292 292
301 301 301 301 301 300 290 284 283 286 284 287 286 287 284 285 286 288 287 287 289 288 285 286 284 289 290 289 293 290 291 285 287 285 290 291 290 292 292 291 293 294 294 293
302 301 301 301 301 299 290 291 289 286 284 283 283 282 286 286 288 289 290 290 288 288 289 293 292 292 292 292 290 288 288 287 285 282 288 287 285 291 292 293 295 294 290 295
302 302 302 302 301 299 290 289 288 284 276 281 282 286 287 287 288 287 290 292 289 293 296 296 295 294 293 292 291 292 287 286 287 280 283 277 291 297 297 294 296 298 298 298
302 302 302 302 301 301 293 291 288 284 276 283 284 285 286 287 290 288 290 292 295 297 293 286 283 283 284 287 290 289 290 287 280 279 280 285 288 292 292 291 293 299 297 299
302 302 302 302 302 302 296 293 293 288 282 281 287 284 287 283 284 286 289 295 297 296 287 283 278 276 282 282 286 291 290 289 284 280 279 275 287 295 299 299 288 299 299 298
302 302 302 302 302 302 298 293 295 290 283 287 287 284 284 288 287 285 287 290 290 293 284 278 277 278 286 280 282 282 283 283 281 280 279 284 293 297 300 286 287 298 298 298
303 303 303 303 302 302 299 295 296 292 286 287 290 291 287 289 288 281 288 285 288 286 280 280 280 278 283 284 287 286 283 281 280 281 278 277 297 297 291 295 299 298 297 297
302 303 303 303 303 303 301 293 297 297 289 288 293 293 294 293 294 291 290 289 288 289 283 283 283 280 284 285 281 292 282 287 283 284 284 294 298 297 299 300 297 297 296 297
302 302 303 303 303 303 302 295 295 294 290 288 287 287 293 296 295 298 289 291 294 292 295 290 288 282 288 282 284 288 290 295 288 288 293 293 294 297 298 297 296 297 296 296
302 302 302 302 303 303 303 295 296 293 290 282 285 295 290 294 294 295 296 296 297 296 294 288 286 285 292 286 289 287 292 293 291 291 292 293 294 295 297 296 296 295 296 294
302 302 302 302 303 303 302 297 297 296 289 283 285 291 293 294 293 292 296 295 292 290 289 286 285 290 290 291 291 288 290 287 287 284 289 291 290 292 294 292 292 291 289 288
301 302 302 302 302 303 291 285 296 297 296 288 281 293 293 293 293 292 292 294 292 291 289 287 290 295 292 286 284 287 289 289 289 286 291 292 291 291 292 290 291 289 287 285
301 301 302 302 302 295 291 288 293 299 297 288 284 283 292 294 292 290 291 293 294 290 290 289 289 291 293 286 281 284 286 287 287 289 292 288 289 287 290 289 290 289 286 285
301 301 302 301 300 299 294 298 299 299 293 291 282 282 287 293 288 287 294 291 292 291 289 290 289 290 289 280 282 283 284 286 285 287 287 286 287 287 286 285 285 283 282 281
302 301 300 297 294 290 294 300 300 299 293 284 283 279 281 293 289 290 290 291 284 290 286 287 289 282 276 280 280 280 282 281 282 284 283 283 282 283 283 282 281 280 279 279
299 297 291 285 294 300 300 294 290 290 291 290 285 289 285 291 287 287 286 286 285 282 284 291 280 275 280 281 281 281 281 281 281 278 277 279 279 280 279 278 278 277 276 276
296 288 288 296 301 295 291 284 284 285 283 286 287 288 286 292 285 285 285 283 285 279 283 284 279 274 278 280 279 280 280 280 279 279 279 278 279 278 277 276 276 275 274 273
295 294 297 296 292 289 285 281 285 283 281 286 286 287 290 287 290 286 286 282 283 279 287 282 272 275 277 278 277 277 278 277 277 277 276 276 276 277 276 275 274 273 273 273
295 291 287 287 284 280 275 275 279 279 282 284 286 285 286 287 289 285 284 281 280 282 278 270 272 275 277 276 276 276 276 276 275 274 275 274 274 274 274 272 272 272 271 271
285 281 272 278 276 277 278 279 280 282 284 286 285 285 285 286 283 284 277 280 281 279 270 266 272 274 275 275 276 274 272 272 271 271 270 270 270 269 269 270 270 269 269 270
280 280 273 274 278 280 281 283 283 283 286 286 285 282 283 282 277 282 278 278 272 271 265 270 272 273 273 274 275 270 270 269 270 268 268 266 266 267 268 268 269 269 269 269
279 278 278 280 277 277 279 281 281 284 284 286 283 279 278 276 279 277 271 273 265 267 271 273 272 271 272 272 273 273 273 272 271 270 270 269 268 267 268 268 268 267 267 266
278 275 277 277 275 277 276 277 278 283 282 278 282 277 274 280 273 268 270 266 269 272 273 274 273 273 272 271 273 273 272 269 269 269 269 268 270 270 270 268 267 269 268 267

GFSNW_sfc_thetae_090.txt.gz
Theta_e
301 301 301 301 301 300 296 291 280 292 298 281 282 280 287 291 290 292 290 290 289 287 287 286 287 289 292 293 292 287 289 287 280 284 291 297 294 291 290 287 284 288 288 287
301 301 301 301 300 299 292 287 284 292 296 276 280 286 287 289 288 288 288 287 289 289 286 283 289 291 295 294 290 287 288 286 281 283 289 294 290 292 292 292 291 286 284 287
302 302 302 301 300 300 292 285 278 282 287 287 284 283 284 284 291 289 290 289 289 287 285 288 286 289 294 294 292 296 293 286 285 281 285 289 287 288 291 291 286 285 288 291
301 302 302 301 300 300 290 285 276 286 281 283 282 284 286 284 284 290 291 287 288 286 282 284 283 288 290 293 296 291 289 282 287 288 289 291 290 289 290 289 290 288 290 291
301 302 302 301 301 300 288 282 282 285 282 286 284 285 284 284 285 287 286 286 288 288 285 285 282 287 287 287 291 289 290 282 285 284 289 288 286 291 291 291 292 293 293 293
301 302 302 301 301 297 289 286 286 283 282 282 280 283 285 285 288 289 290 289 287 287 289 290 291 292 291 290 288 286 287 285 283 280 287 285 282 289 291 291 294 291 287 294
301 302 302 302 301 299 288 287 285 279 274 279 281 283 285 285 286 286 289 291 288 293 296 294 293 292 291 291 290 291 285 284 283 279 282 274 287 293 295 293 296 296 297 299
301 302 302 302 302 301 289 288 286 282 273 281 282 283 284 285 286 287 288 291 294 295 292 285 283 282 283 286 289 288 289 284 278 277 278 283 286 290 292 291 292 298 297 299
301 302 302 302 302 301 296 292 290 286 282 278 285 283 284 281 281 283 288 293 294 293 287 282 279 276 281 281 284 289 288 287 281 278 277 273 285 294 298 298 287 298 298 297
302 302 302 302 302 302 298 294 294 287 280 283 285 282 283 287 285 282 285 287 288 290 281 277 278 278 285 278 280 282 282 281 279 279 277 282 292 296 299 285 287 297 297 297
302 302 303 302 303 302 299 295 296 289 282 285 287 289 285 288 289 283 286 282 287 285 281 280 279 276 282 282 285 284 282 281 279 279 279 276 295 297 289 293 296 296 296 296
302 302 302 303 303 302 302 293 296 295 287 286 291 291 291 291 292 288 289 288 288 288 285 283 282 277 278 282 278 291 283 286 282 283 282 293 295 294 296 297 295 295 294 295
302 302 302 303 303 303 302 296 295 293 288 286 286 285 291 294 294 296 284 289 293 291 293 288 287 282 285 278 281 286 288 291 288 288 291 291 294 295 295 296 294 293 292 292
302 302 302 302 303 303 302 296 296 293 290 281 284 293 289 294 293 294 293 294 296 295 292 288 285 282 290 287 288 286 289 291 287 289 291 291 292 293 294 293 292 290 289 287
302 302 302 302 303 303 302 299 297 296 289 280 283 290 292 293 291 290 291 292 291 288 287 284 284 287 289 289 289 284 286 284 284 282 287 289 288 290 292 290 288 287 286 284
301 301 302 302 302 302 292 285 296 297 297 288 282 289 291 291 290 288 288 294 290 289 287 286 289 293 288 284 282 285 287 287 287 286 288 288 289 289 289 289 287 285 283 282
301 301 301 302 302 296 291 288 292 298 297 287 282 282 290 291 290 288 288 290 290 291 289 287 289 289 290 283 277 282 286 285 286 285 290 285 285 283 286 287 286 285 282 281
301 301 301 301 301 299 295 298 299 298 290 290 279 278 284 291 286 285 289 286 288 291 289 290 288 290 286 275 280 281 283 284 283 283 284 284 285 284 283 284 284 281 280 279
302 302 302 298 294 291 294 300 299 298 292 284 282 274 276 291 286 289 290 291 284 290 285 285 288 279 275 278 278 278 279 279 280 281 281 281 281 281 280 279 279 278 277 278
300 296 289 285 293 300 299 294 289 289 291 287 283 284 282 288 287 286 285 286 285 281 284 287 278 275 278 278 278 279 278 279 279 278 276 278 278 278 277 276 276 276 275 275
294 289 288 296 300 294 289 284 283 285 282 284 284 286 285 289 285 284 283 284 285 280 283 283 276 273 275 277 276 278 278 277 277 277 276 277 277 276 275 275 274 274 273 272
295 294 296 295 291 288 283 281 282 281 279 284 282 287 289 287 290 286 286 282 284 278 286 276 268 273 276 276 275 275 276 276 275 275 274 275 275 275 274 274 273 272 271 270
294 290 286 286 281 279 271 275 279 281 284 286 287 284 286 286 289 284 283 279 276 285 273 269 270 274 275 275 275 274 275 274 273 273 274 273 273 274 273 272 271 271 269 269
285 279 268 272 266 271 271 278 279 282 285 286 282 285 285 285 282 283 279 278 280 276 263 264 270 273 274 274 274 273 271 270 269 268 269 268 268 267 267 267 267 267 267 266
279 277 268 269 275 277 281 282 282 283 286 286 284 282 282 279 276 280 278 277 263 266 264 268 270 271 273 273 272 269 268 266 267 264 265 263 263 265 266 267 267 266 266 266
278 277 275 277 273 273 278 280 279 284 284 286 282 277 274 273 276 271 268 269 263 264 264 269 270 269 269 269 271 269 268 267 266 266 266 265 263 262 263 263 264 262 264 263
276 273 274 272 271 272 277 278 279 283 281 273 276 270 270 276 268 265 268 262 265 270 271 271 268 267 266 267 268 267 267 266 265 264 265 263 264 265 267 265 263 266 266 265

GFSNW_sfc_thetae_093.txt.gz
Theta_e
301 301 302 302 301 300 295 289 280 290 298 278 281 274 283 289 289 291 288 289 287 285 287 286 289 288 291 293 292 287 289 287 280 283 289 295 292 290 291 284 284 286 287 284
301 301 302 302 301 299 289 285 285 291 293 278 271 281 285 287 287 287 286 286 289 289 286 283 290 290 294 294 291 288 289 285 279 281 287 291 289 291 290 290 289 284 282 284
301 302 302 302 301 300 290 285 275 281 286 287 282 279 281 282 290 288 289 287 290 287 285 287 286 289 293 294 292 296 292 285 283 278 282 288 286 289 291 289 285 286 287 289
301 301 302 301 301 300 289 285 277 283 277 282 281 283 284 283 283 289 291 288 287 286 281 283 282 287 289 292 295 290 288 281 284 286 288 288 288 289 290 288 289 286 288 290
301 301 302 302 301 300 287 281 281 284 283 285 285 284 283 283 285 286 285 285 287 287 284 285 282 286 286 286 290 288 288 281 282 281 286 287 285 286 286 290 291 290 291 290
301 301 302 302 301 296 284 285 284 282 280 281 281 282 282 283 285 288 289 288 286 285 287 289 290 290 290 289 288 285 286 283 281 278 283 283 279 286 287 291 292 292 288 294
300 301 301 302 302 297 287 285 283 277 273 279 280 282 283 284 285 284 288 289 287 291 295 293 291 290 290 289 289 290 285 283 282 278 280 272 284 290 295 292 293 295 295 297
300 301 301 301 302 301 289 289 284 281 274 280 281 282 283 284 286 286 288 291 293 294 291 284 282 282 282 285 288 287 288 283 278 276 276 280 284 289 289 288 290 298 297 298
300 301 301 302 302 302 295 290 289 284 278 277 284 281 283 280 281 282 287 292 293 292 285 281 278 276 280 280 283 288 286 285 280 277 275 271 283 292 296 296 286 297 299 298
301 301 301 302 302 302 298 293 292 287 279 282 283 281 281 285 284 282 284 288 288 290 281 280 278 278 284 278 280 281 280 280 278 278 277 280 289 293 297 283 284 295 297 298
301 301 302 302 303 303 299 295 294 289 279 283 286 286 283 285 286 282 285 281 285 285 278 279 279 277 281 281 283 281 280 277 277 279 278 274 292 293 287 292 294 295 294 295
300 301 302 302 303 303 301 293 295 295 288 284 289 289 290 289 289 285 286 285 286 288 284 283 283 277 277 280 277 288 279 284 282 281 280 292 294 292 294 294 290 290 292 293
301 302 302 303 303 303 301 296 294 292 288 286 284 284 289 292 291 293 282 286 290 288 291 286 286 282 283 276 277 284 289 289 285 287 291 291 292 293 292 292 290 288 288 288
302 302 302 302 303 303 302 296 296 293 289 280 282 292 287 291 291 292 292 290 294 294 291 287 284 281 287 284 287 284 285 287 284 286 288 290 290 291 290 288 289 287 285 284
302 302 302 302 302 303 302 298 296 296 289 281 282 290 291 291 291 291 292 291 290 288 287 285 280 285 286 287 286 281 286 282 280 280 284 287 286 289 290 287 284 284 283 281
301 301 302 302 302 302 295 285 296 297 296 288 281 289 288 288 289 288 287 288 290 291 288 286 288 291 288 283 279 282 285 286 284 284 287 286 286 287 287 285 284 283 281 280
301 301 301 302 302 297 292 288 292 298 296 287 282 282 287 290 288 286 286 289 289 290 287 287 287 288 290 281 277 280 284 284 283 284 287 284 283 282 285 285 283 282 280 278
300 301 301 301 302 299 293 298 299 298 291 290 280 277 281 290 283 285 286 284 287 287 286 288 287 287 284 276 278 279 281 282 282 282 283 283 283 282 281 281 281 279 278 277
301 301 301 300 295 290 294 300 299 298 292 283 282 275 272 290 286 287 285 286 282 286 285 285 286 278 271 276 277 277 278 278 278 280 280 280 279 277 277 277 277 276 276 276
301 297 288 284 293 300 298 292 288 286 289 287 281 280 279 288 285 285 283 286 283 281 285 284 277 271 276 277 277 277 277 277 277 277 275 277 277 276 275 275 275 275 274 274
294 286 286 295 299 293 289 282 283 284 282 285 283 284 283 289 283 283 286 283 284 279 283 280 273 272 274 276 276 276 276 276 276 276 276 277 276 275 274 274 274 273 272 271
294 294 296 294 289 286 282 281 282 281 278 283 284 286 289 285 287 285 285 280 283 278 284 276 267 273 275 275 274 275 275 275 274 275 275 275 275 274 274 272 271 270 270 269
293 289 285 285 281 277 277 275 277 279 284 286 286 284 286 286 287 284 283 279 278 281 270 266 269 274 275 275 274 273 274 273 273 272 273 273 271 273 273 271 270 269 268 267
282 278 267 270 265 270 270 275 276 279 285 286 284 284 285 284 280 282 275 276 278 268 263 265 270 272 273 274 274 271 269 269 268 267 267 267 267 266 265 264 262 262 262 261
277 276 265 267 273 273 280 282 283 284 286 285 283 281 282 278 276 277 276 271 265 265 263 264 270 272 272 271 271 268 267 264 265 263 264 260 261 263 263 262 262 262 260 260
276 274 273 275 272 276 278 279 281 284 285 284 281 277 275 273 273 270 266 270 265 263 264 269 271 271 271 271 271 268 266 264 263 262 263 263 261 261 261 262 262 260 260 260
275 271 274 270 270 275 277 278 279 282 280 274 276 271 273 274 267 265 266 262 264 268 269 265 265 266 265 264 266 265 265 264 262 262 263 261 262 263 266 265 265 266 265 261

GFSNW_sfc_thetae_096.txt.gz
Theta_e
301 301 301 302 302 300 293 288 278 289 297 283 278 272 281 286 285 290 287 287 287 284 285 287 287 287 290 292 291 287 289 285 280 283 289 293 291 288 289 284 282 286 285 283
300 301 301 302 301 299 288 282 282 289 294 276 278 280 281 285 285 285 286 284 287 287 284 283 287 288 293 294 290 288 289 285 280 282 287 290 289 291 291 289 288 282 279 282
300 301 301 301 300 300 288 284 275 278 288 287 282 280 279 279 288 287 288 286 287 286 284 287 284 286 292 294 291 296 292 285 282 278 281 286 284 288 290 290 283 284 285 286
300 300 301 302 300 300 288 284 277 282 275 281 280 283 281 280 281 289 289 286 286 286 282 284 283 287 288 291 293 290 288 281 284 285 286 287 286 286 288 287 288 284 285 287
299 300 301 301 301 299 285 276 279 284 281 282 280 282 280 281 283 286 285 284 286 288 285 284 282 285 286 286 289 287 288 281 282 281 285 286 283 285 284 285 286 287 289 289
299 300 301 301 301 295 283 283 284 282 279 279 279 280 281 281 284 286 288 287 287 284 287 288 288 289 289 288 286 284 285 283 281 278 282 282 277 281 288 289 291 290 286 292
299 300 300 301 301 295 287 285 283 277 273 278 279 280 282 282 283 283 288 290 286 290 293 291 290 288 288 288 288 289 284 283 282 278 280 270 280 287 292 289 293 294 293 294
298 300 300 300 301 300 290 288 286 281 275 280 280 281 281 283 283 284 286 290 292 292 289 283 281 281 282 284 287 286 287 283 278 275 276 279 282 288 288 287 288 297 296 297
298 299 300 300 301 301 295 291 292 287 278 276 282 280 281 278 280 281 284 290 292 290 283 280 277 275 280 280 282 287 285 284 280 277 274 269 280 290 294 294 283 294 298 297
298 299 300 301 301 302 298 294 294 289 280 282 282 280 282 285 282 281 283 285 288 287 279 278 277 278 283 278 279 280 280 280 278 277 277 280 287 291 294 281 283 293 296 298
298 299 300 301 301 302 299 294 294 290 279 281 285 285 281 282 284 281 283 280 284 283 279 278 279 277 280 281 282 281 280 278 276 279 277 274 291 291 284 289 289 291 292 292
298 299 300 301 302 302 301 293 295 295 288 283 288 288 289 288 288 283 283 284 287 287 284 283 283 280 279 280 277 286 278 284 283 282 281 291 292 291 291 290 287 287 289 289
298 299 301 301 302 303 301 295 294 292 287 287 284 285 288 290 289 291 281 284 288 288 291 285 285 281 284 276 277 284 287 288 285 284 289 289 290 290 290 289 287 286 287 286
298 300 301 302 302 303 302 294 295 292 289 280 282 290 286 290 290 289 288 287 290 293 291 286 284 280 285 283 285 283 284 285 281 285 286 288 287 288 288 287 287 283 282 282
299 300 302 302 302 302 301 298 296 296 290 279 281 287 290 290 288 288 290 289 287 287 287 283 280 282 285 286 285 280 284 281 278 279 283 285 284 287 287 284 282 282 281 279
299 301 302 302 302 302 294 286 295 297 296 288 280 287 287 287 287 287 287 288 289 290 285 285 287 290 288 282 274 282 283 284 283 281 286 285 285 285 285 282 281 280 278 277
299 300 301 301 301 298 292 288 292 299 296 287 281 280 286 287 286 284 285 286 288 286 288 284 284 285 289 280 272 279 283 283 282 283 285 283 281 279 281 282 281 280 277 277
300 301 301 301 301 299 294 297 299 299 291 289 280 276 280 288 282 281 285 284 284 286 286 286 284 287 283 276 277 279 279 281 280 280 282 282 280 279 278 278 279 277 276 275
300 301 301 299 295 288 294 300 299 298 291 284 282 273 271 288 285 287 285 284 278 283 284 283 286 279 271 275 277 276 277 276 276 279 279 279 277 276 275 275 275 275 274 275
300 298 289 283 287 300 297 291 286 287 287 288 280 278 281 287 285 284 284 283 276 279 281 283 278 269 276 276 276 276 276 276 276 276 275 276 276 275 274 273 274 273 273 272
292 285 286 293 299 291 287 282 282 283 282 285 283 284 282 288 280 282 283 281 283 278 280 281 274 271 274 276 275 275 275 275 275 276 276 276 275 274 273 272 272 271 271 269
291 293 295 294 289 285 282 280 282 281 278 282 283 284 287 285 288 285 284 280 282 277 282 275 266 271 274 274 274 274 274 274 274 274 274 274 274 273 272 271 269 269 269 267
294 290 284 285 281 278 274 274 277 272 282 284 286 284 286 285 286 284 283 279 277 280 272 268 269 273 274 274 273 273 273 273 273 272 272 271 270 271 271 269 268 267 265 264
283 280 274 275 267 272 271 274 276 281 285 286 286 285 284 284 282 282 277 276 278 272 264 265 269 272 273 274 273 271 269 268 268 267 267 266 266 264 264 262 260 261 260 257
277 277 267 271 272 275 280 283 284 284 287 285 282 280 281 276 275 273 275 272 267 267 265 264 269 270 271 270 270 267 266 262 263 262 262 259 260 262 261 261 259 260 257 258
276 274 273 275 276 277 279 281 281 284 285 284 280 276 273 271 273 271 269 271 266 264 262 268 271 270 268 267 268 264 263 262 261 260 261 261 259 260 259 259 259 256 257 256
274 270 273 266 267 275 277 278 279 282 282 277 275 271 272 275 269 266 266 262 262 266 267 264 264 266 265 263 264 263 263 262 260 261 262 260 261 262 264 262 260 262 260 257

GFSNW_sfc_thetae_099.txt.gz
Theta_e
299 301 301 302 302 299 293 287 277 290 296 281 281 277 280 285 283 286 284 287 285 283 285 286 287 286 289 294 292 288 291 287 283 285 292 295 292 290 289 284 282 285 284 284
299 300 301 301 300 297 289 282 282 291 294 275 278 282 281 283 281 284 284 284 286 285 284 283 289 289 294 294 291 290 292 286 282 283 288 292 290 291 291 289 288 283 281 285
299 300 301 301 300 299 290 282 275 280 288 286 281 280 280 280 287 285 288 286 287 286 285 288 285 286 291 295 293 296 295 287 284 280 283 288 285 288 290 289 283 285 285 287
298 299 300 301 301 299 289 285 277 282 275 280 281 282 282 281 282 287 288 285 286 285 283 284 284 287 289 292 293 292 290 283 286 286 287 288 287 286 287 285 287 284 287 287
297 299 300 301 301 298 286 278 279 283 281 282 280 281 280 279 281 284 284 284 286 287 284 285 283 286 286 287 291 289 290 283 285 283 286 287 284 286 285 286 287 287 288 287
297 299 300 301 301 296 285 285 286 283 280 280 279 279 280 281 283 284 287 287 287 286 287 289 290 291 290 290 288 287 287 285 282 278 284 283 279 283 285 289 292 292 288 293
297 298 300 300 301 296 289 286 285 280 275 279 279 280 282 281 283 281 287 290 287 291 293 293 291 290 289 290 290 290 286 285 284 280 281 272 282 289 290 288 291 295 296 297
297 298 300 300 300 298 291 289 287 283 276 280 280 281 281 283 283 284 286 289 291 293 290 285 282 283 284 285 288 288 289 286 281 278 278 281 284 289 288 287 286 294 295 296
297 298 299 300 300 301 294 292 293 288 281 279 282 282 282 280 281 283 285 290 293 291 286 283 278 276 280 280 283 288 287 287 283 280 275 272 282 289 294 293 284 292 294 296
297 297 299 299 300 301 297 293 294 289 282 284 284 282 282 286 283 282 285 286 288 290 283 281 279 279 283 278 279 281 282 282 280 280 278 281 288 291 294 280 282 291 291 292
296 297 298 299 301 301 298 294 295 290 283 283 285 286 283 283 285 281 285 283 286 286 282 281 281 280 282 282 284 283 281 280 280 281 278 275 291 291 285 288 289 289 289 288
296 297 298 299 300 301 301 292 295 296 288 286 289 290 290 289 290 287 285 285 285 287 282 282 283 281 283 281 279 287 282 285 282 283 283 290 291 289 289 289 286 287 288 288
296 297 298 299 300 301 301 294 294 291 287 288 286 287 291 291 291 293 284 286 289 288 291 285 284 281 285 279 281 284 286 287 284 284 285 285 288 288 288 287 284 283 285 285
295 297 298 299 301 302 302 294 294 293 289 282 284 291 289 292 292 291 291 290 292 293 291 286 284 281 287 283 285 283 283 285 280 283 284 286 285 286 285 284 285 282 281 281
296 297 298 301 302 302 301 296 295 296 290 281 283 289 292 291 290 290 291 290 289 288 287 286 283 285 285 288 285 281 284 280 279 278 282 283 282 285 284 282 280 280 280 278
295 297 299 301 302 302 296 286 295 297 297 288 280 289 289 288 288 288 288 289 289 289 288 287 289 290 287 283 280 282 284 284 283 281 285 283 283 284 284 281 280 279 278 278
296 297 299 301 301 298 292 289 293 298 297 286 282 282 287 288 287 286 287 289 290 291 288 285 287 288 288 283 278 281 283 283 282 283 285 281 280 278 281 281 279 279 277 277
296 298 299 300 301 299 294 297 299 298 290 289 282 279 283 289 284 283 287 285 287 288 286 287 286 287 285 279 278 279 280 281 280 281 282 280 279 278 278 279 279 277 276 275
297 299 300 298 295 292 294 300 300 297 291 285 283 277 276 289 286 287 287 286 280 286 284 285 287 282 278 278 278 277 277 276 276 279 280 279 277 276 276 276 276 275 274 274
298 296 291 284 288 300 298 292 287 287 288 287 281 281 282 288 286 284 284 283 281 279 282 285 282 276 276 277 277 277 276 276 277 278 275 276 276 275 274 273 274 273 273 272
293 285 285 292 298 292 287 282 282 284 281 285 283 283 283 289 283 282 285 282 283 277 281 280 277 275 275 276 275 276 276 276 276 276 276 276 276 274 273 272 272 271 271 269
290 292 295 293 288 285 282 280 282 280 279 284 282 283 286 287 289 284 284 281 282 277 284 278 272 273 275 275 274 275 275 275 275 275 274 275 274 273 272 271 270 269 269 267
295 290 285 285 282 278 277 274 276 277 280 283 285 283 285 286 287 285 283 278 279 282 278 275 272 274 275 274 274 273 274 274 273 272 273 272 271 272 271 269 269 268 266 266
285 282 276 278 275 275 274 277 277 280 282 285 286 285 284 284 282 284 280 280 280 275 272 272 272 273 274 274 274 272 270 269 269 268 268 268 267 265 264 263 264 263 262 261
279 278 271 269 274 274 281 284 285 285 288 285 284 283 283 281 280 278 277 275 274 275 274 270 272 273 273 271 270 269 268 266 266 266 265 263 264 264 263 263 264 264 262 262
277 274 272 276 277 278 280 283 282 285 285 285 284 279 278 276 277 276 275 275 274 272 269 271 273 271 270 270 269 267 267 267 266 266 266 265 264 265 265 264 264 262 263 262
274 270 273 270 274 277 277 279 280 283 285 278 278 274 275 277 272 272 272 273 270 269 270 271 271 270 268 267 267 266 266 266 266 266 266 265 265 265 267 266 266 266 265 263

GFSNW_sfc_thetae_105.txt.gz
Theta_e
299 300 300 301 302 300 297 298 291 301 304 292 292 286 287 290 289 291 289 288 285 284 285 284 285 287 291 296 296 291 295 292 286 289 296 298 296 293 294 288 286 290 289 290
299 300 300 301 301 300 301 295 294 302 302 286 287 289 287 289 288 288 288 286 288 289 284 281 284 291 297 297 296 293 295 290 284 286 292 296 293 294 295 294 293 288 286 290
299 299 299 301 301 300 299 296 289 294 297 294 288 286 286 286 291 290 290 288 289 288 286 286 284 289 294 298 297 298 298 292 288 284 287 293 290 292 294 293 289 288 289 291
298 298 299 300 301 301 299 296 289 290 288 289 288 288 288 285 284 289 291 289 288 287 283 283 285 288 292 295 296 296 295 287 290 291 293 293 292 291 292 290 290 286 290 292
296 297 299 300 301 300 298 287 291 292 291 288 288 287 286 284 286 286 286 287 289 289 286 286 284 288 289 288 293 293 294 286 289 286 290 291 289 289 288 288 289 291 292 292
297 297 299 299 301 300 296 299 297 293 288 286 287 286 285 285 288 290 290 290 289 287 289 293 293 295 295 293 290 289 288 287 286 281 287 286 283 287 289 290 293 293 289 293
297 297 298 299 301 300 298 299 297 293 287 287 286 286 287 286 287 286 290 291 289 293 297 298 297 295 294 294 293 295 288 287 287 282 284 277 288 294 293 293 292 292 291 292
297 297 298 299 300 302 299 301 295 292 286 289 286 287 287 290 290 290 290 292 294 299 297 289 286 287 287 289 292 292 294 290 286 283 282 285 288 291 291 290 287 292 291 291
297 297 298 298 300 301 300 302 300 294 288 288 288 288 288 287 288 289 291 296 299 298 294 289 282 280 284 283 287 293 291 292 289 286 279 278 286 293 296 296 284 291 292 289
297 297 297 298 299 300 299 296 299 297 290 293 291 289 288 291 289 288 291 292 293 297 291 286 284 283 287 282 283 284 287 288 285 285 284 285 286 291 295 284 281 289 290 290
297 297 297 298 299 299 301 299 302 296 292 293 294 294 291 291 291 287 291 291 292 290 286 285 284 285 287 286 288 286 286 284 285 286 283 279 286 292 285 285 287 288 288 289
298 297 297 297 298 299 301 295 300 298 295 294 299 299 299 297 296 292 293 289 290 291 287 286 286 286 289 286 283 291 284 286 284 283 281 285 286 285 287 289 287 287 288 289
298 297 296 296 298 299 299 296 297 294 289 292 294 295 300 302 301 301 291 294 294 293 296 289 288 285 290 283 285 287 289 292 286 284 284 285 287 288 288 288 287 287 288 288
297 296 295 296 297 299 299 295 297 294 292 287 292 300 297 301 300 300 299 297 298 297 295 290 288 287 292 287 288 287 289 289 284 284 285 286 286 286 287 286 287 288 288 287
297 295 296 297 298 299 301 301 299 298 293 288 292 298 299 300 299 297 298 296 294 293 290 290 289 291 290 293 291 285 289 284 284 282 285 285 284 286 287 286 285 286 286 286
296 295 295 297 297 299 296 286 297 299 298 289 288 297 296 298 298 296 295 296 294 293 290 291 293 294 291 286 285 286 287 287 287 284 286 286 286 286 286 284 284 285 284 284
296 295 296 297 298 298 293 292 297 299 298 289 287 290 293 296 296 297 295 295 294 294 291 291 291 293 292 289 285 285 286 285 286 287 287 284 286 283 285 285 285 284 284 284
295 295 296 297 299 299 294 303 301 300 293 291 286 288 290 295 290 289 294 290 291 292 291 293 290 292 290 283 286 286 285 286 285 286 286 285 284 284 283 285 284 283 281 281
295 295 297 297 294 289 295 300 300 301 295 287 287 286 284 295 291 292 292 291 286 294 288 287 291 287 284 285 286 286 286 285 285 285 284 283 282 281 281 282 281 280 279 279
295 295 290 285 291 300 299 293 289 290 289 291 286 293 286 291 289 288 288 291 286 284 286 291 286 286 286 287 288 287 285 285 285 283 282 282 280 280 279 279 279 279 278 277
293 287 288 296 300 295 291 285 285 286 283 288 290 292 288 295 287 287 291 287 288 281 286 284 283 283 282 285 284 285 284 284 284 285 283 283 282 281 279 278 278 277 276 274
292 294 296 293 290 289 285 285 287 285 284 290 286 290 292 292 295 289 289 285 286 279 290 284 281 280 282 282 282 283 283 283 282 282 281 280 280 280 279 277 276 275 274 272
294 290 288 286 286 282 281 279 282 284 290 289 290 287 291 292 293 289 286 281 282 291 283 282 282 281 282 281 282 281 281 281 280 280 280 279 278 278 277 275 275 274 272 271
287 284 282 282 281 285 287 287 290 293 292 291 290 287 288 288 286 288 282 287 287 281 280 281 281 280 280 281 280 279 277 277 277 277 276 274 273 271 271 271 271 270 269 268
285 285 282 283 289 289 289 291 293 294 295 294 289 288 288 286 284 285 285 281 280 282 283 282 282 280 279 278 278 276 274 274 274 274 272 271 271 271 270 271 271 270 269 269
284 282 282 284 286 284 286 286 287 295 295 295 292 287 284 283 286 282 281 281 281 284 284 282 281 279 279 277 276 275 275 275 274 273 273 272 271 272 272 272 271 270 270 269
281 281 284 285 288 287 287 290 289 295 293 287 289 284 283 288 283 282 287 285 283 283 281 282 281 279 277 276 275 274 274 275 275 275 274 273 274 273 273 273 272 273 272 270

GFSNW_sfc_thetae_108.txt.gz
Theta_e
300 300 300 301 302 302 299 299 291 301 306 292 293 286 288 291 290 293 291 290 287 285 285 284 283 285 289 295 296 290 294 291 286 288 295 297 294 292 292 286 285 289 286 285
299 300 300 301 302 301 300 295 294 302 303 287 287 289 289 291 290 290 289 288 289 289 285 282 284 287 297 298 296 293 294 288 283 284 290 294 291 293 295 293 291 288 286 286
299 300 299 300 301 302 299 295 289 294 296 294 289 287 287 287 292 291 291 290 291 289 286 287 284 287 295 297 296 297 299 291 287 283 286 292 289 292 294 292 287 287 287 289
299 299 299 300 301 301 299 297 290 291 288 289 288 289 289 286 285 290 291 289 289 287 283 284 285 289 292 295 297 296 293 287 287 289 293 293 291 291 292 290 290 286 289 288
298 298 298 299 301 301 298 286 292 291 289 289 288 288 286 285 286 288 287 287 288 288 285 286 285 288 289 289 294 292 293 285 289 284 291 291 287 289 289 291 292 292 292 288
297 297 298 299 300 301 297 298 297 293 289 288 287 287 286 286 289 290 291 290 288 287 288 293 295 296 295 293 292 290 289 288 286 281 287 287 282 288 290 290 290 290 286 289
297 297 298 299 300 301 300 298 297 291 286 287 287 287 288 288 289 287 291 292 289 292 298 299 297 296 294 294 293 294 288 287 287 281 284 277 287 295 293 289 289 291 290 290
298 297 298 298 300 300 300 300 296 292 287 289 287 287 288 290 292 290 291 292 294 298 296 290 286 287 288 289 292 292 293 290 286 282 281 285 288 290 288 288 284 289 289 290
298 297 298 298 299 300 301 301 301 296 288 288 290 288 290 287 287 289 292 295 299 297 293 290 282 279 283 283 287 293 293 294 289 286 280 278 283 287 293 293 280 288 289 288
298 298 298 298 299 300 301 300 303 295 289 293 292 288 288 291 289 288 291 291 292 296 290 286 283 283 288 282 283 284 287 287 285 285 282 282 284 289 293 282 279 288 288 288
298 298 298 298 299 300 301 300 302 296 292 293 295 295 290 291 291 286 290 290 290 289 285 284 284 284 286 286 287 286 283 283 282 284 281 277 286 288 282 284 288 288 288 288
299 298 298 298 298 299 300 296 302 301 294 294 298 299 299 297 296 292 292 289 290 291 287 287 286 284 289 286 282 290 282 286 282 281 280 285 287 285 288 289 286 287 287 288
299 298 297 297 297 298 300 296 298 297 290 291 294 295 300 302 301 302 290 294 295 292 295 291 289 284 288 283 284 287 289 291 285 284 284 284 286 287 287 288 287 288 288 288
298 298 297 296 297 297 299 296 297 295 291 286 292 300 297 302 301 300 300 297 297 296 295 291 288 286 292 287 288 287 288 289 285 283 285 285 285 286 287 286 288 287 288 287
297 297 296 296 297 298 299 300 299 299 292 287 291 298 300 301 299 297 298 296 294 292 290 290 287 291 290 291 291 286 289 285 283 281 286 285 284 286 287 286 285 286 285 285
297 296 296 296 297 298 298 287 299 300 299 288 286 297 297 298 298 296 296 296 294 293 290 290 292 295 291 286 284 286 287 287 287 284 287 286 286 286 287 285 284 285 284 284
297 296 295 296 297 299 292 291 296 301 300 288 286 289 295 297 296 296 295 295 293 293 291 290 290 291 292 289 284 285 285 286 286 288 287 284 286 284 286 286 286 286 284 283
296 295 295 296 297 297 294 300 300 300 294 291 285 288 290 296 290 289 294 291 292 292 291 292 289 292 291 284 287 287 286 286 285 286 286 285 286 285 284 285 285 283 281 281
295 295 296 296 293 290 294 301 300 301 295 287 286 284 284 295 292 293 292 293 286 293 289 289 290 287 284 287 287 286 286 286 285 285 285 284 283 282 282 282 282 280 278 278
295 295 290 285 290 300 299 294 289 290 291 291 287 292 287 292 290 288 287 290 286 284 287 292 286 286 288 289 290 289 288 287 288 284 282 283 281 280 279 279 279 278 277 276
293 287 287 296 300 294 289 285 285 286 284 288 290 291 289 295 287 287 291 287 288 281 285 285 283 283 284 287 286 287 286 286 286 285 284 284 283 280 279 278 278 277 275 273
293 293 295 294 290 287 285 284 286 285 283 289 287 290 293 294 296 290 290 285 286 279 290 284 280 280 285 285 284 284 284 284 283 283 281 281 280 280 279 277 275 274 273 272
295 289 285 286 286 282 280 279 282 284 291 291 292 288 292 293 294 290 287 281 282 290 283 281 281 282 283 283 283 282 282 282 281 280 280 279 278 278 277 275 274 273 270 270
286 285 281 282 281 283 286 287 288 294 293 293 293 289 288 291 287 286 281 286 287 280 278 281 282 282 282 282 281 279 278 278 278 276 275 273 272 270 270 270 270 268 267 266
284 285 280 283 289 290 289 293 294 295 296 293 289 288 289 285 283 284 284 281 279 281 282 282 282 282 280 279 278 276 275 275 275 274 271 270 270 270 270 270 271 270 267 267
285 284 282 286 287 285 286 288 289 297 295 294 292 286 283 282 284 281 280 281 280 284 282 282 282 280 280 278 277 275 276 276 275 273 272 272 271 271 272 272 271 268 269 267
283 282 286 284 285 287 287 288 292 298 293 286 289 283 282 288 283 281 286 285 283 282 282 283 281 280 278 277 275 275 276 275 275 275 274 273 275 273 272 271 271 271 271 269

GFSNW_sfc_thetae_114.txt.gz
Theta_e
300 301 301 301 302 301 297 291 284 295 298 283 282 277 285 291 289 291 288 288 286 282 283 282 281 283 287 293 294 289 292 285 280 287 293 296 291 289 288 278 280 285 283 278
300 301 301 301 302 301 294 289 287 294 295 277 276 284 287 289 287 287 286 285 288 286 282 275 279 285 292 294 292 291 293 286 281 283 287 292 289 291 292 290 287 284 280 279
300 300 301 301 302 302 293 287 280 285 288 285 283 282 284 284 289 288 288 287 285 282 276 281 278 283 290 293 293 298 296 287 283 278 283 287 286 289 291 289 283 281 281 281
299 300 300 300 301 302 293 284 281 286 277 281 282 283 285 283 282 287 287 283 284 281 273 278 277 285 288 292 294 292 290 283 285 288 288 288 285 288 288 287 286 281 281 280
299 299 299 300 301 301 291 280 284 284 282 287 282 283 283 282 283 283 282 282 285 283 280 281 280 284 286 285 290 288 291 284 285 283 287 286 283 285 286 287 286 284 282 280
299 299 299 300 301 299 290 290 289 285 285 282 279 280 282 283 285 287 287 286 284 282 284 288 289 289 289 290 288 287 286 285 283 279 285 285 278 282 283 284 285 286 281 283
299 298 299 300 300 300 293 291 289 283 278 281 281 286 285 285 286 284 288 287 284 288 292 292 292 290 291 291 292 293 287 285 285 280 283 273 281 287 286 283 285 285 285 283
298 298 299 299 300 300 295 293 289 284 277 284 286 286 286 286 286 285 287 288 289 291 289 285 283 283 284 288 291 290 291 288 282 280 279 281 281 282 281 282 280 286 283 285
299 299 299 299 300 300 294 293 293 287 281 281 289 284 285 280 280 282 286 290 290 289 285 281 278 278 281 282 285 291 290 289 284 282 276 272 278 283 286 287 276 286 285 283
299 299 299 299 300 301 295 292 293 288 280 286 287 283 282 286 283 281 283 285 286 287 278 278 277 278 286 280 280 281 281 282 278 280 277 278 281 285 289 277 277 286 285 283
299 299 299 300 300 301 295 292 294 289 282 285 291 292 285 286 284 277 283 281 283 281 278 278 278 279 283 282 285 283 281 279 276 279 275 272 284 284 280 283 286 286 286 285
299 299 299 300 300 300 298 290 296 294 286 285 291 292 293 292 290 285 285 287 286 284 278 282 281 280 281 281 275 287 278 281 278 279 277 284 285 285 286 286 284 283 283 286
299 299 299 299 299 300 298 294 291 288 283 284 286 289 294 296 294 293 284 286 290 286 288 285 284 281 283 279 282 282 286 288 279 279 283 283 284 285 286 285 285 283 282 283
299 299 299 299 299 300 297 289 291 289 289 278 288 298 293 297 296 294 292 291 291 288 286 283 285 281 286 282 285 280 283 285 281 281 283 283 284 285 285 283 283 282 282 282
299 298 298 298 299 299 295 292 292 292 287 283 284 290 297 297 295 293 292 291 287 284 282 279 280 283 284 284 285 279 283 281 281 278 284 283 283 285 285 281 280 281 280 279
298 298 297 297 298 297 290 281 290 293 291 286 278 289 292 295 293 292 290 290 287 285 283 281 284 289 283 278 278 283 285 286 286 283 286 285 285 284 283 280 280 280 279 279
298 298 297 296 297 291 287 283 295 297 295 287 280 283 291 294 293 292 287 288 286 285 283 282 282 284 285 273 274 283 285 286 286 286 285 283 284 280 284 281 280 280 278 277
297 297 296 297 298 294 287 296 300 299 291 289 280 278 283 290 283 282 286 284 284 284 283 283 282 284 282 275 282 284 285 286 285 284 286 284 282 281 281 280 279 276 275 275
297 296 297 291 289 285 288 299 300 298 291 283 283 276 272 288 288 284 286 286 279 284 280 282 282 278 278 281 282 282 284 283 283 284 284 280 278 277 277 277 276 274 273 273
297 291 287 283 289 297 299 293 289 288 289 288 284 281 280 285 281 279 283 283 277 275 280 283 277 279 284 287 286 284 284 284 284 280 278 277 276 276 275 274 274 273 272 272
287 285 285 292 296 292 288 283 283 284 281 284 285 282 278 286 277 277 281 276 277 273 278 276 273 278 279 282 281 281 281 282 280 281 281 279 277 275 274 273 273 273 272 270
288 290 294 294 289 285 282 279 282 280 278 280 278 281 285 281 286 280 281 277 276 274 279 276 269 275 280 280 279 279 279 279 278 278 278 277 276 275 274 273 272 271 270 267
291 288 285 284 283 278 276 275 279 272 277 279 279 278 286 284 282 276 280 276 270 278 277 272 274 279 280 279 279 277 277 276 275 275 276 275 274 275 274 271 270 269 266 263
280 280 276 277 276 277 275 277 277 280 279 282 280 278 284 283 278 278 271 275 279 276 271 272 273 279 279 279 277 276 273 273 273 271 270 269 268 266 265 263 262 261 258 256
280 281 272 277 278 279 283 285 282 280 283 283 280 279 279 276 280 282 277 278 276 274 271 273 277 277 276 274 274 271 269 268 267 266 265 263 263 264 260 258 259 259 256 256
281 280 275 281 282 283 284 283 285 281 281 279 281 277 274 278 278 278 277 276 270 272 273 271 275 275 274 272 272 270 269 267 266 265 265 265 263 264 263 259 259 257 258 257
279 278 282 282 281 283 284 285 285 287 282 274 278 272 274 278 276 277 281 271 272 280 277 273 274 273 271 270 270 269 268 266 266 265 266 265 265 264 266 264 262 263 264 259

GFSNW_sfc_thetae_117.txt.gz
Theta_e
301 301 301 302 302 302 296 292 284 294 296 283 280 278 285 290 288 290 287 286 285 280 280 282 281 281 286 292 292 288 292 286 280 284 291 295 291 286 286 278 279 284 279 276
301 301 302 302 302 301 293 288 287 293 294 278 277 284 287 288 286 286 285 283 285 284 276 275 278 283 291 292 290 288 292 286 279 282 288 292 288 290 289 288 287 280 277 277
300 301 301 302 302 301 294 288 280 285 289 285 283 282 283 283 288 286 287 285 284 280 275 281 277 281 289 291 291 296 294 287 283 278 282 287 286 289 290 287 280 279 278 278
301 301 301 301 302 301 293 286 281 286 278 281 282 284 284 281 280 285 285 281 282 279 272 276 276 281 286 289 292 290 291 283 284 284 285 285 285 289 287 285 284 279 279 277
300 300 301 301 301 300 291 284 284 283 283 286 283 283 282 281 281 282 280 281 284 282 280 280 278 282 284 283 288 287 290 284 285 282 284 283 280 283 284 283 282 281 280 277
300 300 300 301 301 298 290 290 289 285 283 281 280 280 282 282 284 286 286 284 282 281 283 286 287 287 287 288 286 285 285 284 283 280 285 284 276 280 281 282 284 285 278 279
299 299 300 300 301 299 293 290 288 283 279 281 281 285 284 284 285 283 286 285 283 287 290 290 289 288 288 289 289 289 286 285 284 280 283 272 280 285 285 282 283 284 282 281
299 299 300 300 301 300 294 292 288 284 279 283 285 285 284 284 285 284 285 286 288 289 287 284 282 282 283 287 289 288 289 286 283 279 277 279 280 281 281 281 279 284 283 283
299 299 299 300 301 301 295 292 291 287 282 282 288 283 284 280 280 281 284 289 289 287 283 280 278 277 281 280 283 289 288 287 284 282 276 272 278 282 286 286 275 285 283 281
300 299 299 300 301 301 295 292 292 288 282 286 286 282 282 284 282 280 282 284 285 285 277 277 277 278 285 277 279 280 281 281 278 279 276 277 280 283 288 277 276 286 283 281
299 299 300 300 301 301 295 292 294 289 282 285 289 290 285 284 282 277 282 279 282 279 276 277 277 277 281 282 283 282 279 278 276 278 274 272 283 283 279 282 284 285 285 283
299 299 300 301 301 301 297 290 295 292 286 284 289 291 292 291 289 284 286 286 284 283 277 281 279 278 280 280 275 286 277 280 278 278 276 282 284 283 285 285 281 280 283 284
299 300 300 300 301 300 297 291 290 288 283 284 286 288 293 294 292 292 283 285 288 285 286 283 281 278 282 277 278 282 284 286 279 279 282 282 283 284 283 282 280 281 282 281
299 299 300 301 300 299 296 290 290 288 285 282 287 294 291 295 294 292 291 289 289 287 285 281 280 279 285 281 282 279 281 284 278 279 282 283 284 283 282 281 281 280 281 279
299 298 299 299 300 299 294 291 291 291 285 279 283 291 295 295 294 292 291 290 286 283 281 279 279 282 283 283 283 280 283 281 279 276 282 282 282 283 282 279 279 279 278 277
299 298 298 299 299 296 289 282 289 292 289 281 277 287 290 294 292 290 289 288 285 283 282 281 282 286 282 277 277 283 285 286 287 284 286 285 285 282 281 278 278 278 278 277
298 298 297 297 297 291 286 284 294 295 290 283 275 283 291 294 292 291 286 286 284 283 282 281 281 283 283 272 275 283 285 285 285 286 285 282 283 278 280 279 278 278 276 276
298 297 297 297 297 293 288 295 299 296 288 286 278 279 283 289 282 281 285 283 283 283 281 282 282 282 281 275 281 284 285 285 285 285 285 281 281 279 278 278 277 275 274 274
297 297 296 291 288 284 289 298 299 295 288 283 275 276 273 286 285 283 283 283 274 282 279 280 281 277 274 282 282 281 284 284 283 282 281 280 278 276 276 276 275 274 273 273
297 290 285 281 286 296 297 291 288 286 289 288 282 280 282 284 280 278 278 279 276 275 279 282 276 277 281 284 286 285 283 283 282 278 276 277 276 275 275 275 274 273 272 272
287 284 285 290 297 292 288 283 282 283 282 284 283 281 277 284 277 277 279 276 276 275 277 276 273 277 276 281 281 282 283 283 282 280 279 279 278 275 274 273 273 273 272 270
287 290 294 293 289 285 281 278 282 281 278 279 279 280 283 280 284 279 280 276 275 273 278 276 270 272 277 278 279 279 279 279 279 279 278 277 276 275 274 273 271 270 270 266
292 289 285 283 283 276 273 271 277 277 276 277 278 277 286 282 280 275 279 271 270 276 278 270 273 275 278 278 278 278 277 277 276 276 276 276 274 274 273 271 269 268 266 262
280 276 276 277 275 274 275 276 277 279 277 279 279 283 281 280 277 275 270 273 278 273 270 271 272 277 277 278 279 276 274 273 274 273 272 270 269 266 264 263 262 262 260 255
279 281 275 277 277 278 283 283 284 284 279 280 279 278 279 274 276 279 273 272 272 272 270 272 271 276 276 275 274 271 270 268 268 266 266 263 263 263 259 256 257 258 255 254
281 278 275 280 281 281 282 284 285 284 279 279 280 276 272 272 274 276 274 273 268 271 271 271 275 275 274 273 272 270 269 268 266 265 265 264 262 263 262 259 258 255 256 255
279 276 275 273 280 281 283 285 285 284 279 273 277 271 273 278 274 272 276 270 271 272 279 268 271 274 271 269 268 268 267 266 265 264 265 263 264 264 266 263 260 260 262 257

GFSNW_sfc_thetae_120.txt.gz
Theta_e
300 300 301 302 302 303 297 291 283 293 297 284 282 280 284 290 287 289 287 286 283 278 279 277 276 279 286 292 290 285 290 287 280 284 291 292 291 285 285 277 276 281 275 274
300 300 301 302 303 301 293 287 287 294 293 280 278 284 286 288 286 286 285 283 284 281 276 271 273 281 288 291 289 288 290 286 279 279 287 290 287 288 289 287 284 280 274 274
301 301 301 302 302 302 294 287 280 286 288 285 283 283 283 283 287 286 286 284 283 279 272 277 272 280 287 290 289 294 294 286 280 275 279 286 283 287 289 286 277 277 276 276
301 301 301 302 302 301 292 284 282 287 280 282 283 284 284 281 281 285 285 282 282 278 271 274 276 280 284 288 291 290 290 283 284 283 283 283 282 284 286 283 282 277 276 275
301 301 302 301 302 300 289 284 284 284 284 285 283 284 282 281 281 281 280 281 282 282 279 279 276 280 282 283 288 286 290 283 285 281 286 282 278 280 282 283 281 279 278 275
301 300 301 301 301 298 290 289 289 286 283 282 282 281 283 282 283 285 285 283 282 281 282 284 285 286 286 287 285 284 285 284 282 277 283 282 276 279 279 281 281 282 276 278
300 300 300 300 300 299 293 291 287 284 279 281 281 285 284 283 284 283 285 284 282 285 288 288 287 286 285 286 287 288 285 285 283 280 282 271 279 285 284 280 281 282 280 279
299 299 300 300 300 300 293 291 288 285 280 283 284 284 284 284 284 283 285 285 286 287 286 283 282 281 282 284 288 286 289 285 283 278 276 279 280 281 281 281 278 282 282 281
298 299 300 300 301 300 294 291 291 288 284 282 287 283 284 280 280 281 283 287 288 286 282 279 278 276 280 280 282 287 287 286 284 280 276 272 277 281 285 285 275 282 281 279
299 299 299 300 301 300 294 291 292 289 283 285 286 282 282 284 282 280 281 283 284 284 276 277 277 278 283 278 278 279 280 281 278 279 276 277 280 284 287 277 275 283 281 278
299 299 300 301 301 300 295 291 293 289 284 284 289 289 284 284 282 277 280 278 280 278 276 277 277 277 280 279 282 280 277 277 276 278 275 272 283 284 279 282 284 284 281 281
299 299 300 301 301 300 297 290 294 292 286 285 289 290 290 290 288 283 283 282 283 282 276 277 278 277 278 280 273 283 277 279 277 277 276 282 283 282 283 282 280 281 281 280
299 300 300 301 301 300 296 290 290 288 285 286 287 288 292 292 291 290 283 283 287 284 284 283 278 278 280 277 278 282 283 285 279 279 280 281 281 282 281 281 280 281 280 279
299 300 300 301 300 299 296 291 290 288 285 282 286 293 290 294 292 291 290 288 287 285 284 281 279 278 283 279 281 279 281 282 278 279 282 282 281 280 281 280 281 280 279 278
299 300 300 300 299 298 294 291 291 291 287 280 284 289 293 293 293 291 290 288 284 282 281 278 279 282 282 282 280 279 282 281 278 272 282 280 280 280 281 279 279 279 277 276
299 299 300 299 298 294 289 284 290 293 289 283 278 286 290 293 291 290 288 287 284 282 281 280 281 284 281 274 273 283 285 286 287 282 285 283 282 280 280 278 278 278 277 276
299 299 299 297 297 291 286 285 292 294 290 281 278 285 290 293 291 289 284 285 283 282 281 281 281 282 281 272 274 282 283 285 285 285 284 280 280 277 279 278 277 277 276 275
298 298 298 297 296 293 291 294 298 294 287 284 277 281 286 290 283 280 283 282 282 282 281 281 282 282 280 274 280 283 285 285 285 285 284 282 279 278 277 277 276 275 274 274
297 297 296 290 287 285 290 299 298 293 287 278 274 279 277 285 282 282 282 282 274 281 276 280 280 277 275 280 281 281 284 284 282 281 280 278 277 276 276 276 275 273 273 273
296 290 284 276 285 295 297 290 284 283 288 285 277 279 275 282 279 278 277 277 276 274 277 281 276 275 281 283 284 285 283 284 282 278 276 277 276 276 275 275 275 274 273 272
287 282 284 289 296 292 288 282 279 280 280 283 281 280 277 283 277 276 278 275 276 274 277 277 272 277 277 280 283 285 283 282 281 280 280 279 278 276 275 274 274 273 272 269
287 291 293 293 289 284 279 279 282 280 278 280 279 279 282 279 283 279 279 275 274 272 277 277 273 273 277 279 281 283 282 281 280 279 278 277 277 276 275 273 272 270 269 265
292 289 285 280 282 273 271 273 277 278 277 277 278 276 284 279 280 274 278 269 269 276 276 269 273 274 277 278 278 279 278 279 278 277 277 276 275 275 273 271 270 268 266 262
280 277 273 271 274 274 275 277 276 277 277 278 277 278 278 277 277 271 270 272 274 265 265 270 272 275 277 277 278 278 275 274 274 273 273 271 270 267 265 264 263 262 260 254
278 278 275 276 275 278 281 280 283 283 278 279 277 277 278 272 273 273 272 269 267 270 269 271 271 274 276 275 274 271 270 269 269 268 267 265 264 264 259 256 256 259 256 254
278 278 274 278 280 280 282 283 284 282 277 278 279 275 271 271 273 272 269 271 267 270 270 271 271 273 273 272 271 270 269 268 267 266 265 264 263 263 262 257 256 254 255 254
277 273 279 279 277 277 283 285 285 282 282 278 276 270 272 277 271 270 273 268 270 270 272 275 269 271 270 269 269 267 267 266 265 264 264 262 262 264 264 263 259 260 260 255

GFSNW_sfc_thetae_123.txt.gz
Theta_e
303 303 303 302 301 302 299 293 284 295 298 287 284 281 285 291 288 290 288 287 285 282 282 282 281 281 287 292 290 286 290 287 281 285 291 293 292 288 288 281 280 283 280 275
299 300 301 300 300 300 295 289 288 295 295 281 282 285 287 288 287 287 286 285 286 284 280 277 278 282 289 290 289 288 290 285 279 280 286 289 288 290 291 288 286 279 278 275
300 300 300 300 301 301 295 288 282 288 290 287 285 284 284 284 288 287 287 285 285 282 277 280 277 282 287 290 289 293 293 285 280 276 279 283 282 286 289 288 282 278 276 275
300 300 301 302 302 301 293 287 284 289 283 284 285 286 285 283 282 286 287 285 284 282 275 278 278 282 285 288 291 290 291 284 285 284 284 282 280 282 284 281 282 278 276 275
301 301 301 302 302 300 290 286 285 287 285 287 286 286 283 282 282 284 282 283 284 284 282 281 279 282 284 285 289 288 291 284 285 281 285 283 278 280 282 282 280 279 278 275
301 302 302 302 301 298 291 290 290 289 284 284 284 284 283 283 286 287 286 286 285 283 284 286 288 288 288 288 285 285 286 286 284 279 284 283 276 278 280 280 281 282 276 278
301 301 301 301 300 299 294 292 289 286 281 283 283 285 285 284 285 284 286 287 285 287 290 290 289 287 286 287 287 288 285 284 285 281 283 273 280 285 283 280 281 281 280 280
300 300 300 301 300 300 294 292 290 287 281 284 285 285 284 285 286 285 286 287 288 290 288 286 284 284 285 286 288 288 288 285 283 279 277 279 281 281 281 281 278 282 282 281
299 299 300 301 301 300 294 292 292 290 285 284 287 284 285 282 282 283 285 288 290 289 285 284 280 278 281 281 283 289 287 287 284 281 277 274 278 282 286 286 276 282 281 281
299 299 300 300 301 300 295 293 293 291 285 287 288 284 284 285 284 282 283 285 286 287 283 281 280 280 284 279 278 279 281 281 279 280 277 277 281 283 287 277 278 282 281 280
299 299 300 301 300 300 295 293 294 291 286 287 291 290 286 285 284 280 283 283 284 283 280 281 280 281 283 282 282 281 278 278 277 279 276 274 283 285 280 282 284 283 282 280
299 300 300 301 301 300 297 291 294 293 289 288 291 292 293 292 289 286 286 285 285 285 282 282 283 282 282 282 276 285 279 281 279 279 277 282 283 282 284 286 284 283 282 281
299 300 301 301 301 300 296 291 291 291 289 289 290 289 292 294 294 293 286 286 289 287 288 285 284 282 284 280 280 282 284 285 280 280 281 281 282 282 283 284 284 283 282 281
300 300 301 301 300 299 296 291 291 291 289 285 288 295 292 295 295 294 292 291 289 288 288 286 284 284 286 284 284 283 284 284 281 280 282 281 281 282 282 282 282 280 280 280
300 301 301 300 299 298 295 293 293 293 290 284 287 291 294 294 295 292 292 290 288 286 285 284 284 286 286 286 284 281 284 282 280 279 284 283 281 282 282 281 279 279 278 277
300 300 300 299 297 294 292 286 293 294 291 288 283 289 292 293 293 291 290 289 287 287 286 285 285 286 286 282 281 284 286 287 288 284 286 284 283 282 282 280 279 279 278 277
300 299 298 298 298 295 288 287 292 296 292 287 284 285 291 293 292 289 287 288 286 287 286 285 285 286 286 281 280 284 286 286 285 285 283 280 281 279 280 280 280 279 277 277
299 298 298 298 297 296 292 295 298 295 288 287 282 283 286 291 285 285 286 286 286 285 285 286 286 286 285 282 282 284 286 285 284 285 285 284 281 280 279 279 278 276 275 275
298 297 295 291 288 288 292 298 295 294 289 281 281 281 279 288 285 285 285 285 282 284 283 284 285 282 281 284 283 284 285 284 283 282 281 280 279 278 277 277 277 276 275 275
295 290 285 280 287 296 295 290 285 285 287 286 280 282 283 285 283 282 282 281 281 280 282 284 282 282 283 285 286 286 286 285 283 280 278 278 278 277 277 277 277 277 276 275
287 284 283 289 294 292 287 280 279 282 280 283 282 283 282 286 282 281 282 281 280 277 281 281 279 279 282 284 285 286 286 285 284 284 283 282 281 279 278 277 276 276 275 273
288 289 293 293 288 285 280 279 281 280 279 282 281 282 285 284 286 284 281 279 279 276 281 280 276 280 281 284 285 286 285 283 283 283 281 281 280 280 278 277 275 274 273 270
292 288 285 282 282 276 274 274 277 278 280 281 282 281 284 283 284 279 281 276 276 280 279 275 279 279 281 282 283 284 284 283 281 280 280 279 278 278 277 274 273 271 269 267
281 277 276 275 274 276 276 279 279 280 280 281 281 282 283 281 280 276 276 276 278 273 272 274 280 280 280 280 281 281 280 279 278 277 277 275 274 271 270 269 269 267 265 261
279 278 272 276 277 279 281 282 283 283 282 283 282 281 282 277 276 276 276 274 272 274 275 279 280 277 278 278 278 276 275 273 274 274 272 270 268 268 265 265 266 266 262 261
279 278 277 280 280 281 283 284 284 283 282 282 283 278 276 276 276 275 274 274 272 276 278 279 277 276 277 276 276 275 273 273 272 271 271 269 267 267 267 263 264 263 263 262
278 277 280 280 279 280 284 285 285 283 283 278 279 274 275 279 275 274 276 274 278 279 279 282 277 276 275 274 273 271 271 271 270 269 269 268 267 266 266 266 265 264 265 263

GFSNW_sfc_thetae_126.txt.gz
Theta_e
306 305 304 304 302 302 299 293 284 297 302 290 291 287 288 292 290 293 290 290 288 287 286 286 286 286 290 295 293 289 292 289 284 287 294 296 294 290 290 284 282 286 285 279
304 304 303 302 303 302 297 288 287 298 298 283 286 288 290 291 290 290 289 288 289 289 286 284 286 287 292 293 292 291 293 287 283 285 291 291 288 290 292 291 291 285 282 279
299 301 302 302 302 301 298 289 283 288 292 292 288 287 287 286 291 290 290 289 290 287 284 284 283 286 290 292 293 293 295 289 284 281 280 285 282 286 290 288 286 284 280 278
300 301 300 301 302 300 298 290 287 289 283 287 289 290 288 285 285 290 291 287 288 286 281 283 283 286 289 291 293 294 293 285 285 286 286 285 283 283 285 283 284 282 279 277
301 301 301 302 302 300 296 287 288 292 290 290 289 289 288 287 286 287 286 286 288 288 284 285 283 286 289 290 293 293 293 286 287 284 287 285 281 283 284 283 282 281 280 277
299 299 300 301 301 299 295 294 294 293 289 289 289 288 288 287 288 289 290 290 288 286 288 290 291 291 291 292 291 289 289 287 286 283 285 285 279 280 282 283 284 284 280 280
301 301 302 301 301 300 297 295 296 291 286 289 288 288 289 288 288 288 290 291 288 290 294 294 294 292 291 292 292 293 288 287 286 285 285 277 281 286 285 282 283 284 282 282
301 300 300 301 301 300 299 298 297 293 289 290 289 289 289 290 291 289 288 289 292 295 292 290 287 288 289 290 292 292 292 288 286 283 282 281 282 284 283 283 280 284 284 283
300 300 301 301 301 299 300 298 300 298 291 289 291 289 290 287 288 288 288 292 295 294 290 289 282 281 284 284 287 292 290 292 286 285 279 277 282 284 287 288 280 284 285 285
299 300 301 301 301 299 302 298 300 299 292 292 293 289 288 291 289 287 288 289 290 292 288 286 284 284 288 283 282 283 285 286 284 284 281 281 284 286 289 279 279 285 285 285
299 300 301 301 301 300 301 297 300 300 294 293 294 293 291 290 290 285 289 288 289 289 286 286 286 286 287 286 285 284 283 283 283 284 281 278 285 286 283 285 287 287 286 286
299 300 301 301 301 301 300 297 300 302 296 293 297 296 296 295 294 291 290 289 290 291 289 289 290 286 288 286 281 288 283 286 285 282 281 285 286 287 290 290 287 286 286 286
300 300 301 301 300 299 301 299 300 300 296 294 294 292 297 300 299 299 291 293 293 292 295 294 292 286 291 284 286 285 286 288 285 283 282 284 285 287 288 289 288 287 286 285
300 301 301 300 300 299 300 299 299 302 296 290 290 298 295 298 300 299 299 296 295 295 296 293 292 289 292 288 289 289 289 289 284 281 283 285 285 286 287 286 286 285 285 284
301 301 300 300 299 299 301 300 299 299 296 289 290 296 297 298 299 297 297 296 294 294 291 292 290 293 291 292 291 288 290 287 286 286 286 287 285 287 287 284 283 283 282 281
301 300 300 298 297 295 300 290 300 300 303 293 287 294 294 296 297 296 295 295 294 295 293 291 293 293 292 288 287 288 290 290 291 288 290 289 287 287 287 284 284 283 282 282
300 299 299 299 299 300 294 292 297 298 301 294 287 288 294 296 295 295 294 295 294 294 292 291 292 293 293 290 286 288 290 290 291 291 288 284 285 283 285 284 283 283 282 281
300 300 299 299 300 299 295 299 299 299 296 295 287 286 289 294 290 290 294 292 293 292 292 293 291 292 293 285 288 289 290 289 289 289 290 289 287 285 284 283 282 280 279 279
298 297 296 298 296 294 295 298 298 301 296 289 289 284 283 293 291 292 292 293 288 293 290 291 291 289 284 288 289 289 289 288 288 289 288 286 284 283 282 282 281 280 279 279
295 295 292 286 293 297 297 296 293 293 292 292 287 290 285 291 290 288 288 291 288 285 288 292 288 287 289 290 292 292 291 291 289 286 284 285 283 283 282 282 282 282 280 279
293 289 286 292 296 296 291 285 287 287 284 289 288 289 286 292 287 286 290 287 288 282 286 285 285 285 288 291 291 292 292 291 290 291 289 288 286 284 283 282 281 281 280 278
293 292 295 295 291 287 284 282 284 284 282 286 287 288 291 290 293 289 288 284 286 278 290 283 281 288 288 290 291 291 291 290 289 290 288 287 286 285 284 283 281 280 279 277
295 291 286 287 284 279 279 276 280 281 284 286 288 286 290 290 292 287 287 282 282 288 283 282 286 287 287 290 291 291 291 289 288 288 287 286 285 285 283 281 280 277 275 274
287 284 278 281 278 281 282 283 284 285 287 287 289 286 289 289 285 285 282 283 285 279 277 279 289 286 286 289 290 289 287 286 286 285 284 283 281 279 279 277 275 274 270 270
284 284 277 280 283 285 285 286 286 286 289 289 287 288 289 285 282 284 282 279 278 280 282 288 290 285 285 285 285 285 284 283 282 282 279 277 275 275 274 274 274 273 269 268
284 283 281 283 284 283 285 286 285 288 290 290 290 284 283 281 283 280 279 279 278 284 288 290 288 284 283 284 284 284 283 282 281 280 278 276 274 274 275 273 272 271 270 269
281 281 284 284 285 284 285 286 286 290 289 286 286 281 278 284 281 279 284 282 287 290 290 289 284 283 283 283 281 279 279 279 280 278 277 276 276 273 272 271 271 271 271 270